<?xml version="1.0" encoding="utf-8"?>
<gpx xmlns:xsi="http://www.w3.org/2001/XMLSchema-instance" xmlns:xsd="http://www.w3.org/2001/XMLSchema" version="1.1" creator="Shapelink.com" xmlns="http://www.topografix.com/GPX/1/1" xmlns:gpxtpx="http://www.garmin.com/xmlschemas/TrackPointExtension/v1">
  <metadata>
    <name>Sykling 97.76 km, 2012-04-29</name>
    <desc></desc>
    <author><name>Mikael Blom</name></author> 
    <time>2012-04-29T08:55:59Z</time>
  </metadata>
  <trk>
    <name>Sykling 97.76 km, 2012-04-29</name>
    <trkseg>
      <trkpt lat="59.9789127" lon="17.7393641">
        <ele>38.1094</ele>
        <time>2012-04-29T08:55:59Z</time>
      </trkpt>
      <trkpt lat="59.9789956" lon="17.7392749">
        <ele>40.5128</ele>
        <time>2012-04-29T08:56:03Z</time>
      </trkpt>
      <trkpt lat="59.9791417" lon="17.739187">
        <ele>42.916</ele>
        <time>2012-04-29T08:56:08Z</time>
      </trkpt>
      <trkpt lat="59.9791723" lon="17.739162">
        <ele>42.916</ele>
        <time>2012-04-29T08:56:09Z</time>
      </trkpt>
      <trkpt lat="59.979393" lon="17.7390052">
        <ele>41.9547</ele>
        <time>2012-04-29T08:56:16Z</time>
      </trkpt>
      <trkpt lat="59.9797167" lon="17.738844">
        <ele>40.0321</ele>
        <time>2012-04-29T08:56:25Z</time>
      </trkpt>
      <trkpt lat="59.9798929" lon="17.7387783">
        <ele>40.9934</ele>
        <time>2012-04-29T08:56:29Z</time>
      </trkpt>
      <trkpt lat="59.9802446" lon="17.7387954">
        <ele>42.916</ele>
        <time>2012-04-29T08:56:37Z</time>
      </trkpt>
      <trkpt lat="59.9803191" lon="17.7388002">
        <ele>42.4354</ele>
        <time>2012-04-29T08:56:39Z</time>
      </trkpt>
      <trkpt lat="59.9805993" lon="17.7387357">
        <ele>44.8386</ele>
        <time>2012-04-29T08:56:45Z</time>
      </trkpt>
      <trkpt lat="59.9807455" lon="17.738685">
        <ele>46.2806</ele>
        <time>2012-04-29T08:56:48Z</time>
      </trkpt>
      <trkpt lat="59.9810535" lon="17.7385973">
        <ele>46.2806</ele>
        <time>2012-04-29T08:56:55Z</time>
      </trkpt>
      <trkpt lat="59.9812944" lon="17.7385435">
        <ele>47.2418</ele>
        <time>2012-04-29T08:57:01Z</time>
      </trkpt>
      <trkpt lat="59.9815111" lon="17.7384895">
        <ele>48.684</ele>
        <time>2012-04-29T08:57:07Z</time>
      </trkpt>
      <trkpt lat="59.9817059" lon="17.7384301">
        <ele>47.2418</ele>
        <time>2012-04-29T08:57:14Z</time>
      </trkpt>
      <trkpt lat="59.9819637" lon="17.7382919">
        <ele>49.1646</ele>
        <time>2012-04-29T08:57:22Z</time>
      </trkpt>
      <trkpt lat="59.9821325" lon="17.73818">
        <ele>49.1646</ele>
        <time>2012-04-29T08:57:26Z</time>
      </trkpt>
      <trkpt lat="59.9822348" lon="17.7381296">
        <ele>48.684</ele>
        <time>2012-04-29T08:57:28Z</time>
      </trkpt>
      <trkpt lat="59.9825035" lon="17.7380778">
        <ele>48.684</ele>
        <time>2012-04-29T08:57:33Z</time>
      </trkpt>
      <trkpt lat="59.9828682" lon="17.7381288">
        <ele>47.7225</ele>
        <time>2012-04-29T08:57:39Z</time>
      </trkpt>
      <trkpt lat="59.9831309" lon="17.7381589">
        <ele>48.684</ele>
        <time>2012-04-29T08:57:43Z</time>
      </trkpt>
      <trkpt lat="59.9835267" lon="17.7380583">
        <ele>53.0098</ele>
        <time>2012-04-29T08:57:49Z</time>
      </trkpt>
      <trkpt lat="59.9839507" lon="17.7379754">
        <ele>51.0872</ele>
        <time>2012-04-29T08:57:56Z</time>
      </trkpt>
      <trkpt lat="59.9842033" lon="17.7379987">
        <ele>48.2034</ele>
        <time>2012-04-29T08:58:01Z</time>
      </trkpt>
      <trkpt lat="59.9844943" lon="17.7380581">
        <ele>46.7612</ele>
        <time>2012-04-29T08:58:06Z</time>
      </trkpt>
      <trkpt lat="59.984819" lon="17.7381521">
        <ele>49.1646</ele>
        <time>2012-04-29T08:58:11Z</time>
      </trkpt>
      <trkpt lat="59.9852298" lon="17.7382203">
        <ele>46.2806</ele>
        <time>2012-04-29T08:58:19Z</time>
      </trkpt>
      <trkpt lat="59.9853221" lon="17.7382595">
        <ele>44.8386</ele>
        <time>2012-04-29T08:58:21Z</time>
      </trkpt>
      <trkpt lat="59.9857314" lon="17.7384549">
        <ele>42.916</ele>
        <time>2012-04-29T08:58:29Z</time>
      </trkpt>
      <trkpt lat="59.985983" lon="17.7385329">
        <ele>49.1646</ele>
        <time>2012-04-29T08:58:34Z</time>
      </trkpt>
      <trkpt lat="59.9860333" lon="17.738546">
        <ele>49.6453</ele>
        <time>2012-04-29T08:58:35Z</time>
      </trkpt>
      <trkpt lat="59.9863343" lon="17.738676">
        <ele>56.8551</ele>
        <time>2012-04-29T08:58:41Z</time>
      </trkpt>
      <trkpt lat="59.9864337" lon="17.7387548">
        <ele>60.2197</ele>
        <time>2012-04-29T08:58:43Z</time>
      </trkpt>
      <trkpt lat="59.9866948" lon="17.7390383">
        <ele>67.9103</ele>
        <time>2012-04-29T08:58:49Z</time>
      </trkpt>
      <trkpt lat="59.9868372" lon="17.7392192">
        <ele>69.8329</ele>
        <time>2012-04-29T08:58:53Z</time>
      </trkpt>
      <trkpt lat="59.9868935" lon="17.7392766">
        <ele>67.4297</ele>
        <time>2012-04-29T08:58:55Z</time>
      </trkpt>
      <trkpt lat="59.9870605" lon="17.7392968">
        <ele>65.5071</ele>
        <time>2012-04-29T08:58:59Z</time>
      </trkpt>
      <trkpt lat="59.9872169" lon="17.7392781">
        <ele>66.949</ele>
        <time>2012-04-29T08:59:02Z</time>
      </trkpt>
      <trkpt lat="59.9874392" lon="17.7392606">
        <ele>66.949</ele>
        <time>2012-04-29T08:59:07Z</time>
      </trkpt>
      <trkpt lat="59.9874962" lon="17.7392529">
        <ele>65.9877</ele>
        <time>2012-04-29T08:59:08Z</time>
      </trkpt>
      <trkpt lat="59.9877578" lon="17.7391642">
        <ele>65.9877</ele>
        <time>2012-04-29T08:59:13Z</time>
      </trkpt>
      <trkpt lat="59.9880155" lon="17.739188">
        <ele>67.4297</ele>
        <time>2012-04-29T08:59:18Z</time>
      </trkpt>
      <trkpt lat="59.9881561" lon="17.7391866">
        <ele>65.9877</ele>
        <time>2012-04-29T08:59:21Z</time>
      </trkpt>
      <trkpt lat="59.9883839" lon="17.7391376">
        <ele>65.9877</ele>
        <time>2012-04-29T08:59:27Z</time>
      </trkpt>
      <trkpt lat="59.9886916" lon="17.7389404">
        <ele>70.7942</ele>
        <time>2012-04-29T08:59:34Z</time>
      </trkpt>
      <trkpt lat="59.9888584" lon="17.7388309">
        <ele>70.7942</ele>
        <time>2012-04-29T08:59:38Z</time>
      </trkpt>
      <trkpt lat="59.9891461" lon="17.7385487">
        <ele>66.4683</ele>
        <time>2012-04-29T08:59:45Z</time>
      </trkpt>
      <trkpt lat="59.9891859" lon="17.7385271">
        <ele>65.0264</ele>
        <time>2012-04-29T08:59:46Z</time>
      </trkpt>
      <trkpt lat="59.9894973" lon="17.7384556">
        <ele>62.1423</ele>
        <time>2012-04-29T08:59:53Z</time>
      </trkpt>
      <trkpt lat="59.9897939" lon="17.7383835">
        <ele>59.2584</ele>
        <time>2012-04-29T08:59:58Z</time>
      </trkpt>
      <trkpt lat="59.9899857" lon="17.7382785">
        <ele>58.7777</ele>
        <time>2012-04-29T09:00:01Z</time>
      </trkpt>
      <trkpt lat="59.9904854" lon="17.7380535">
        <ele>56.3745</ele>
        <time>2012-04-29T09:00:09Z</time>
      </trkpt>
      <trkpt lat="59.9907938" lon="17.7379058">
        <ele>56.8551</ele>
        <time>2012-04-29T09:00:14Z</time>
      </trkpt>
      <trkpt lat="59.9911469" lon="17.7376744">
        <ele>51.5679</ele>
        <time>2012-04-29T09:00:20Z</time>
      </trkpt>
      <trkpt lat="59.9914455" lon="17.7374905">
        <ele>50.6066</ele>
        <time>2012-04-29T09:00:25Z</time>
      </trkpt>
      <trkpt lat="59.9914999" lon="17.7374619">
        <ele>50.6066</ele>
        <time>2012-04-29T09:00:26Z</time>
      </trkpt>
      <trkpt lat="59.991788" lon="17.7374577">
        <ele>54.4518</ele>
        <time>2012-04-29T09:00:31Z</time>
      </trkpt>
      <trkpt lat="59.9919646" lon="17.737462">
        <ele>55.8938</ele>
        <time>2012-04-29T09:00:34Z</time>
      </trkpt>
      <trkpt lat="59.9922001" lon="17.7374189">
        <ele>57.8165</ele>
        <time>2012-04-29T09:00:38Z</time>
      </trkpt>
      <trkpt lat="59.9923255" lon="17.737365">
        <ele>57.3358</ele>
        <time>2012-04-29T09:00:40Z</time>
      </trkpt>
      <trkpt lat="59.9927582" lon="17.7370169">
        <ele>55.4131</ele>
        <time>2012-04-29T09:00:47Z</time>
      </trkpt>
      <trkpt lat="59.9928605" lon="17.7368446">
        <ele>53.9712</ele>
        <time>2012-04-29T09:00:49Z</time>
      </trkpt>
      <trkpt lat="59.9930485" lon="17.7363981">
        <ele>51.5679</ele>
        <time>2012-04-29T09:00:53Z</time>
      </trkpt>
      <trkpt lat="59.9934365" lon="17.7357173">
        <ele>50.126</ele>
        <time>2012-04-29T09:01:00Z</time>
      </trkpt>
      <trkpt lat="59.9935646" lon="17.7356009">
        <ele>50.126</ele>
        <time>2012-04-29T09:01:02Z</time>
      </trkpt>
      <trkpt lat="59.9939692" lon="17.7355097">
        <ele>51.0872</ele>
        <time>2012-04-29T09:01:07Z</time>
      </trkpt>
      <trkpt lat="59.9941292" lon="17.7354857">
        <ele>49.1646</ele>
        <time>2012-04-29T09:01:10Z</time>
      </trkpt>
      <trkpt lat="59.9943796" lon="17.7354893">
        <ele>49.1646</ele>
        <time>2012-04-29T09:01:14Z</time>
      </trkpt>
      <trkpt lat="59.9946432" lon="17.7357163">
        <ele>47.2418</ele>
        <time>2012-04-29T09:01:18Z</time>
      </trkpt>
      <trkpt lat="59.9947524" lon="17.7358189">
        <ele>43.8773</ele>
        <time>2012-04-29T09:01:20Z</time>
      </trkpt>
      <trkpt lat="59.9950401" lon="17.7360198">
        <ele>44.8386</ele>
        <time>2012-04-29T09:01:25Z</time>
      </trkpt>
      <trkpt lat="59.9950955" lon="17.7360452">
        <ele>44.8386</ele>
        <time>2012-04-29T09:01:26Z</time>
      </trkpt>
      <trkpt lat="59.9953557" lon="17.7360908">
        <ele>49.1646</ele>
        <time>2012-04-29T09:01:30Z</time>
      </trkpt>
      <trkpt lat="59.9955331" lon="17.7360666">
        <ele>50.6066</ele>
        <time>2012-04-29T09:01:33Z</time>
      </trkpt>
      <trkpt lat="59.9956414" lon="17.7360954">
        <ele>53.0098</ele>
        <time>2012-04-29T09:01:35Z</time>
      </trkpt>
      <trkpt lat="59.9957321" lon="17.736109">
        <ele>53.0098</ele>
        <time>2012-04-29T09:01:37Z</time>
      </trkpt>
      <trkpt lat="59.9958294" lon="17.7361079">
        <ele>53.4905</ele>
        <time>2012-04-29T09:01:39Z</time>
      </trkpt>
      <trkpt lat="59.995933" lon="17.7360747">
        <ele>53.4905</ele>
        <time>2012-04-29T09:01:41Z</time>
      </trkpt>
      <trkpt lat="59.996047" lon="17.7360598">
        <ele>53.9712</ele>
        <time>2012-04-29T09:01:43Z</time>
      </trkpt>
      <trkpt lat="59.9962129" lon="17.7361084">
        <ele>54.9324</ele>
        <time>2012-04-29T09:01:46Z</time>
      </trkpt>
      <trkpt lat="59.9965126" lon="17.7362404">
        <ele>53.0098</ele>
        <time>2012-04-29T09:01:52Z</time>
      </trkpt>
      <trkpt lat="59.9966219" lon="17.7362784">
        <ele>54.4518</ele>
        <time>2012-04-29T09:01:54Z</time>
      </trkpt>
      <trkpt lat="59.9967756" lon="17.7362929">
        <ele>55.8938</ele>
        <time>2012-04-29T09:01:57Z</time>
      </trkpt>
      <trkpt lat="59.996988" lon="17.7363803">
        <ele>59.2584</ele>
        <time>2012-04-29T09:02:01Z</time>
      </trkpt>
      <trkpt lat="59.9971978" lon="17.7364509">
        <ele>61.181</ele>
        <time>2012-04-29T09:02:05Z</time>
      </trkpt>
      <trkpt lat="59.9974257" lon="17.7364803">
        <ele>68.3909</ele>
        <time>2012-04-29T09:02:10Z</time>
      </trkpt>
      <trkpt lat="59.9975886" lon="17.7365284">
        <ele>72.2362</ele>
        <time>2012-04-29T09:02:14Z</time>
      </trkpt>
      <trkpt lat="59.9976669" lon="17.7365379">
        <ele>71.7555</ele>
        <time>2012-04-29T09:02:16Z</time>
      </trkpt>
      <trkpt lat="59.9978606" lon="17.7365269">
        <ele>73.1976</ele>
        <time>2012-04-29T09:02:20Z</time>
      </trkpt>
      <trkpt lat="59.998039" lon="17.7365546">
        <ele>70.7942</ele>
        <time>2012-04-29T09:02:24Z</time>
      </trkpt>
      <trkpt lat="59.9984236" lon="17.736617">
        <ele>73.1976</ele>
        <time>2012-04-29T09:02:31Z</time>
      </trkpt>
      <trkpt lat="59.9984815" lon="17.7366316">
        <ele>73.1976</ele>
        <time>2012-04-29T09:02:32Z</time>
      </trkpt>
      <trkpt lat="59.9988799" lon="17.736638">
        <ele>68.3909</ele>
        <time>2012-04-29T09:02:37Z</time>
      </trkpt>
      <trkpt lat="59.9992026" lon="17.7366905">
        <ele>63.1036</ele>
        <time>2012-04-29T09:02:42Z</time>
      </trkpt>
      <trkpt lat="59.999439" lon="17.7367585">
        <ele>53.4905</ele>
        <time>2012-04-29T09:02:47Z</time>
      </trkpt>
      <trkpt lat="59.9996493" lon="17.7367507">
        <ele>48.2034</ele>
        <time>2012-04-29T09:02:52Z</time>
      </trkpt>
      <trkpt lat="59.9997968" lon="17.7367965">
        <ele>43.8773</ele>
        <time>2012-04-29T09:02:56Z</time>
      </trkpt>
      <trkpt lat="60.0001305" lon="17.7368">
        <ele>45.3192</ele>
        <time>2012-04-29T09:03:03Z</time>
      </trkpt>
      <trkpt lat="60.0003107" lon="17.7367674">
        <ele>43.8773</ele>
        <time>2012-04-29T09:03:06Z</time>
      </trkpt>
      <trkpt lat="60.0006044" lon="17.7365618">
        <ele>45.3192</ele>
        <time>2012-04-29T09:03:10Z</time>
      </trkpt>
      <trkpt lat="60.0010031" lon="17.7364005">
        <ele>47.2418</ele>
        <time>2012-04-29T09:03:16Z</time>
      </trkpt>
      <trkpt lat="60.0013191" lon="17.7362396">
        <ele>45.7999</ele>
        <time>2012-04-29T09:03:22Z</time>
      </trkpt>
      <trkpt lat="60.0016639" lon="17.7358308">
        <ele>45.7999</ele>
        <time>2012-04-29T09:03:30Z</time>
      </trkpt>
      <trkpt lat="60.0017102" lon="17.735755">
        <ele>45.7999</ele>
        <time>2012-04-29T09:03:31Z</time>
      </trkpt>
      <trkpt lat="60.0019708" lon="17.7352579">
        <ele>43.8773</ele>
        <time>2012-04-29T09:03:36Z</time>
      </trkpt>
      <trkpt lat="60.0020187" lon="17.7351419">
        <ele>42.916</ele>
        <time>2012-04-29T09:03:37Z</time>
      </trkpt>
      <trkpt lat="60.0021619" lon="17.7346026">
        <ele>40.0321</ele>
        <time>2012-04-29T09:03:41Z</time>
      </trkpt>
      <trkpt lat="60.0023249" lon="17.7336575">
        <ele>37.6287</ele>
        <time>2012-04-29T09:03:48Z</time>
      </trkpt>
      <trkpt lat="60.0023421" lon="17.7335278">
        <ele>37.1481</ele>
        <time>2012-04-29T09:03:49Z</time>
      </trkpt>
      <trkpt lat="60.0023512" lon="17.7331426">
        <ele>32.8223</ele>
        <time>2012-04-29T09:03:52Z</time>
      </trkpt>
      <trkpt lat="60.0024055" lon="17.7324356">
        <ele>28.4962</ele>
        <time>2012-04-29T09:03:56Z</time>
      </trkpt>
      <trkpt lat="60.0025998" lon="17.7316012">
        <ele>28.4962</ele>
        <time>2012-04-29T09:04:01Z</time>
      </trkpt>
      <trkpt lat="60.002962" lon="17.7306351">
        <ele>28.4962</ele>
        <time>2012-04-29T09:04:08Z</time>
      </trkpt>
      <trkpt lat="60.0032959" lon="17.7299588">
        <ele>30.8995</ele>
        <time>2012-04-29T09:04:14Z</time>
      </trkpt>
      <trkpt lat="60.0037605" lon="17.7290857">
        <ele>32.3416</ele>
        <time>2012-04-29T09:04:23Z</time>
      </trkpt>
      <trkpt lat="60.0039009" lon="17.7288623">
        <ele>31.3801</ele>
        <time>2012-04-29T09:04:26Z</time>
      </trkpt>
      <trkpt lat="60.0040937" lon="17.7286819">
        <ele>32.8223</ele>
        <time>2012-04-29T09:04:31Z</time>
      </trkpt>
      <trkpt lat="60.0041443" lon="17.7284845">
        <ele>31.3801</ele>
        <time>2012-04-29T09:04:35Z</time>
      </trkpt>
      <trkpt lat="60.0041911" lon="17.728333">
        <ele>30.4188</ele>
        <time>2012-04-29T09:04:38Z</time>
      </trkpt>
      <trkpt lat="60.0043584" lon="17.728163">
        <ele>31.8607</ele>
        <time>2012-04-29T09:04:44Z</time>
      </trkpt>
      <trkpt lat="60.0046097" lon="17.727989">
        <ele>32.3416</ele>
        <time>2012-04-29T09:04:49Z</time>
      </trkpt>
      <trkpt lat="60.0050329" lon="17.7279202">
        <ele>33.3029</ele>
        <time>2012-04-29T09:04:55Z</time>
      </trkpt>
      <trkpt lat="60.0051712" lon="17.7279099">
        <ele>32.8223</ele>
        <time>2012-04-29T09:04:57Z</time>
      </trkpt>
      <trkpt lat="60.0055805" lon="17.7278893">
        <ele>33.3029</ele>
        <time>2012-04-29T09:05:03Z</time>
      </trkpt>
      <trkpt lat="60.005768" lon="17.7279369">
        <ele>33.7834</ele>
        <time>2012-04-29T09:05:06Z</time>
      </trkpt>
      <trkpt lat="60.0060129" lon="17.7278114">
        <ele>32.8223</ele>
        <time>2012-04-29T09:05:10Z</time>
      </trkpt>
      <trkpt lat="60.0062985" lon="17.727455">
        <ele>30.8995</ele>
        <time>2012-04-29T09:05:15Z</time>
      </trkpt>
      <trkpt lat="60.0066862" lon="17.7271381">
        <ele>30.4188</ele>
        <time>2012-04-29T09:05:21Z</time>
      </trkpt>
      <trkpt lat="60.0070288" lon="17.7270034">
        <ele>30.4188</ele>
        <time>2012-04-29T09:05:26Z</time>
      </trkpt>
      <trkpt lat="60.0074183" lon="17.7267334">
        <ele>28.4962</ele>
        <time>2012-04-29T09:05:32Z</time>
      </trkpt>
      <trkpt lat="60.007485" lon="17.7266874">
        <ele>28.4962</ele>
        <time>2012-04-29T09:05:33Z</time>
      </trkpt>
      <trkpt lat="60.0078004" lon="17.7267404">
        <ele>24.651</ele>
        <time>2012-04-29T09:05:37Z</time>
      </trkpt>
      <trkpt lat="60.0080271" lon="17.7269498">
        <ele>24.1703</ele>
        <time>2012-04-29T09:05:40Z</time>
      </trkpt>
      <trkpt lat="60.0083809" lon="17.7275181">
        <ele>22.2476</ele>
        <time>2012-04-29T09:05:46Z</time>
      </trkpt>
      <trkpt lat="60.0086217" lon="17.7278544">
        <ele>22.7283</ele>
        <time>2012-04-29T09:05:51Z</time>
      </trkpt>
      <trkpt lat="60.0087935" lon="17.7280933">
        <ele>20.325</ele>
        <time>2012-04-29T09:05:55Z</time>
      </trkpt>
      <trkpt lat="60.0090045" lon="17.7285661">
        <ele>20.325</ele>
        <time>2012-04-29T09:06:01Z</time>
      </trkpt>
      <trkpt lat="60.0091486" lon="17.7290806">
        <ele>21.767</ele>
        <time>2012-04-29T09:06:07Z</time>
      </trkpt>
      <trkpt lat="60.0093272" lon="17.7296105">
        <ele>25.6123</ele>
        <time>2012-04-29T09:06:14Z</time>
      </trkpt>
      <trkpt lat="60.0094741" lon="17.7300471">
        <ele>26.5736</ele>
        <time>2012-04-29T09:06:20Z</time>
      </trkpt>
      <trkpt lat="60.0096545" lon="17.7305264">
        <ele>27.0543</ele>
        <time>2012-04-29T09:06:28Z</time>
      </trkpt>
      <trkpt lat="60.0098317" lon="17.7309712">
        <ele>28.4962</ele>
        <time>2012-04-29T09:06:35Z</time>
      </trkpt>
      <trkpt lat="60.0100373" lon="17.7312407">
        <ele>28.0155</ele>
        <time>2012-04-29T09:06:41Z</time>
      </trkpt>
      <trkpt lat="60.0103394" lon="17.7316376">
        <ele>27.0543</ele>
        <time>2012-04-29T09:06:49Z</time>
      </trkpt>
      <trkpt lat="60.0106112" lon="17.7321804">
        <ele>29.4575</ele>
        <time>2012-04-29T09:06:57Z</time>
      </trkpt>
      <trkpt lat="60.0109087" lon="17.7325109">
        <ele>30.4188</ele>
        <time>2012-04-29T09:07:04Z</time>
      </trkpt>
      <trkpt lat="60.0112852" lon="17.7327253">
        <ele>31.3801</ele>
        <time>2012-04-29T09:07:11Z</time>
      </trkpt>
      <trkpt lat="60.011773" lon="17.732775">
        <ele>31.8607</ele>
        <time>2012-04-29T09:07:19Z</time>
      </trkpt>
      <trkpt lat="60.0122887" lon="17.7326844">
        <ele>31.3801</ele>
        <time>2012-04-29T09:07:27Z</time>
      </trkpt>
      <trkpt lat="60.0129103" lon="17.7324756">
        <ele>32.3416</ele>
        <time>2012-04-29T09:07:36Z</time>
      </trkpt>
      <trkpt lat="60.0130544" lon="17.7324373">
        <ele>32.3416</ele>
        <time>2012-04-29T09:07:38Z</time>
      </trkpt>
      <trkpt lat="60.0137101" lon="17.7324737">
        <ele>30.4188</ele>
        <time>2012-04-29T09:07:47Z</time>
      </trkpt>
      <trkpt lat="60.0141181" lon="17.7326136">
        <ele>29.9381</ele>
        <time>2012-04-29T09:07:53Z</time>
      </trkpt>
      <trkpt lat="60.0145218" lon="17.732832">
        <ele>31.3801</ele>
        <time>2012-04-29T09:08:00Z</time>
      </trkpt>
      <trkpt lat="60.0149399" lon="17.7332088">
        <ele>31.3801</ele>
        <time>2012-04-29T09:08:08Z</time>
      </trkpt>
      <trkpt lat="60.0153123" lon="17.7333872">
        <ele>31.8607</ele>
        <time>2012-04-29T09:08:15Z</time>
      </trkpt>
      <trkpt lat="60.0157646" lon="17.7334895">
        <ele>33.3029</ele>
        <time>2012-04-29T09:08:24Z</time>
      </trkpt>
      <trkpt lat="60.0162442" lon="17.7335946">
        <ele>31.8607</ele>
        <time>2012-04-29T09:08:34Z</time>
      </trkpt>
      <trkpt lat="60.0165933" lon="17.7336952">
        <ele>32.8223</ele>
        <time>2012-04-29T09:08:41Z</time>
      </trkpt>
      <trkpt lat="60.0170752" lon="17.7338515">
        <ele>35.2255</ele>
        <time>2012-04-29T09:08:51Z</time>
      </trkpt>
      <trkpt lat="60.0175381" lon="17.7339901">
        <ele>37.6287</ele>
        <time>2012-04-29T09:09:01Z</time>
      </trkpt>
      <trkpt lat="60.0178871" lon="17.7342272">
        <ele>36.6675</ele>
        <time>2012-04-29T09:09:09Z</time>
      </trkpt>
      <trkpt lat="60.0181613" lon="17.7345019">
        <ele>38.5901</ele>
        <time>2012-04-29T09:09:16Z</time>
      </trkpt>
      <trkpt lat="60.0184256" lon="17.734789">
        <ele>39.5513</ele>
        <time>2012-04-29T09:09:23Z</time>
      </trkpt>
      <trkpt lat="60.0187379" lon="17.7351297">
        <ele>35.7061</ele>
        <time>2012-04-29T09:09:30Z</time>
      </trkpt>
      <trkpt lat="60.0189817" lon="17.7355151">
        <ele>29.9381</ele>
        <time>2012-04-29T09:09:36Z</time>
      </trkpt>
      <trkpt lat="60.0190188" lon="17.7355799">
        <ele>28.9769</ele>
        <time>2012-04-29T09:09:37Z</time>
      </trkpt>
      <trkpt lat="60.0191001" lon="17.7356961">
        <ele>27.5349</ele>
        <time>2012-04-29T09:09:39Z</time>
      </trkpt>
      <trkpt lat="60.0194634" lon="17.7362707">
        <ele>21.2864</ele>
        <time>2012-04-29T09:09:48Z</time>
      </trkpt>
      <trkpt lat="60.0197971" lon="17.7367421">
        <ele>17.4412</ele>
        <time>2012-04-29T09:09:55Z</time>
      </trkpt>
      <trkpt lat="60.019995" lon="17.7371652">
        <ele>19.3638</ele>
        <time>2012-04-29T09:10:00Z</time>
      </trkpt>
      <trkpt lat="60.0202085" lon="17.7379364">
        <ele>22.2476</ele>
        <time>2012-04-29T09:10:08Z</time>
      </trkpt>
      <trkpt lat="60.0203327" lon="17.7382969">
        <ele>24.1703</ele>
        <time>2012-04-29T09:10:12Z</time>
      </trkpt>
      <trkpt lat="60.0206494" lon="17.7390134">
        <ele>25.6123</ele>
        <time>2012-04-29T09:10:21Z</time>
      </trkpt>
      <trkpt lat="60.0210192" lon="17.7395888">
        <ele>26.5736</ele>
        <time>2012-04-29T09:10:30Z</time>
      </trkpt>
      <trkpt lat="60.0214466" lon="17.7401257">
        <ele>25.1317</ele>
        <time>2012-04-29T09:10:40Z</time>
      </trkpt>
      <trkpt lat="60.0218558" lon="17.7405396">
        <ele>31.3801</ele>
        <time>2012-04-29T09:10:49Z</time>
      </trkpt>
      <trkpt lat="60.0222939" lon="17.7410144">
        <ele>35.2255</ele>
        <time>2012-04-29T09:10:59Z</time>
      </trkpt>
      <trkpt lat="60.0224977" lon="17.7412234">
        <ele>38.1094</ele>
        <time>2012-04-29T09:11:04Z</time>
      </trkpt>
      <trkpt lat="60.0226566" lon="17.7411086">
        <ele>36.1868</ele>
        <time>2012-04-29T09:11:08Z</time>
      </trkpt>
      <trkpt lat="60.0226981" lon="17.7406904">
        <ele>34.2642</ele>
        <time>2012-04-29T09:11:11Z</time>
      </trkpt>
      <trkpt lat="60.0227882" lon="17.7395154">
        <ele>28.4962</ele>
        <time>2012-04-29T09:11:19Z</time>
      </trkpt>
      <trkpt lat="60.0229152" lon="17.7378503">
        <ele>23.209</ele>
        <time>2012-04-29T09:11:30Z</time>
      </trkpt>
      <trkpt lat="60.0230359" lon="17.7363043">
        <ele>21.2864</ele>
        <time>2012-04-29T09:11:40Z</time>
      </trkpt>
      <trkpt lat="60.0231612" lon="17.7349502">
        <ele>20.8057</ele>
        <time>2012-04-29T09:11:49Z</time>
      </trkpt>
      <trkpt lat="60.0233222" lon="17.7337321">
        <ele>20.8057</ele>
        <time>2012-04-29T09:11:58Z</time>
      </trkpt>
      <trkpt lat="60.0233891" lon="17.732861">
        <ele>23.209</ele>
        <time>2012-04-29T09:12:05Z</time>
      </trkpt>
      <trkpt lat="60.0233855" lon="17.7327367">
        <ele>23.6896</ele>
        <time>2012-04-29T09:12:06Z</time>
      </trkpt>
      <trkpt lat="60.0232715" lon="17.7319746">
        <ele>23.209</ele>
        <time>2012-04-29T09:12:12Z</time>
      </trkpt>
      <trkpt lat="60.0230543" lon="17.7314156">
        <ele>21.2864</ele>
        <time>2012-04-29T09:12:17Z</time>
      </trkpt>
      <trkpt lat="60.0227058" lon="17.7306889">
        <ele>15.5184</ele>
        <time>2012-04-29T09:12:23Z</time>
      </trkpt>
      <trkpt lat="60.0226457" lon="17.7305475">
        <ele>15.0377</ele>
        <time>2012-04-29T09:12:24Z</time>
      </trkpt>
      <trkpt lat="60.0224546" lon="17.7298271">
        <ele>12.6344</ele>
        <time>2012-04-29T09:12:28Z</time>
      </trkpt>
      <trkpt lat="60.022396" lon="17.728732">
        <ele>14.557</ele>
        <time>2012-04-29T09:12:33Z</time>
      </trkpt>
      <trkpt lat="60.0224328" lon="17.7280849">
        <ele>16.9604</ele>
        <time>2012-04-29T09:12:37Z</time>
      </trkpt>
      <trkpt lat="60.0224596" lon="17.7274708">
        <ele>18.8831</ele>
        <time>2012-04-29T09:12:42Z</time>
      </trkpt>
      <trkpt lat="60.0224449" lon="17.7265812">
        <ele>18.8831</ele>
        <time>2012-04-29T09:12:49Z</time>
      </trkpt>
      <trkpt lat="60.022407" lon="17.7255514">
        <ele>17.4412</ele>
        <time>2012-04-29T09:12:56Z</time>
      </trkpt>
      <trkpt lat="60.0223154" lon="17.7245377">
        <ele>17.4412</ele>
        <time>2012-04-29T09:13:03Z</time>
      </trkpt>
      <trkpt lat="60.0222166" lon="17.7234799">
        <ele>17.9218</ele>
        <time>2012-04-29T09:13:11Z</time>
      </trkpt>
      <trkpt lat="60.0221255" lon="17.722618">
        <ele>18.4023</ele>
        <time>2012-04-29T09:13:19Z</time>
      </trkpt>
      <trkpt lat="60.0220521" lon="17.7221357">
        <ele>18.4023</ele>
        <time>2012-04-29T09:13:24Z</time>
      </trkpt>
      <trkpt lat="60.0218398" lon="17.7216405">
        <ele>17.9218</ele>
        <time>2012-04-29T09:13:30Z</time>
      </trkpt>
      <trkpt lat="60.0217325" lon="17.7215435">
        <ele>18.4023</ele>
        <time>2012-04-29T09:13:32Z</time>
      </trkpt>
      <trkpt lat="60.0212994" lon="17.7213893">
        <ele>20.8057</ele>
        <time>2012-04-29T09:13:39Z</time>
      </trkpt>
      <trkpt lat="60.0207322" lon="17.7212504">
        <ele>22.7283</ele>
        <time>2012-04-29T09:13:48Z</time>
      </trkpt>
      <trkpt lat="60.0202276" lon="17.7211279">
        <ele>24.651</ele>
        <time>2012-04-29T09:13:56Z</time>
      </trkpt>
      <trkpt lat="60.019653" lon="17.7210093">
        <ele>25.6123</ele>
        <time>2012-04-29T09:14:04Z</time>
      </trkpt>
      <trkpt lat="60.0189332" lon="17.7208225">
        <ele>25.6123</ele>
        <time>2012-04-29T09:14:14Z</time>
      </trkpt>
      <trkpt lat="60.0183499" lon="17.7206714">
        <ele>26.0929</ele>
        <time>2012-04-29T09:14:22Z</time>
      </trkpt>
      <trkpt lat="60.0179109" lon="17.7205443">
        <ele>27.0543</ele>
        <time>2012-04-29T09:14:28Z</time>
      </trkpt>
      <trkpt lat="60.0173004" lon="17.7204659">
        <ele>28.9769</ele>
        <time>2012-04-29T09:14:37Z</time>
      </trkpt>
      <trkpt lat="60.0170581" lon="17.7204911">
        <ele>29.4575</ele>
        <time>2012-04-29T09:14:41Z</time>
      </trkpt>
      <trkpt lat="60.0168671" lon="17.7202769">
        <ele>28.9769</ele>
        <time>2012-04-29T09:14:45Z</time>
      </trkpt>
      <trkpt lat="60.0168703" lon="17.7200176">
        <ele>28.4962</ele>
        <time>2012-04-29T09:14:47Z</time>
      </trkpt>
      <trkpt lat="60.0169397" lon="17.7189177">
        <ele>25.6123</ele>
        <time>2012-04-29T09:14:54Z</time>
      </trkpt>
      <trkpt lat="60.0170268" lon="17.7174957">
        <ele>20.8057</ele>
        <time>2012-04-29T09:15:02Z</time>
      </trkpt>
      <trkpt lat="60.0172029" lon="17.7164589">
        <ele>17.4412</ele>
        <time>2012-04-29T09:15:08Z</time>
      </trkpt>
      <trkpt lat="60.0174478" lon="17.7154467">
        <ele>17.9218</ele>
        <time>2012-04-29T09:15:15Z</time>
      </trkpt>
      <trkpt lat="60.017635" lon="17.7145477">
        <ele>19.8444</ele>
        <time>2012-04-29T09:15:22Z</time>
      </trkpt>
      <trkpt lat="60.0177328" lon="17.7137154">
        <ele>21.767</ele>
        <time>2012-04-29T09:15:29Z</time>
      </trkpt>
      <trkpt lat="60.0178148" lon="17.7125311">
        <ele>24.1703</ele>
        <time>2012-04-29T09:15:39Z</time>
      </trkpt>
      <trkpt lat="60.0178904" lon="17.7113351">
        <ele>24.1703</ele>
        <time>2012-04-29T09:15:49Z</time>
      </trkpt>
      <trkpt lat="60.0179853" lon="17.710036">
        <ele>19.8444</ele>
        <time>2012-04-29T09:16:00Z</time>
      </trkpt>
      <trkpt lat="60.0180553" lon="17.7089646">
        <ele>20.325</ele>
        <time>2012-04-29T09:16:09Z</time>
      </trkpt>
      <trkpt lat="60.0181257" lon="17.707696">
        <ele>23.209</ele>
        <time>2012-04-29T09:16:20Z</time>
      </trkpt>
      <trkpt lat="60.0182329" lon="17.7066322">
        <ele>20.8057</ele>
        <time>2012-04-29T09:16:29Z</time>
      </trkpt>
      <trkpt lat="60.0184095" lon="17.7056863">
        <ele>19.3638</ele>
        <time>2012-04-29T09:16:37Z</time>
      </trkpt>
      <trkpt lat="60.018654" lon="17.7048261">
        <ele>17.9218</ele>
        <time>2012-04-29T09:16:44Z</time>
      </trkpt>
      <trkpt lat="60.0190047" lon="17.7039499">
        <ele>17.9218</ele>
        <time>2012-04-29T09:16:52Z</time>
      </trkpt>
      <trkpt lat="60.0193351" lon="17.7033625">
        <ele>18.4023</ele>
        <time>2012-04-29T09:16:59Z</time>
      </trkpt>
      <trkpt lat="60.0196812" lon="17.7027917">
        <ele>20.8057</ele>
        <time>2012-04-29T09:17:07Z</time>
      </trkpt>
      <trkpt lat="60.0199795" lon="17.7022351">
        <ele>22.7283</ele>
        <time>2012-04-29T09:17:15Z</time>
      </trkpt>
      <trkpt lat="60.0201975" lon="17.7017349">
        <ele>24.651</ele>
        <time>2012-04-29T09:17:22Z</time>
      </trkpt>
      <trkpt lat="60.0203925" lon="17.7011894">
        <ele>25.1317</ele>
        <time>2012-04-29T09:17:29Z</time>
      </trkpt>
      <trkpt lat="60.0205867" lon="17.7004848">
        <ele>27.0543</ele>
        <time>2012-04-29T09:17:37Z</time>
      </trkpt>
      <trkpt lat="60.0207948" lon="17.6996872">
        <ele>28.9769</ele>
        <time>2012-04-29T09:17:46Z</time>
      </trkpt>
      <trkpt lat="60.0210062" lon="17.698877">
        <ele>30.8995</ele>
        <time>2012-04-29T09:17:55Z</time>
      </trkpt>
      <trkpt lat="60.0213357" lon="17.6976037">
        <ele>31.3801</ele>
        <time>2012-04-29T09:18:08Z</time>
      </trkpt>
      <trkpt lat="60.0215068" lon="17.696937">
        <ele>29.9381</ele>
        <time>2012-04-29T09:18:14Z</time>
      </trkpt>
      <trkpt lat="60.0217833" lon="17.6958915">
        <ele>30.8995</ele>
        <time>2012-04-29T09:18:23Z</time>
      </trkpt>
      <trkpt lat="60.022051" lon="17.6948044">
        <ele>31.8607</ele>
        <time>2012-04-29T09:18:33Z</time>
      </trkpt>
      <trkpt lat="60.0222223" lon="17.6938501">
        <ele>33.3029</ele>
        <time>2012-04-29T09:18:42Z</time>
      </trkpt>
      <trkpt lat="60.0223539" lon="17.6926299">
        <ele>33.3029</ele>
        <time>2012-04-29T09:18:53Z</time>
      </trkpt>
      <trkpt lat="60.0224171" lon="17.691491">
        <ele>33.3029</ele>
        <time>2012-04-29T09:19:03Z</time>
      </trkpt>
      <trkpt lat="60.0224824" lon="17.690062">
        <ele>33.3029</ele>
        <time>2012-04-29T09:19:15Z</time>
      </trkpt>
      <trkpt lat="60.0225536" lon="17.6885956">
        <ele>29.4575</ele>
        <time>2012-04-29T09:19:27Z</time>
      </trkpt>
      <trkpt lat="60.0226141" lon="17.6873466">
        <ele>29.9381</ele>
        <time>2012-04-29T09:19:37Z</time>
      </trkpt>
      <trkpt lat="60.0226764" lon="17.6860716">
        <ele>27.5349</ele>
        <time>2012-04-29T09:19:47Z</time>
      </trkpt>
      <trkpt lat="60.0227341" lon="17.6844623">
        <ele>27.5349</ele>
        <time>2012-04-29T09:19:59Z</time>
      </trkpt>
      <trkpt lat="60.0227241" lon="17.6830373">
        <ele>27.5349</ele>
        <time>2012-04-29T09:20:09Z</time>
      </trkpt>
      <trkpt lat="60.0226647" lon="17.6817646">
        <ele>27.0543</ele>
        <time>2012-04-29T09:20:18Z</time>
      </trkpt>
      <trkpt lat="60.0225302" lon="17.6803317">
        <ele>27.0543</ele>
        <time>2012-04-29T09:20:28Z</time>
      </trkpt>
      <trkpt lat="60.0223795" lon="17.6792157">
        <ele>26.5736</ele>
        <time>2012-04-29T09:20:36Z</time>
      </trkpt>
      <trkpt lat="60.0221501" lon="17.6777795">
        <ele>23.209</ele>
        <time>2012-04-29T09:20:46Z</time>
      </trkpt>
      <trkpt lat="60.0219432" lon="17.6763745">
        <ele>20.325</ele>
        <time>2012-04-29T09:20:56Z</time>
      </trkpt>
      <trkpt lat="60.0218449" lon="17.6751531">
        <ele>18.8831</ele>
        <time>2012-04-29T09:21:05Z</time>
      </trkpt>
      <trkpt lat="60.0218304" lon="17.6739398">
        <ele>17.9218</ele>
        <time>2012-04-29T09:21:14Z</time>
      </trkpt>
      <trkpt lat="60.021822" lon="17.6726075">
        <ele>18.4023</ele>
        <time>2012-04-29T09:21:24Z</time>
      </trkpt>
      <trkpt lat="60.0217688" lon="17.6716675">
        <ele>19.3638</ele>
        <time>2012-04-29T09:21:31Z</time>
      </trkpt>
      <trkpt lat="60.0216558" lon="17.6707315">
        <ele>19.8444</ele>
        <time>2012-04-29T09:21:38Z</time>
      </trkpt>
      <trkpt lat="60.0214527" lon="17.6695395">
        <ele>19.8444</ele>
        <time>2012-04-29T09:21:47Z</time>
      </trkpt>
      <trkpt lat="60.0211853" lon="17.6684787">
        <ele>20.325</ele>
        <time>2012-04-29T09:21:56Z</time>
      </trkpt>
      <trkpt lat="60.0207917" lon="17.6673617">
        <ele>21.2864</ele>
        <time>2012-04-29T09:22:07Z</time>
      </trkpt>
      <trkpt lat="60.0203775" lon="17.6662432">
        <ele>20.8057</ele>
        <time>2012-04-29T09:22:18Z</time>
      </trkpt>
      <trkpt lat="60.0199933" lon="17.665181">
        <ele>20.8057</ele>
        <time>2012-04-29T09:22:28Z</time>
      </trkpt>
      <trkpt lat="60.0196754" lon="17.6641728">
        <ele>20.8057</ele>
        <time>2012-04-29T09:22:37Z</time>
      </trkpt>
      <trkpt lat="60.0194282" lon="17.6630934">
        <ele>20.8057</ele>
        <time>2012-04-29T09:22:46Z</time>
      </trkpt>
      <trkpt lat="60.0192357" lon="17.6618">
        <ele>20.325</ele>
        <time>2012-04-29T09:22:57Z</time>
      </trkpt>
      <trkpt lat="60.0191402" lon="17.660655">
        <ele>20.325</ele>
        <time>2012-04-29T09:23:07Z</time>
      </trkpt>
      <trkpt lat="60.0190519" lon="17.6595062">
        <ele>20.325</ele>
        <time>2012-04-29T09:23:17Z</time>
      </trkpt>
      <trkpt lat="60.0189239" lon="17.657865">
        <ele>20.8057</ele>
        <time>2012-04-29T09:23:31Z</time>
      </trkpt>
      <trkpt lat="60.0188156" lon="17.6564457">
        <ele>21.2864</ele>
        <time>2012-04-29T09:23:43Z</time>
      </trkpt>
      <trkpt lat="60.0187001" lon="17.6549232">
        <ele>21.767</ele>
        <time>2012-04-29T09:23:56Z</time>
      </trkpt>
      <trkpt lat="60.0185838" lon="17.6534005">
        <ele>22.2476</ele>
        <time>2012-04-29T09:24:09Z</time>
      </trkpt>
      <trkpt lat="60.0184804" lon="17.6520463">
        <ele>23.209</ele>
        <time>2012-04-29T09:24:21Z</time>
      </trkpt>
      <trkpt lat="60.0183908" lon="17.6506328">
        <ele>24.651</ele>
        <time>2012-04-29T09:24:34Z</time>
      </trkpt>
      <trkpt lat="60.0183582" lon="17.6495339">
        <ele>26.0929</ele>
        <time>2012-04-29T09:24:44Z</time>
      </trkpt>
      <trkpt lat="60.018352" lon="17.6484108">
        <ele>27.0543</ele>
        <time>2012-04-29T09:24:54Z</time>
      </trkpt>
      <trkpt lat="60.0183502" lon="17.6471542">
        <ele>28.0155</ele>
        <time>2012-04-29T09:25:05Z</time>
      </trkpt>
      <trkpt lat="60.0183451" lon="17.6459043">
        <ele>28.4962</ele>
        <time>2012-04-29T09:25:16Z</time>
      </trkpt>
      <trkpt lat="60.0183404" lon="17.6446194">
        <ele>28.9769</ele>
        <time>2012-04-29T09:25:27Z</time>
      </trkpt>
      <trkpt lat="60.0183546" lon="17.6434226">
        <ele>31.3801</ele>
        <time>2012-04-29T09:25:38Z</time>
      </trkpt>
      <trkpt lat="60.018343" lon="17.6425358">
        <ele>31.8607</ele>
        <time>2012-04-29T09:25:46Z</time>
      </trkpt>
      <trkpt lat="60.0182723" lon="17.6415307">
        <ele>29.9381</ele>
        <time>2012-04-29T09:25:54Z</time>
      </trkpt>
      <trkpt lat="60.0181981" lon="17.6406756">
        <ele>28.4962</ele>
        <time>2012-04-29T09:26:01Z</time>
      </trkpt>
      <trkpt lat="60.0181017" lon="17.6395895">
        <ele>28.0155</ele>
        <time>2012-04-29T09:26:10Z</time>
      </trkpt>
      <trkpt lat="60.0179634" lon="17.6383026">
        <ele>28.9769</ele>
        <time>2012-04-29T09:26:21Z</time>
      </trkpt>
      <trkpt lat="60.0178081" lon="17.6375151">
        <ele>28.9769</ele>
        <time>2012-04-29T09:26:28Z</time>
      </trkpt>
      <trkpt lat="60.0175526" lon="17.6366102">
        <ele>28.0155</ele>
        <time>2012-04-29T09:26:36Z</time>
      </trkpt>
      <trkpt lat="60.0172786" lon="17.6356628">
        <ele>27.5349</ele>
        <time>2012-04-29T09:26:45Z</time>
      </trkpt>
      <trkpt lat="60.0169695" lon="17.6346163">
        <ele>26.0929</ele>
        <time>2012-04-29T09:26:55Z</time>
      </trkpt>
      <trkpt lat="60.0166129" lon="17.6335596">
        <ele>25.6123</ele>
        <time>2012-04-29T09:27:05Z</time>
      </trkpt>
      <trkpt lat="60.016253" lon="17.6328493">
        <ele>25.1317</ele>
        <time>2012-04-29T09:27:13Z</time>
      </trkpt>
      <trkpt lat="60.0159593" lon="17.6323138">
        <ele>24.651</ele>
        <time>2012-04-29T09:27:19Z</time>
      </trkpt>
      <trkpt lat="60.0156449" lon="17.6316197">
        <ele>24.1703</ele>
        <time>2012-04-29T09:27:26Z</time>
      </trkpt>
      <trkpt lat="60.0152517" lon="17.6307052">
        <ele>23.209</ele>
        <time>2012-04-29T09:27:35Z</time>
      </trkpt>
      <trkpt lat="60.0148999" lon="17.6300526">
        <ele>22.2476</ele>
        <time>2012-04-29T09:27:42Z</time>
      </trkpt>
      <trkpt lat="60.014268" lon="17.6291288">
        <ele>21.767</ele>
        <time>2012-04-29T09:27:53Z</time>
      </trkpt>
      <trkpt lat="60.0136805" lon="17.6283042">
        <ele>22.7283</ele>
        <time>2012-04-29T09:28:03Z</time>
      </trkpt>
      <trkpt lat="60.0131998" lon="17.6275314">
        <ele>23.6896</ele>
        <time>2012-04-29T09:28:12Z</time>
      </trkpt>
      <trkpt lat="60.0126519" lon="17.6265103">
        <ele>24.1703</ele>
        <time>2012-04-29T09:28:23Z</time>
      </trkpt>
      <trkpt lat="60.0122361" lon="17.6255205">
        <ele>24.651</ele>
        <time>2012-04-29T09:28:32Z</time>
      </trkpt>
      <trkpt lat="60.0119274" lon="17.6246959">
        <ele>24.651</ele>
        <time>2012-04-29T09:28:39Z</time>
      </trkpt>
      <trkpt lat="60.0116608" lon="17.6239273">
        <ele>24.651</ele>
        <time>2012-04-29T09:28:45Z</time>
      </trkpt>
      <trkpt lat="60.0112618" lon="17.6232382">
        <ele>24.651</ele>
        <time>2012-04-29T09:28:52Z</time>
      </trkpt>
      <trkpt lat="60.0108212" lon="17.6226841">
        <ele>24.651</ele>
        <time>2012-04-29T09:28:59Z</time>
      </trkpt>
      <trkpt lat="60.0103874" lon="17.6222411">
        <ele>23.209</ele>
        <time>2012-04-29T09:29:06Z</time>
      </trkpt>
      <trkpt lat="60.0098316" lon="17.621664">
        <ele>22.7283</ele>
        <time>2012-04-29T09:29:15Z</time>
      </trkpt>
      <trkpt lat="60.0093843" lon="17.6210625">
        <ele>23.209</ele>
        <time>2012-04-29T09:29:23Z</time>
      </trkpt>
      <trkpt lat="60.008987" lon="17.6203462">
        <ele>24.651</ele>
        <time>2012-04-29T09:29:31Z</time>
      </trkpt>
      <trkpt lat="60.0085914" lon="17.6194215">
        <ele>25.6123</ele>
        <time>2012-04-29T09:29:40Z</time>
      </trkpt>
      <trkpt lat="60.0082171" lon="17.6182793">
        <ele>26.5736</ele>
        <time>2012-04-29T09:29:50Z</time>
      </trkpt>
      <trkpt lat="60.007999" lon="17.6172764">
        <ele>28.4962</ele>
        <time>2012-04-29T09:29:58Z</time>
      </trkpt>
      <trkpt lat="60.0078705" lon="17.616392">
        <ele>29.4575</ele>
        <time>2012-04-29T09:30:05Z</time>
      </trkpt>
      <trkpt lat="60.0077659" lon="17.6152439">
        <ele>29.4575</ele>
        <time>2012-04-29T09:30:14Z</time>
      </trkpt>
      <trkpt lat="60.0077291" lon="17.6140423">
        <ele>29.4575</ele>
        <time>2012-04-29T09:30:23Z</time>
      </trkpt>
      <trkpt lat="60.0077394" lon="17.613096">
        <ele>29.9381</ele>
        <time>2012-04-29T09:30:30Z</time>
      </trkpt>
      <trkpt lat="60.0077935" lon="17.6114065">
        <ele>31.3801</ele>
        <time>2012-04-29T09:30:42Z</time>
      </trkpt>
      <trkpt lat="60.007887" lon="17.6100397">
        <ele>33.3029</ele>
        <time>2012-04-29T09:30:52Z</time>
      </trkpt>
      <trkpt lat="60.0080064" lon="17.6087221">
        <ele>35.7061</ele>
        <time>2012-04-29T09:31:02Z</time>
      </trkpt>
      <trkpt lat="60.0081223" lon="17.607715">
        <ele>37.6287</ele>
        <time>2012-04-29T09:31:10Z</time>
      </trkpt>
      <trkpt lat="60.0082638" lon="17.6065807">
        <ele>39.5513</ele>
        <time>2012-04-29T09:31:19Z</time>
      </trkpt>
      <trkpt lat="60.0084481" lon="17.6052384">
        <ele>41.9547</ele>
        <time>2012-04-29T09:31:30Z</time>
      </trkpt>
      <trkpt lat="60.0086187" lon="17.6040266">
        <ele>42.916</ele>
        <time>2012-04-29T09:31:41Z</time>
      </trkpt>
      <trkpt lat="60.0087565" lon="17.6031347">
        <ele>44.358</ele>
        <time>2012-04-29T09:31:50Z</time>
      </trkpt>
      <trkpt lat="60.008863" lon="17.6024592">
        <ele>45.7999</ele>
        <time>2012-04-29T09:31:57Z</time>
      </trkpt>
      <trkpt lat="60.0089444" lon="17.6018702">
        <ele>47.7225</ele>
        <time>2012-04-29T09:32:03Z</time>
      </trkpt>
      <trkpt lat="60.009093" lon="17.6009886">
        <ele>48.684</ele>
        <time>2012-04-29T09:32:12Z</time>
      </trkpt>
      <trkpt lat="60.0092276" lon="17.6000503">
        <ele>49.1646</ele>
        <time>2012-04-29T09:32:21Z</time>
      </trkpt>
      <trkpt lat="60.0093629" lon="17.5990581">
        <ele>46.2806</ele>
        <time>2012-04-29T09:32:30Z</time>
      </trkpt>
      <trkpt lat="60.009582" lon="17.5978159">
        <ele>48.2034</ele>
        <time>2012-04-29T09:32:41Z</time>
      </trkpt>
      <trkpt lat="60.0097416" lon="17.5967171">
        <ele>43.8773</ele>
        <time>2012-04-29T09:32:50Z</time>
      </trkpt>
      <trkpt lat="60.0099379" lon="17.5956245">
        <ele>41.474</ele>
        <time>2012-04-29T09:32:59Z</time>
      </trkpt>
      <trkpt lat="60.0101612" lon="17.5944574">
        <ele>41.9547</ele>
        <time>2012-04-29T09:33:09Z</time>
      </trkpt>
      <trkpt lat="60.0103979" lon="17.5931604">
        <ele>40.5128</ele>
        <time>2012-04-29T09:33:20Z</time>
      </trkpt>
      <trkpt lat="60.0106797" lon="17.591811">
        <ele>38.5901</ele>
        <time>2012-04-29T09:33:31Z</time>
      </trkpt>
      <trkpt lat="60.010928" lon="17.5909368">
        <ele>39.0707</ele>
        <time>2012-04-29T09:33:38Z</time>
      </trkpt>
      <trkpt lat="60.0112577" lon="17.5900412">
        <ele>39.0707</ele>
        <time>2012-04-29T09:33:46Z</time>
      </trkpt>
      <trkpt lat="60.0116153" lon="17.5892587">
        <ele>38.1094</ele>
        <time>2012-04-29T09:33:54Z</time>
      </trkpt>
      <trkpt lat="60.0120499" lon="17.5885258">
        <ele>37.1481</ele>
        <time>2012-04-29T09:34:03Z</time>
      </trkpt>
      <trkpt lat="60.0123995" lon="17.5880316">
        <ele>37.1481</ele>
        <time>2012-04-29T09:34:10Z</time>
      </trkpt>
      <trkpt lat="60.0127636" lon="17.5876507">
        <ele>34.2642</ele>
        <time>2012-04-29T09:34:17Z</time>
      </trkpt>
      <trkpt lat="60.0132495" lon="17.5872717">
        <ele>29.9381</ele>
        <time>2012-04-29T09:34:26Z</time>
      </trkpt>
      <trkpt lat="60.0137568" lon="17.5869538">
        <ele>28.9769</ele>
        <time>2012-04-29T09:34:35Z</time>
      </trkpt>
      <trkpt lat="60.0143208" lon="17.5867076">
        <ele>31.3801</ele>
        <time>2012-04-29T09:34:45Z</time>
      </trkpt>
      <trkpt lat="60.0146876" lon="17.5865412">
        <ele>28.4962</ele>
        <time>2012-04-29T09:34:52Z</time>
      </trkpt>
      <trkpt lat="60.0152014" lon="17.5863388">
        <ele>35.2255</ele>
        <time>2012-04-29T09:35:01Z</time>
      </trkpt>
      <trkpt lat="60.0155836" lon="17.5861399">
        <ele>29.9381</ele>
        <time>2012-04-29T09:35:09Z</time>
      </trkpt>
      <trkpt lat="60.0161137" lon="17.5858529">
        <ele>28.9769</ele>
        <time>2012-04-29T09:35:19Z</time>
      </trkpt>
      <trkpt lat="60.0166693" lon="17.5854469">
        <ele>32.8223</ele>
        <time>2012-04-29T09:35:29Z</time>
      </trkpt>
      <trkpt lat="60.0172133" lon="17.5848719">
        <ele>36.1868</ele>
        <time>2012-04-29T09:35:39Z</time>
      </trkpt>
      <trkpt lat="60.0177267" lon="17.5840809">
        <ele>35.2255</ele>
        <time>2012-04-29T09:35:49Z</time>
      </trkpt>
      <trkpt lat="60.0181536" lon="17.5831765">
        <ele>33.3029</ele>
        <time>2012-04-29T09:35:58Z</time>
      </trkpt>
      <trkpt lat="60.0182037" lon="17.5830997">
        <ele>33.3029</ele>
        <time>2012-04-29T09:35:59Z</time>
      </trkpt>
      <trkpt lat="60.0185175" lon="17.5822335">
        <ele>33.3029</ele>
        <time>2012-04-29T09:36:07Z</time>
      </trkpt>
      <trkpt lat="60.0187969" lon="17.5812572">
        <ele>34.2642</ele>
        <time>2012-04-29T09:36:15Z</time>
      </trkpt>
      <trkpt lat="60.0189647" lon="17.5804582">
        <ele>34.2642</ele>
        <time>2012-04-29T09:36:21Z</time>
      </trkpt>
      <trkpt lat="60.0190798" lon="17.5797754">
        <ele>35.2255</ele>
        <time>2012-04-29T09:36:26Z</time>
      </trkpt>
      <trkpt lat="60.0192631" lon="17.5794902">
        <ele>33.3029</ele>
        <time>2012-04-29T09:36:30Z</time>
      </trkpt>
      <trkpt lat="60.0194506" lon="17.579365">
        <ele>31.8607</ele>
        <time>2012-04-29T09:36:33Z</time>
      </trkpt>
      <trkpt lat="60.0197257" lon="17.578956">
        <ele>29.9381</ele>
        <time>2012-04-29T09:36:38Z</time>
      </trkpt>
      <trkpt lat="60.0198277" lon="17.5787575">
        <ele>27.5349</ele>
        <time>2012-04-29T09:36:40Z</time>
      </trkpt>
      <trkpt lat="60.0199552" lon="17.578218">
        <ele>24.651</ele>
        <time>2012-04-29T09:36:44Z</time>
      </trkpt>
      <trkpt lat="60.0199956" lon="17.577626">
        <ele>24.651</ele>
        <time>2012-04-29T09:36:47Z</time>
      </trkpt>
      <trkpt lat="60.0200645" lon="17.5764742">
        <ele>24.651</ele>
        <time>2012-04-29T09:36:54Z</time>
      </trkpt>
      <trkpt lat="60.020128" lon="17.5760937">
        <ele>23.6896</ele>
        <time>2012-04-29T09:36:57Z</time>
      </trkpt>
      <trkpt lat="60.0203034" lon="17.5755847">
        <ele>23.6896</ele>
        <time>2012-04-29T09:37:01Z</time>
      </trkpt>
      <trkpt lat="60.0204887" lon="17.5753136">
        <ele>24.651</ele>
        <time>2012-04-29T09:37:04Z</time>
      </trkpt>
      <trkpt lat="60.0208886" lon="17.5750197">
        <ele>25.1317</ele>
        <time>2012-04-29T09:37:11Z</time>
      </trkpt>
      <trkpt lat="60.0211482" lon="17.5749105">
        <ele>24.1703</ele>
        <time>2012-04-29T09:37:15Z</time>
      </trkpt>
      <trkpt lat="60.0214449" lon="17.5748493">
        <ele>26.0929</ele>
        <time>2012-04-29T09:37:20Z</time>
      </trkpt>
      <trkpt lat="60.0215035" lon="17.5748277">
        <ele>25.1317</ele>
        <time>2012-04-29T09:37:21Z</time>
      </trkpt>
      <trkpt lat="60.021716" lon="17.5746893">
        <ele>21.767</ele>
        <time>2012-04-29T09:37:25Z</time>
      </trkpt>
      <trkpt lat="60.0218181" lon="17.5746161">
        <ele>23.209</ele>
        <time>2012-04-29T09:37:27Z</time>
      </trkpt>
      <trkpt lat="60.0219256" lon="17.5745602">
        <ele>23.209</ele>
        <time>2012-04-29T09:37:29Z</time>
      </trkpt>
      <trkpt lat="60.022182" lon="17.5743921">
        <ele>24.651</ele>
        <time>2012-04-29T09:37:34Z</time>
      </trkpt>
      <trkpt lat="60.0225095" lon="17.5742992">
        <ele>25.6123</ele>
        <time>2012-04-29T09:37:39Z</time>
      </trkpt>
      <trkpt lat="60.0226354" lon="17.5742736">
        <ele>24.651</ele>
        <time>2012-04-29T09:37:41Z</time>
      </trkpt>
      <trkpt lat="60.0228707" lon="17.574264">
        <ele>23.209</ele>
        <time>2012-04-29T09:37:45Z</time>
      </trkpt>
      <trkpt lat="60.023116" lon="17.5743096">
        <ele>27.5349</ele>
        <time>2012-04-29T09:37:49Z</time>
      </trkpt>
      <trkpt lat="60.0235663" lon="17.5744164">
        <ele>24.1703</ele>
        <time>2012-04-29T09:37:57Z</time>
      </trkpt>
      <trkpt lat="60.0238398" lon="17.574471">
        <ele>26.5736</ele>
        <time>2012-04-29T09:38:02Z</time>
      </trkpt>
      <trkpt lat="60.0240706" lon="17.5744663">
        <ele>30.4188</ele>
        <time>2012-04-29T09:38:06Z</time>
      </trkpt>
      <trkpt lat="60.0244136" lon="17.5742687">
        <ele>29.9381</ele>
        <time>2012-04-29T09:38:12Z</time>
      </trkpt>
      <trkpt lat="60.0248493" lon="17.5738279">
        <ele>24.651</ele>
        <time>2012-04-29T09:38:19Z</time>
      </trkpt>
      <trkpt lat="60.0251204" lon="17.573576">
        <ele>17.9218</ele>
        <time>2012-04-29T09:38:24Z</time>
      </trkpt>
      <trkpt lat="60.0252596" lon="17.5734146">
        <ele>13.1151</ele>
        <time>2012-04-29T09:38:27Z</time>
      </trkpt>
      <trkpt lat="60.0254528" lon="17.572911">
        <ele>15.999</ele>
        <time>2012-04-29T09:38:31Z</time>
      </trkpt>
      <trkpt lat="60.0254896" lon="17.5723835">
        <ele>20.325</ele>
        <time>2012-04-29T09:38:34Z</time>
      </trkpt>
      <trkpt lat="60.0254874" lon="17.5722291">
        <ele>21.2864</ele>
        <time>2012-04-29T09:38:35Z</time>
      </trkpt>
      <trkpt lat="60.0255829" lon="17.5716253">
        <ele>28.4962</ele>
        <time>2012-04-29T09:38:39Z</time>
      </trkpt>
      <trkpt lat="60.0256673" lon="17.5711436">
        <ele>33.7834</ele>
        <time>2012-04-29T09:38:45Z</time>
      </trkpt>
      <trkpt lat="60.025707" lon="17.5707823">
        <ele>34.2642</ele>
        <time>2012-04-29T09:38:49Z</time>
      </trkpt>
      <trkpt lat="60.0256773" lon="17.570382">
        <ele>36.1868</ele>
        <time>2012-04-29T09:38:53Z</time>
      </trkpt>
      <trkpt lat="60.0255879" lon="17.5700153">
        <ele>37.1481</ele>
        <time>2012-04-29T09:38:57Z</time>
      </trkpt>
      <trkpt lat="60.025491" lon="17.5697759">
        <ele>37.6287</ele>
        <time>2012-04-29T09:39:00Z</time>
      </trkpt>
      <trkpt lat="60.0253356" lon="17.5694953">
        <ele>38.5901</ele>
        <time>2012-04-29T09:39:04Z</time>
      </trkpt>
      <trkpt lat="60.0252315" lon="17.5692695">
        <ele>38.5901</ele>
        <time>2012-04-29T09:39:07Z</time>
      </trkpt>
      <trkpt lat="60.0251229" lon="17.5689402">
        <ele>38.5901</ele>
        <time>2012-04-29T09:39:11Z</time>
      </trkpt>
      <trkpt lat="60.0249546" lon="17.5682929">
        <ele>43.8773</ele>
        <time>2012-04-29T09:39:18Z</time>
      </trkpt>
      <trkpt lat="60.0248976" lon="17.5680215">
        <ele>45.3192</ele>
        <time>2012-04-29T09:39:21Z</time>
      </trkpt>
      <trkpt lat="60.0248576" lon="17.567842">
        <ele>45.7999</ele>
        <time>2012-04-29T09:39:23Z</time>
      </trkpt>
      <trkpt lat="60.0248063" lon="17.567576">
        <ele>45.3192</ele>
        <time>2012-04-29T09:39:26Z</time>
      </trkpt>
      <trkpt lat="60.0247219" lon="17.5671948">
        <ele>42.916</ele>
        <time>2012-04-29T09:39:30Z</time>
      </trkpt>
      <trkpt lat="60.0246545" lon="17.5668839">
        <ele>41.9547</ele>
        <time>2012-04-29T09:39:33Z</time>
      </trkpt>
      <trkpt lat="60.0246019" lon="17.5666674">
        <ele>42.916</ele>
        <time>2012-04-29T09:39:35Z</time>
      </trkpt>
      <trkpt lat="60.0244521" lon="17.5662965">
        <ele>41.9547</ele>
        <time>2012-04-29T09:39:39Z</time>
      </trkpt>
      <trkpt lat="60.024232" lon="17.5658952">
        <ele>35.2255</ele>
        <time>2012-04-29T09:39:44Z</time>
      </trkpt>
      <trkpt lat="60.0241708" lon="17.565756">
        <ele>36.6675</ele>
        <time>2012-04-29T09:39:46Z</time>
      </trkpt>
      <trkpt lat="60.0239304" lon="17.5653103">
        <ele>38.1094</ele>
        <time>2012-04-29T09:39:52Z</time>
      </trkpt>
      <trkpt lat="60.0238822" lon="17.565204">
        <ele>35.2255</ele>
        <time>2012-04-29T09:39:53Z</time>
      </trkpt>
      <trkpt lat="60.0237688" lon="17.5646668">
        <ele>34.7449</ele>
        <time>2012-04-29T09:39:57Z</time>
      </trkpt>
      <trkpt lat="60.0236995" lon="17.5636706">
        <ele>35.7061</ele>
        <time>2012-04-29T09:40:03Z</time>
      </trkpt>
      <trkpt lat="60.0237077" lon="17.5630484">
        <ele>34.2642</ele>
        <time>2012-04-29T09:40:08Z</time>
      </trkpt>
      <trkpt lat="60.0237186" lon="17.5629248">
        <ele>34.2642</ele>
        <time>2012-04-29T09:40:09Z</time>
      </trkpt>
      <trkpt lat="60.0237826" lon="17.5622037">
        <ele>35.7061</ele>
        <time>2012-04-29T09:40:15Z</time>
      </trkpt>
      <trkpt lat="60.0238582" lon="17.5614966">
        <ele>37.1481</ele>
        <time>2012-04-29T09:40:21Z</time>
      </trkpt>
      <trkpt lat="60.0238844" lon="17.5610703">
        <ele>37.6287</ele>
        <time>2012-04-29T09:40:24Z</time>
      </trkpt>
      <trkpt lat="60.0240347" lon="17.5602356">
        <ele>36.6675</ele>
        <time>2012-04-29T09:40:31Z</time>
      </trkpt>
      <trkpt lat="60.0242832" lon="17.559529">
        <ele>34.2642</ele>
        <time>2012-04-29T09:40:38Z</time>
      </trkpt>
      <trkpt lat="60.0246049" lon="17.5587647">
        <ele>33.7834</ele>
        <time>2012-04-29T09:40:46Z</time>
      </trkpt>
      <trkpt lat="60.0249974" lon="17.558075">
        <ele>34.2642</ele>
        <time>2012-04-29T09:40:54Z</time>
      </trkpt>
      <trkpt lat="60.0254876" lon="17.5574001">
        <ele>33.3029</ele>
        <time>2012-04-29T09:41:03Z</time>
      </trkpt>
      <trkpt lat="60.025816" lon="17.5569945">
        <ele>31.8607</ele>
        <time>2012-04-29T09:41:09Z</time>
      </trkpt>
      <trkpt lat="60.0259149" lon="17.556834">
        <ele>31.8607</ele>
        <time>2012-04-29T09:41:11Z</time>
      </trkpt>
      <trkpt lat="60.0262174" lon="17.5560343">
        <ele>34.2642</ele>
        <time>2012-04-29T09:41:19Z</time>
      </trkpt>
      <trkpt lat="60.0262949" lon="17.5554053">
        <ele>36.1868</ele>
        <time>2012-04-29T09:41:24Z</time>
      </trkpt>
      <trkpt lat="60.0263189" lon="17.5544133">
        <ele>37.1481</ele>
        <time>2012-04-29T09:41:32Z</time>
      </trkpt>
      <trkpt lat="60.0263144" lon="17.5542901">
        <ele>36.6675</ele>
        <time>2012-04-29T09:41:33Z</time>
      </trkpt>
      <trkpt lat="60.0262791" lon="17.5537216">
        <ele>34.2642</ele>
        <time>2012-04-29T09:41:38Z</time>
      </trkpt>
      <trkpt lat="60.0262941" lon="17.5531365">
        <ele>32.3416</ele>
        <time>2012-04-29T09:41:44Z</time>
      </trkpt>
      <trkpt lat="60.0262913" lon="17.5530821">
        <ele>31.8607</ele>
        <time>2012-04-29T09:41:45Z</time>
      </trkpt>
      <trkpt lat="60.0262398" lon="17.5525862">
        <ele>31.3801</ele>
        <time>2012-04-29T09:41:51Z</time>
      </trkpt>
      <trkpt lat="60.0262294" lon="17.5522309">
        <ele>29.9381</ele>
        <time>2012-04-29T09:41:54Z</time>
      </trkpt>
      <trkpt lat="60.026146" lon="17.5516908">
        <ele>22.7283</ele>
        <time>2012-04-29T09:41:59Z</time>
      </trkpt>
      <trkpt lat="60.0260885" lon="17.5516094">
        <ele>21.2864</ele>
        <time>2012-04-29T09:42:00Z</time>
      </trkpt>
      <trkpt lat="60.0257652" lon="17.5511586">
        <ele>15.999</ele>
        <time>2012-04-29T09:42:05Z</time>
      </trkpt>
      <trkpt lat="60.0256476" lon="17.5509257">
        <ele>14.0764</ele>
        <time>2012-04-29T09:42:07Z</time>
      </trkpt>
      <trkpt lat="60.0254014" lon="17.5500911">
        <ele>13.1151</ele>
        <time>2012-04-29T09:42:13Z</time>
      </trkpt>
      <trkpt lat="60.0251659" lon="17.5490261">
        <ele>13.1151</ele>
        <time>2012-04-29T09:42:20Z</time>
      </trkpt>
      <trkpt lat="60.02483" lon="17.5475962">
        <ele>14.0764</ele>
        <time>2012-04-29T09:42:29Z</time>
      </trkpt>
      <trkpt lat="60.0245447" lon="17.5465603">
        <ele>14.0764</ele>
        <time>2012-04-29T09:42:36Z</time>
      </trkpt>
      <trkpt lat="60.0242226" lon="17.5454839">
        <ele>15.999</ele>
        <time>2012-04-29T09:42:44Z</time>
      </trkpt>
      <trkpt lat="60.0239227" lon="17.5444501">
        <ele>19.3638</ele>
        <time>2012-04-29T09:42:52Z</time>
      </trkpt>
      <trkpt lat="60.0236567" lon="17.5435064">
        <ele>21.2864</ele>
        <time>2012-04-29T09:42:59Z</time>
      </trkpt>
      <trkpt lat="60.023569" lon="17.5432508">
        <ele>24.651</ele>
        <time>2012-04-29T09:43:01Z</time>
      </trkpt>
      <trkpt lat="60.0235296" lon="17.5426178">
        <ele>24.1703</ele>
        <time>2012-04-29T09:43:05Z</time>
      </trkpt>
      <trkpt lat="60.023603" lon="17.541923">
        <ele>23.209</ele>
        <time>2012-04-29T09:43:09Z</time>
      </trkpt>
      <trkpt lat="60.0235745" lon="17.5410796">
        <ele>24.651</ele>
        <time>2012-04-29T09:43:14Z</time>
      </trkpt>
      <trkpt lat="60.0235616" lon="17.5409171">
        <ele>24.651</ele>
        <time>2012-04-29T09:43:15Z</time>
      </trkpt>
      <trkpt lat="60.023619" lon="17.5401293">
        <ele>21.767</ele>
        <time>2012-04-29T09:43:20Z</time>
      </trkpt>
      <trkpt lat="60.0237066" lon="17.539865">
        <ele>22.2476</ele>
        <time>2012-04-29T09:43:22Z</time>
      </trkpt>
      <trkpt lat="60.0239217" lon="17.539345">
        <ele>27.0543</ele>
        <time>2012-04-29T09:43:28Z</time>
      </trkpt>
      <trkpt lat="60.0239391" lon="17.5389969">
        <ele>29.4575</ele>
        <time>2012-04-29T09:43:32Z</time>
      </trkpt>
      <trkpt lat="60.0239133" lon="17.5388107">
        <ele>30.8995</ele>
        <time>2012-04-29T09:43:34Z</time>
      </trkpt>
      <trkpt lat="60.0238808" lon="17.5386135">
        <ele>33.7834</ele>
        <time>2012-04-29T09:43:36Z</time>
      </trkpt>
      <trkpt lat="60.0238326" lon="17.5383752">
        <ele>34.2642</ele>
        <time>2012-04-29T09:43:38Z</time>
      </trkpt>
      <trkpt lat="60.0237127" lon="17.5373059">
        <ele>34.7449</ele>
        <time>2012-04-29T09:43:47Z</time>
      </trkpt>
      <trkpt lat="60.0236937" lon="17.5370946">
        <ele>35.2255</ele>
        <time>2012-04-29T09:43:49Z</time>
      </trkpt>
      <trkpt lat="60.0235573" lon="17.5368907">
        <ele>38.1094</ele>
        <time>2012-04-29T09:43:53Z</time>
      </trkpt>
      <trkpt lat="60.0235032" lon="17.5368803">
        <ele>37.6287</ele>
        <time>2012-04-29T09:43:54Z</time>
      </trkpt>
      <trkpt lat="60.0230539" lon="17.5368486">
        <ele>38.1094</ele>
        <time>2012-04-29T09:44:01Z</time>
      </trkpt>
      <trkpt lat="60.0225588" lon="17.5366203">
        <ele>36.1868</ele>
        <time>2012-04-29T09:44:08Z</time>
      </trkpt>
      <trkpt lat="60.0220257" lon="17.5361567">
        <ele>36.1868</ele>
        <time>2012-04-29T09:44:16Z</time>
      </trkpt>
      <trkpt lat="60.0216304" lon="17.5357511">
        <ele>44.8386</ele>
        <time>2012-04-29T09:44:23Z</time>
      </trkpt>
      <trkpt lat="60.0211469" lon="17.5352489">
        <ele>49.1646</ele>
        <time>2012-04-29T09:44:31Z</time>
      </trkpt>
      <trkpt lat="60.0206872" lon="17.5348268">
        <ele>49.6453</ele>
        <time>2012-04-29T09:44:38Z</time>
      </trkpt>
      <trkpt lat="60.0202001" lon="17.5345321">
        <ele>47.2418</ele>
        <time>2012-04-29T09:44:45Z</time>
      </trkpt>
      <trkpt lat="60.0197268" lon="17.5344419">
        <ele>50.126</ele>
        <time>2012-04-29T09:44:52Z</time>
      </trkpt>
      <trkpt lat="60.0191549" lon="17.5344985">
        <ele>52.0486</ele>
        <time>2012-04-29T09:45:00Z</time>
      </trkpt>
      <trkpt lat="60.0185493" lon="17.5345752">
        <ele>52.0486</ele>
        <time>2012-04-29T09:45:08Z</time>
      </trkpt>
      <trkpt lat="60.0176006" lon="17.5346372">
        <ele>51.0872</ele>
        <time>2012-04-29T09:45:20Z</time>
      </trkpt>
      <trkpt lat="60.016977" lon="17.5345672">
        <ele>49.6453</ele>
        <time>2012-04-29T09:45:28Z</time>
      </trkpt>
      <trkpt lat="60.0164074" lon="17.5343819">
        <ele>45.3192</ele>
        <time>2012-04-29T09:45:35Z</time>
      </trkpt>
      <trkpt lat="60.0155003" lon="17.5340479">
        <ele>42.916</ele>
        <time>2012-04-29T09:45:46Z</time>
      </trkpt>
      <trkpt lat="60.0145886" lon="17.533725">
        <ele>46.2806</ele>
        <time>2012-04-29T09:45:57Z</time>
      </trkpt>
      <trkpt lat="60.0139298" lon="17.5334705">
        <ele>46.2806</ele>
        <time>2012-04-29T09:46:05Z</time>
      </trkpt>
      <trkpt lat="60.0130406" lon="17.5330831">
        <ele>45.7999</ele>
        <time>2012-04-29T09:46:16Z</time>
      </trkpt>
      <trkpt lat="60.0124221" lon="17.5326508">
        <ele>44.358</ele>
        <time>2012-04-29T09:46:24Z</time>
      </trkpt>
      <trkpt lat="60.0116363" lon="17.5320563">
        <ele>43.3966</ele>
        <time>2012-04-29T09:46:35Z</time>
      </trkpt>
      <trkpt lat="60.0110986" lon="17.5316441">
        <ele>45.3192</ele>
        <time>2012-04-29T09:46:43Z</time>
      </trkpt>
      <trkpt lat="60.0103065" lon="17.5310722">
        <ele>41.474</ele>
        <time>2012-04-29T09:46:54Z</time>
      </trkpt>
      <trkpt lat="60.0095696" lon="17.5306296">
        <ele>44.358</ele>
        <time>2012-04-29T09:47:04Z</time>
      </trkpt>
      <trkpt lat="60.0088473" lon="17.5301824">
        <ele>46.7612</ele>
        <time>2012-04-29T09:47:14Z</time>
      </trkpt>
      <trkpt lat="60.0081782" lon="17.5297628">
        <ele>47.7225</ele>
        <time>2012-04-29T09:47:23Z</time>
      </trkpt>
      <trkpt lat="60.0076606" lon="17.529429">
        <ele>48.684</ele>
        <time>2012-04-29T09:47:30Z</time>
      </trkpt>
      <trkpt lat="60.0071578" lon="17.5289806">
        <ele>47.7225</ele>
        <time>2012-04-29T09:47:37Z</time>
      </trkpt>
      <trkpt lat="60.0067076" lon="17.5282854">
        <ele>48.2034</ele>
        <time>2012-04-29T09:47:44Z</time>
      </trkpt>
      <trkpt lat="60.0063301" lon="17.5274271">
        <ele>47.7225</ele>
        <time>2012-04-29T09:47:51Z</time>
      </trkpt>
      <trkpt lat="60.0060265" lon="17.5263599">
        <ele>48.684</ele>
        <time>2012-04-29T09:47:59Z</time>
      </trkpt>
      <trkpt lat="60.0056451" lon="17.5250074">
        <ele>47.2418</ele>
        <time>2012-04-29T09:48:09Z</time>
      </trkpt>
      <trkpt lat="60.0053438" lon="17.5239145">
        <ele>45.7999</ele>
        <time>2012-04-29T09:48:17Z</time>
      </trkpt>
      <trkpt lat="60.0050811" lon="17.5230085">
        <ele>43.8773</ele>
        <time>2012-04-29T09:48:24Z</time>
      </trkpt>
      <trkpt lat="60.004705" lon="17.5216969">
        <ele>42.4354</ele>
        <time>2012-04-29T09:48:34Z</time>
      </trkpt>
      <trkpt lat="60.0043319" lon="17.5204221">
        <ele>40.9934</ele>
        <time>2012-04-29T09:48:44Z</time>
      </trkpt>
      <trkpt lat="60.0039492" lon="17.5193486">
        <ele>39.0707</ele>
        <time>2012-04-29T09:48:53Z</time>
      </trkpt>
      <trkpt lat="60.0035494" lon="17.5184707">
        <ele>38.5901</ele>
        <time>2012-04-29T09:49:01Z</time>
      </trkpt>
      <trkpt lat="60.0030069" lon="17.5175134">
        <ele>39.0707</ele>
        <time>2012-04-29T09:49:11Z</time>
      </trkpt>
      <trkpt lat="60.0025403" lon="17.516698">
        <ele>40.5128</ele>
        <time>2012-04-29T09:49:20Z</time>
      </trkpt>
      <trkpt lat="60.0022455" lon="17.5162711">
        <ele>40.9934</ele>
        <time>2012-04-29T09:49:26Z</time>
      </trkpt>
      <trkpt lat="60.0021265" lon="17.5160661">
        <ele>40.9934</ele>
        <time>2012-04-29T09:49:29Z</time>
      </trkpt>
      <trkpt lat="60.0018212" lon="17.5158141">
        <ele>40.5128</ele>
        <time>2012-04-29T09:49:35Z</time>
      </trkpt>
      <trkpt lat="60.0012586" lon="17.5155185">
        <ele>40.0321</ele>
        <time>2012-04-29T09:49:43Z</time>
      </trkpt>
      <trkpt lat="60.0007816" lon="17.5153041">
        <ele>40.5128</ele>
        <time>2012-04-29T09:49:50Z</time>
      </trkpt>
      <trkpt lat="60.000494" lon="17.5151755">
        <ele>40.9934</ele>
        <time>2012-04-29T09:49:54Z</time>
      </trkpt>
      <trkpt lat="60.0001976" lon="17.5153134">
        <ele>40.5128</ele>
        <time>2012-04-29T09:49:58Z</time>
      </trkpt>
      <trkpt lat="59.9999598" lon="17.5154995">
        <ele>40.0321</ele>
        <time>2012-04-29T09:50:01Z</time>
      </trkpt>
      <trkpt lat="59.9996109" lon="17.5155356">
        <ele>39.0707</ele>
        <time>2012-04-29T09:50:05Z</time>
      </trkpt>
      <trkpt lat="59.9994457" lon="17.515416">
        <ele>39.0707</ele>
        <time>2012-04-29T09:50:07Z</time>
      </trkpt>
      <trkpt lat="59.999212" lon="17.5151658">
        <ele>39.0707</ele>
        <time>2012-04-29T09:50:10Z</time>
      </trkpt>
      <trkpt lat="59.9989666" lon="17.5146829">
        <ele>39.0707</ele>
        <time>2012-04-29T09:50:14Z</time>
      </trkpt>
      <trkpt lat="59.9987893" lon="17.5141603">
        <ele>39.5513</ele>
        <time>2012-04-29T09:50:18Z</time>
      </trkpt>
      <trkpt lat="59.9985282" lon="17.5137432">
        <ele>39.5513</ele>
        <time>2012-04-29T09:50:22Z</time>
      </trkpt>
      <trkpt lat="59.9981822" lon="17.5135133">
        <ele>39.0707</ele>
        <time>2012-04-29T09:50:26Z</time>
      </trkpt>
      <trkpt lat="59.9973602" lon="17.5132797">
        <ele>37.6287</ele>
        <time>2012-04-29T09:50:35Z</time>
      </trkpt>
      <trkpt lat="59.9964206" lon="17.5130029">
        <ele>33.3029</ele>
        <time>2012-04-29T09:50:46Z</time>
      </trkpt>
      <trkpt lat="59.9956226" lon="17.512762">
        <ele>31.8607</ele>
        <time>2012-04-29T09:50:56Z</time>
      </trkpt>
      <trkpt lat="59.9953025" lon="17.5123453">
        <ele>31.8607</ele>
        <time>2012-04-29T09:51:01Z</time>
      </trkpt>
      <trkpt lat="59.9951905" lon="17.5119112">
        <ele>31.3801</ele>
        <time>2012-04-29T09:51:04Z</time>
      </trkpt>
      <trkpt lat="59.99516" lon="17.5114095">
        <ele>29.4575</ele>
        <time>2012-04-29T09:51:07Z</time>
      </trkpt>
      <trkpt lat="59.9951974" lon="17.5103821">
        <ele>26.5736</ele>
        <time>2012-04-29T09:51:13Z</time>
      </trkpt>
      <trkpt lat="59.9952902" lon="17.5092124">
        <ele>26.0929</ele>
        <time>2012-04-29T09:51:20Z</time>
      </trkpt>
      <trkpt lat="59.9954612" lon="17.5080191">
        <ele>26.0929</ele>
        <time>2012-04-29T09:51:28Z</time>
      </trkpt>
      <trkpt lat="59.995692" lon="17.5068153">
        <ele>26.0929</ele>
        <time>2012-04-29T09:51:37Z</time>
      </trkpt>
      <trkpt lat="59.9959763" lon="17.505931">
        <ele>27.0543</ele>
        <time>2012-04-29T09:51:45Z</time>
      </trkpt>
      <trkpt lat="59.9962788" lon="17.5049679">
        <ele>28.9769</ele>
        <time>2012-04-29T09:51:54Z</time>
      </trkpt>
      <trkpt lat="59.9963386" lon="17.504749">
        <ele>28.9769</ele>
        <time>2012-04-29T09:51:56Z</time>
      </trkpt>
      <trkpt lat="59.996307" lon="17.5043086">
        <ele>29.4575</ele>
        <time>2012-04-29T09:52:00Z</time>
      </trkpt>
      <trkpt lat="59.9961318" lon="17.5041061">
        <ele>29.4575</ele>
        <time>2012-04-29T09:52:03Z</time>
      </trkpt>
      <trkpt lat="59.9958147" lon="17.5038194">
        <ele>29.9381</ele>
        <time>2012-04-29T09:52:08Z</time>
      </trkpt>
      <trkpt lat="59.9956341" lon="17.503424">
        <ele>29.9381</ele>
        <time>2012-04-29T09:52:12Z</time>
      </trkpt>
      <trkpt lat="59.9956444" lon="17.5031521">
        <ele>29.9381</ele>
        <time>2012-04-29T09:52:14Z</time>
      </trkpt>
      <trkpt lat="59.9956972" lon="17.5027631">
        <ele>29.4575</ele>
        <time>2012-04-29T09:52:17Z</time>
      </trkpt>
      <trkpt lat="59.9956624" lon="17.5021849">
        <ele>28.4962</ele>
        <time>2012-04-29T09:52:21Z</time>
      </trkpt>
      <trkpt lat="59.9955274" lon="17.5017924">
        <ele>27.5349</ele>
        <time>2012-04-29T09:52:24Z</time>
      </trkpt>
      <trkpt lat="59.9953208" lon="17.5016048">
        <ele>27.5349</ele>
        <time>2012-04-29T09:52:27Z</time>
      </trkpt>
      <trkpt lat="59.9948671" lon="17.5012094">
        <ele>28.9769</ele>
        <time>2012-04-29T09:52:35Z</time>
      </trkpt>
      <trkpt lat="59.9945566" lon="17.5007859">
        <ele>28.9769</ele>
        <time>2012-04-29T09:52:41Z</time>
      </trkpt>
      <trkpt lat="59.994485" lon="17.5003202">
        <ele>28.9769</ele>
        <time>2012-04-29T09:52:45Z</time>
      </trkpt>
      <trkpt lat="59.9945225" lon="17.5002306">
        <ele>28.9769</ele>
        <time>2012-04-29T09:52:46Z</time>
      </trkpt>
      <trkpt lat="59.994866" lon="17.499471">
        <ele>29.9381</ele>
        <time>2012-04-29T09:52:54Z</time>
      </trkpt>
      <trkpt lat="59.9951844" lon="17.4986646">
        <ele>30.8995</ele>
        <time>2012-04-29T09:53:02Z</time>
      </trkpt>
      <trkpt lat="59.9953907" lon="17.4978554">
        <ele>31.8607</ele>
        <time>2012-04-29T09:53:09Z</time>
      </trkpt>
      <trkpt lat="59.9956829" lon="17.4965977">
        <ele>32.3416</ele>
        <time>2012-04-29T09:53:20Z</time>
      </trkpt>
      <trkpt lat="59.9959339" lon="17.4957047">
        <ele>32.8223</ele>
        <time>2012-04-29T09:53:28Z</time>
      </trkpt>
      <trkpt lat="59.9961753" lon="17.4950235">
        <ele>33.3029</ele>
        <time>2012-04-29T09:53:35Z</time>
      </trkpt>
      <trkpt lat="59.9965412" lon="17.4939243">
        <ele>34.2642</ele>
        <time>2012-04-29T09:53:46Z</time>
      </trkpt>
      <trkpt lat="59.9968642" lon="17.4928492">
        <ele>34.7449</ele>
        <time>2012-04-29T09:53:56Z</time>
      </trkpt>
      <trkpt lat="59.9972512" lon="17.4917568">
        <ele>35.2255</ele>
        <time>2012-04-29T09:54:07Z</time>
      </trkpt>
      <trkpt lat="59.9975388" lon="17.4909158">
        <ele>35.7061</ele>
        <time>2012-04-29T09:54:16Z</time>
      </trkpt>
      <trkpt lat="59.9978926" lon="17.4896894">
        <ele>36.1868</ele>
        <time>2012-04-29T09:54:28Z</time>
      </trkpt>
      <trkpt lat="59.9982317" lon="17.4885186">
        <ele>36.6675</ele>
        <time>2012-04-29T09:54:40Z</time>
      </trkpt>
      <trkpt lat="59.9983048" lon="17.4882204">
        <ele>37.1481</ele>
        <time>2012-04-29T09:54:43Z</time>
      </trkpt>
      <trkpt lat="59.9984143" lon="17.4873388">
        <ele>37.6287</ele>
        <time>2012-04-29T09:54:51Z</time>
      </trkpt>
      <trkpt lat="59.9984809" lon="17.4863229">
        <ele>36.6675</ele>
        <time>2012-04-29T09:54:59Z</time>
      </trkpt>
      <trkpt lat="59.9985675" lon="17.4850595">
        <ele>34.2642</ele>
        <time>2012-04-29T09:55:08Z</time>
      </trkpt>
      <trkpt lat="59.9986615" lon="17.4836833">
        <ele>32.8223</ele>
        <time>2012-04-29T09:55:18Z</time>
      </trkpt>
      <trkpt lat="59.9987611" lon="17.4824099">
        <ele>33.7834</ele>
        <time>2012-04-29T09:55:28Z</time>
      </trkpt>
      <trkpt lat="59.9988799" lon="17.4808866">
        <ele>33.7834</ele>
        <time>2012-04-29T09:55:40Z</time>
      </trkpt>
      <trkpt lat="59.9989573" lon="17.4795929">
        <ele>34.2642</ele>
        <time>2012-04-29T09:55:50Z</time>
      </trkpt>
      <trkpt lat="59.9990394" lon="17.4781745">
        <ele>33.7834</ele>
        <time>2012-04-29T09:56:01Z</time>
      </trkpt>
      <trkpt lat="59.9990958" lon="17.4771637">
        <ele>33.7834</ele>
        <time>2012-04-29T09:56:09Z</time>
      </trkpt>
      <trkpt lat="59.9991499" lon="17.4763092">
        <ele>33.7834</ele>
        <time>2012-04-29T09:56:16Z</time>
      </trkpt>
      <trkpt lat="59.9991945" lon="17.4758919">
        <ele>33.3029</ele>
        <time>2012-04-29T09:56:19Z</time>
      </trkpt>
      <trkpt lat="59.9992307" lon="17.4754131">
        <ele>32.3416</ele>
        <time>2012-04-29T09:56:23Z</time>
      </trkpt>
      <trkpt lat="59.9992906" lon="17.4748947">
        <ele>32.3416</ele>
        <time>2012-04-29T09:56:27Z</time>
      </trkpt>
      <trkpt lat="59.9993515" lon="17.4746481">
        <ele>34.2642</ele>
        <time>2012-04-29T09:56:29Z</time>
      </trkpt>
      <trkpt lat="59.99952" lon="17.4743978">
        <ele>36.1868</ele>
        <time>2012-04-29T09:56:33Z</time>
      </trkpt>
      <trkpt lat="59.9996021" lon="17.4742967">
        <ele>36.6675</ele>
        <time>2012-04-29T09:56:35Z</time>
      </trkpt>
      <trkpt lat="59.9998865" lon="17.4738866">
        <ele>40.0321</ele>
        <time>2012-04-29T09:56:42Z</time>
      </trkpt>
      <trkpt lat="60.000065" lon="17.4733111">
        <ele>32.3416</ele>
        <time>2012-04-29T09:56:48Z</time>
      </trkpt>
      <trkpt lat="60.000117" lon="17.4730205">
        <ele>26.5736</ele>
        <time>2012-04-29T09:56:50Z</time>
      </trkpt>
      <trkpt lat="60.0002843" lon="17.4722873">
        <ele>17.9218</ele>
        <time>2012-04-29T09:56:56Z</time>
      </trkpt>
      <trkpt lat="60.0004827" lon="17.4713482">
        <ele>16.9604</ele>
        <time>2012-04-29T09:57:04Z</time>
      </trkpt>
      <trkpt lat="60.0006315" lon="17.4704165">
        <ele>22.2476</ele>
        <time>2012-04-29T09:57:12Z</time>
      </trkpt>
      <trkpt lat="60.0008039" lon="17.4693416">
        <ele>28.4962</ele>
        <time>2012-04-29T09:57:21Z</time>
      </trkpt>
      <trkpt lat="60.0009552" lon="17.4683703">
        <ele>36.1868</ele>
        <time>2012-04-29T09:57:29Z</time>
      </trkpt>
      <trkpt lat="60.0010624" lon="17.4671471">
        <ele>36.6675</ele>
        <time>2012-04-29T09:57:38Z</time>
      </trkpt>
      <trkpt lat="60.0011794" lon="17.4658741">
        <ele>37.6287</ele>
        <time>2012-04-29T09:57:48Z</time>
      </trkpt>
      <trkpt lat="60.0013217" lon="17.4649591">
        <ele>38.5901</ele>
        <time>2012-04-29T09:57:56Z</time>
      </trkpt>
      <trkpt lat="60.0013999" lon="17.464622">
        <ele>38.1094</ele>
        <time>2012-04-29T09:57:59Z</time>
      </trkpt>
      <trkpt lat="60.0016472" lon="17.4641984">
        <ele>37.1481</ele>
        <time>2012-04-29T09:58:04Z</time>
      </trkpt>
      <trkpt lat="60.0017871" lon="17.4641263">
        <ele>37.1481</ele>
        <time>2012-04-29T09:58:06Z</time>
      </trkpt>
      <trkpt lat="60.0021456" lon="17.4640428">
        <ele>37.1481</ele>
        <time>2012-04-29T09:58:11Z</time>
      </trkpt>
      <trkpt lat="60.0024802" lon="17.4637751">
        <ele>36.6675</ele>
        <time>2012-04-29T09:58:16Z</time>
      </trkpt>
      <trkpt lat="60.0029882" lon="17.4628622">
        <ele>39.0707</ele>
        <time>2012-04-29T09:58:26Z</time>
      </trkpt>
      <trkpt lat="60.0032492" lon="17.4621464">
        <ele>40.5128</ele>
        <time>2012-04-29T09:58:33Z</time>
      </trkpt>
      <trkpt lat="60.003408" lon="17.4613281">
        <ele>44.358</ele>
        <time>2012-04-29T09:58:40Z</time>
      </trkpt>
      <trkpt lat="60.0034238" lon="17.4606981">
        <ele>44.358</ele>
        <time>2012-04-29T09:58:45Z</time>
      </trkpt>
      <trkpt lat="60.0034339" lon="17.4596295">
        <ele>41.474</ele>
        <time>2012-04-29T09:58:53Z</time>
      </trkpt>
      <trkpt lat="60.0034658" lon="17.45899">
        <ele>40.0321</ele>
        <time>2012-04-29T09:58:58Z</time>
      </trkpt>
      <trkpt lat="60.0035576" lon="17.4583273">
        <ele>42.4354</ele>
        <time>2012-04-29T09:59:04Z</time>
      </trkpt>
      <trkpt lat="60.0036337" lon="17.4576329">
        <ele>43.8773</ele>
        <time>2012-04-29T09:59:10Z</time>
      </trkpt>
      <trkpt lat="60.0036739" lon="17.4573083">
        <ele>44.358</ele>
        <time>2012-04-29T09:59:13Z</time>
      </trkpt>
      <trkpt lat="60.0036944" lon="17.4566672">
        <ele>45.3192</ele>
        <time>2012-04-29T09:59:18Z</time>
      </trkpt>
      <trkpt lat="60.0037207" lon="17.4559675">
        <ele>46.7612</ele>
        <time>2012-04-29T09:59:24Z</time>
      </trkpt>
      <trkpt lat="60.0037767" lon="17.4555221">
        <ele>48.2034</ele>
        <time>2012-04-29T09:59:29Z</time>
      </trkpt>
      <trkpt lat="60.0038985" lon="17.455099">
        <ele>48.684</ele>
        <time>2012-04-29T09:59:35Z</time>
      </trkpt>
      <trkpt lat="60.0040974" lon="17.4545017">
        <ele>48.2034</ele>
        <time>2012-04-29T09:59:42Z</time>
      </trkpt>
      <trkpt lat="60.0041677" lon="17.4543174">
        <ele>47.7225</ele>
        <time>2012-04-29T09:59:44Z</time>
      </trkpt>
      <trkpt lat="60.0044745" lon="17.4536604">
        <ele>46.7612</ele>
        <time>2012-04-29T09:59:52Z</time>
      </trkpt>
      <trkpt lat="60.0047091" lon="17.4530859">
        <ele>44.358</ele>
        <time>2012-04-29T09:59:58Z</time>
      </trkpt>
      <trkpt lat="60.0048888" lon="17.4525824">
        <ele>41.9547</ele>
        <time>2012-04-29T10:00:03Z</time>
      </trkpt>
      <trkpt lat="60.0052317" lon="17.4517711">
        <ele>37.1481</ele>
        <time>2012-04-29T10:00:12Z</time>
      </trkpt>
      <trkpt lat="60.00538" lon="17.4514511">
        <ele>38.1094</ele>
        <time>2012-04-29T10:00:16Z</time>
      </trkpt>
      <trkpt lat="60.0055267" lon="17.4507399">
        <ele>39.0707</ele>
        <time>2012-04-29T10:00:22Z</time>
      </trkpt>
      <trkpt lat="60.0055747" lon="17.4502595">
        <ele>40.9934</ele>
        <time>2012-04-29T10:00:25Z</time>
      </trkpt>
      <trkpt lat="60.0055315" lon="17.4492723">
        <ele>40.9934</ele>
        <time>2012-04-29T10:00:32Z</time>
      </trkpt>
      <trkpt lat="60.0055328" lon="17.4485353">
        <ele>40.0321</ele>
        <time>2012-04-29T10:00:38Z</time>
      </trkpt>
      <trkpt lat="60.0055814" lon="17.4476676">
        <ele>41.474</ele>
        <time>2012-04-29T10:00:46Z</time>
      </trkpt>
      <trkpt lat="60.0056074" lon="17.4472353">
        <ele>41.474</ele>
        <time>2012-04-29T10:00:50Z</time>
      </trkpt>
      <trkpt lat="60.0057027" lon="17.4466098">
        <ele>44.8386</ele>
        <time>2012-04-29T10:00:55Z</time>
      </trkpt>
      <trkpt lat="60.0059332" lon="17.4459049">
        <ele>43.3966</ele>
        <time>2012-04-29T10:01:01Z</time>
      </trkpt>
      <trkpt lat="60.0060838" lon="17.4456613">
        <ele>47.2418</ele>
        <time>2012-04-29T10:01:04Z</time>
      </trkpt>
      <trkpt lat="60.0063506" lon="17.4451076">
        <ele>52.0486</ele>
        <time>2012-04-29T10:01:11Z</time>
      </trkpt>
      <trkpt lat="60.0064356" lon="17.4448685">
        <ele>53.9712</ele>
        <time>2012-04-29T10:01:14Z</time>
      </trkpt>
      <trkpt lat="60.0065372" lon="17.4443227">
        <ele>58.7777</ele>
        <time>2012-04-29T10:01:20Z</time>
      </trkpt>
      <trkpt lat="60.0065797" lon="17.4435562">
        <ele>59.7391</ele>
        <time>2012-04-29T10:01:28Z</time>
      </trkpt>
      <trkpt lat="60.0066139" lon="17.443036">
        <ele>52.5292</ele>
        <time>2012-04-29T10:01:33Z</time>
      </trkpt>
      <trkpt lat="60.0067375" lon="17.4422476">
        <ele>43.8773</ele>
        <time>2012-04-29T10:01:40Z</time>
      </trkpt>
      <trkpt lat="60.0068999" lon="17.4415581">
        <ele>44.358</ele>
        <time>2012-04-29T10:01:46Z</time>
      </trkpt>
      <trkpt lat="60.0070529" lon="17.4408734">
        <ele>41.9547</ele>
        <time>2012-04-29T10:01:52Z</time>
      </trkpt>
      <trkpt lat="60.0071101" lon="17.4406439">
        <ele>41.474</ele>
        <time>2012-04-29T10:01:54Z</time>
      </trkpt>
      <trkpt lat="60.0071863" lon="17.4404763">
        <ele>42.4354</ele>
        <time>2012-04-29T10:01:56Z</time>
      </trkpt>
      <trkpt lat="60.0072922" lon="17.4402867">
        <ele>42.916</ele>
        <time>2012-04-29T10:01:59Z</time>
      </trkpt>
      <trkpt lat="60.0073924" lon="17.4400739">
        <ele>42.4354</ele>
        <time>2012-04-29T10:02:02Z</time>
      </trkpt>
      <trkpt lat="60.0075215" lon="17.4398124">
        <ele>40.0321</ele>
        <time>2012-04-29T10:02:06Z</time>
      </trkpt>
      <trkpt lat="60.0075849" lon="17.4396425">
        <ele>39.0707</ele>
        <time>2012-04-29T10:02:08Z</time>
      </trkpt>
      <trkpt lat="60.0076581" lon="17.439498">
        <ele>38.5901</ele>
        <time>2012-04-29T10:02:10Z</time>
      </trkpt>
      <trkpt lat="60.0078481" lon="17.4391456">
        <ele>40.0321</ele>
        <time>2012-04-29T10:02:15Z</time>
      </trkpt>
      <trkpt lat="60.0079876" lon="17.4387573">
        <ele>32.8223</ele>
        <time>2012-04-29T10:02:19Z</time>
      </trkpt>
      <trkpt lat="60.008315" lon="17.4381319">
        <ele>29.9381</ele>
        <time>2012-04-29T10:02:25Z</time>
      </trkpt>
      <trkpt lat="60.0087854" lon="17.4376383">
        <ele>29.9381</ele>
        <time>2012-04-29T10:02:32Z</time>
      </trkpt>
      <trkpt lat="60.0091547" lon="17.4373322">
        <ele>26.5736</ele>
        <time>2012-04-29T10:02:38Z</time>
      </trkpt>
      <trkpt lat="60.0095935" lon="17.4369966">
        <ele>28.0155</ele>
        <time>2012-04-29T10:02:45Z</time>
      </trkpt>
      <trkpt lat="60.0099333" lon="17.4367146">
        <ele>25.1317</ele>
        <time>2012-04-29T10:02:50Z</time>
      </trkpt>
      <trkpt lat="60.01032" lon="17.4363858">
        <ele>21.2864</ele>
        <time>2012-04-29T10:02:56Z</time>
      </trkpt>
      <trkpt lat="60.0104331" lon="17.436239">
        <ele>19.3638</ele>
        <time>2012-04-29T10:02:58Z</time>
      </trkpt>
      <trkpt lat="60.0106153" lon="17.4358599">
        <ele>15.0377</ele>
        <time>2012-04-29T10:03:02Z</time>
      </trkpt>
      <trkpt lat="60.010928" lon="17.4349284">
        <ele>33.7834</ele>
        <time>2012-04-29T10:03:10Z</time>
      </trkpt>
      <trkpt lat="60.0110398" lon="17.4343245">
        <ele>37.1481</ele>
        <time>2012-04-29T10:03:15Z</time>
      </trkpt>
      <trkpt lat="60.0111686" lon="17.4334243">
        <ele>38.1094</ele>
        <time>2012-04-29T10:03:22Z</time>
      </trkpt>
      <trkpt lat="60.0113245" lon="17.4324435">
        <ele>38.1094</ele>
        <time>2012-04-29T10:03:30Z</time>
      </trkpt>
      <trkpt lat="60.0114567" lon="17.431694">
        <ele>38.1094</ele>
        <time>2012-04-29T10:03:36Z</time>
      </trkpt>
      <trkpt lat="60.0115277" lon="17.4313161">
        <ele>38.5901</ele>
        <time>2012-04-29T10:03:39Z</time>
      </trkpt>
      <trkpt lat="60.0116463" lon="17.4308227">
        <ele>38.1094</ele>
        <time>2012-04-29T10:03:43Z</time>
      </trkpt>
      <trkpt lat="60.0119187" lon="17.4298898">
        <ele>37.6287</ele>
        <time>2012-04-29T10:03:50Z</time>
      </trkpt>
      <trkpt lat="60.0121871" lon="17.4291399">
        <ele>38.1094</ele>
        <time>2012-04-29T10:03:57Z</time>
      </trkpt>
      <trkpt lat="60.0122856" lon="17.428651">
        <ele>35.2255</ele>
        <time>2012-04-29T10:04:01Z</time>
      </trkpt>
      <trkpt lat="60.0124214" lon="17.4277929">
        <ele>33.3029</ele>
        <time>2012-04-29T10:04:08Z</time>
      </trkpt>
      <trkpt lat="60.0125226" lon="17.4271795">
        <ele>32.8223</ele>
        <time>2012-04-29T10:04:13Z</time>
      </trkpt>
      <trkpt lat="60.0125542" lon="17.4269434">
        <ele>30.4188</ele>
        <time>2012-04-29T10:04:15Z</time>
      </trkpt>
      <trkpt lat="60.0126605" lon="17.4260839">
        <ele>21.767</ele>
        <time>2012-04-29T10:04:22Z</time>
      </trkpt>
      <trkpt lat="60.012672" lon="17.4259624">
        <ele>19.8444</ele>
        <time>2012-04-29T10:04:23Z</time>
      </trkpt>
      <trkpt lat="60.0126987" lon="17.4257077">
        <ele>17.4412</ele>
        <time>2012-04-29T10:04:25Z</time>
      </trkpt>
      <trkpt lat="60.0128256" lon="17.4248679">
        <ele>12.1538</ele>
        <time>2012-04-29T10:04:31Z</time>
      </trkpt>
      <trkpt lat="60.0130248" lon="17.4237029">
        <ele>9.75061</ele>
        <time>2012-04-29T10:04:39Z</time>
      </trkpt>
      <trkpt lat="60.0133172" lon="17.4227937">
        <ele>21.767</ele>
        <time>2012-04-29T10:04:45Z</time>
      </trkpt>
      <trkpt lat="60.0136335" lon="17.4222462">
        <ele>28.0155</ele>
        <time>2012-04-29T10:04:51Z</time>
      </trkpt>
      <trkpt lat="60.0137301" lon="17.4215933">
        <ele>34.2642</ele>
        <time>2012-04-29T10:04:56Z</time>
      </trkpt>
      <trkpt lat="60.0138974" lon="17.4206476">
        <ele>38.1094</ele>
        <time>2012-04-29T10:05:04Z</time>
      </trkpt>
      <trkpt lat="60.0140031" lon="17.4198245">
        <ele>39.0707</ele>
        <time>2012-04-29T10:05:11Z</time>
      </trkpt>
      <trkpt lat="60.0139708" lon="17.4189554">
        <ele>39.5513</ele>
        <time>2012-04-29T10:05:18Z</time>
      </trkpt>
      <trkpt lat="60.0139697" lon="17.4185671">
        <ele>39.0707</ele>
        <time>2012-04-29T10:05:21Z</time>
      </trkpt>
      <trkpt lat="60.0140644" lon="17.4177116">
        <ele>37.6287</ele>
        <time>2012-04-29T10:05:28Z</time>
      </trkpt>
      <trkpt lat="60.0141685" lon="17.417092">
        <ele>41.474</ele>
        <time>2012-04-29T10:05:34Z</time>
      </trkpt>
      <trkpt lat="60.0142363" lon="17.4166635">
        <ele>42.4354</ele>
        <time>2012-04-29T10:05:38Z</time>
      </trkpt>
      <trkpt lat="60.0143014" lon="17.4161773">
        <ele>41.9547</ele>
        <time>2012-04-29T10:05:42Z</time>
      </trkpt>
      <trkpt lat="60.0143896" lon="17.4155679">
        <ele>42.4354</ele>
        <time>2012-04-29T10:05:47Z</time>
      </trkpt>
      <trkpt lat="60.0144798" lon="17.4148469">
        <ele>45.3192</ele>
        <time>2012-04-29T10:05:53Z</time>
      </trkpt>
      <trkpt lat="60.0145881" lon="17.4144372">
        <ele>44.358</ele>
        <time>2012-04-29T10:05:58Z</time>
      </trkpt>
      <trkpt lat="60.0146317" lon="17.4142611">
        <ele>44.358</ele>
        <time>2012-04-29T10:06:00Z</time>
      </trkpt>
      <trkpt lat="60.0148015" lon="17.4136353">
        <ele>48.684</ele>
        <time>2012-04-29T10:06:06Z</time>
      </trkpt>
      <trkpt lat="60.0148793" lon="17.4134438">
        <ele>51.5679</ele>
        <time>2012-04-29T10:06:08Z</time>
      </trkpt>
      <trkpt lat="60.0150382" lon="17.413018">
        <ele>49.1646</ele>
        <time>2012-04-29T10:06:13Z</time>
      </trkpt>
      <trkpt lat="60.0151263" lon="17.4126988">
        <ele>45.7999</ele>
        <time>2012-04-29T10:06:16Z</time>
      </trkpt>
      <trkpt lat="60.0153197" lon="17.4122139">
        <ele>43.3966</ele>
        <time>2012-04-29T10:06:21Z</time>
      </trkpt>
      <trkpt lat="60.0153976" lon="17.4120482">
        <ele>40.9934</ele>
        <time>2012-04-29T10:06:23Z</time>
      </trkpt>
      <trkpt lat="60.0156257" lon="17.4115489">
        <ele>34.7449</ele>
        <time>2012-04-29T10:06:29Z</time>
      </trkpt>
      <trkpt lat="60.0157003" lon="17.4114685">
        <ele>31.3801</ele>
        <time>2012-04-29T10:06:31Z</time>
      </trkpt>
      <trkpt lat="60.0158945" lon="17.4112566">
        <ele>34.2642</ele>
        <time>2012-04-29T10:06:35Z</time>
      </trkpt>
      <trkpt lat="60.0163512" lon="17.4106873">
        <ele>46.7612</ele>
        <time>2012-04-29T10:06:44Z</time>
      </trkpt>
      <trkpt lat="60.0164295" lon="17.4105765">
        <ele>47.2418</ele>
        <time>2012-04-29T10:06:46Z</time>
      </trkpt>
      <trkpt lat="60.0165778" lon="17.410332">
        <ele>50.6066</ele>
        <time>2012-04-29T10:06:50Z</time>
      </trkpt>
      <trkpt lat="60.0167792" lon="17.4099409">
        <ele>53.4905</ele>
        <time>2012-04-29T10:06:56Z</time>
      </trkpt>
      <trkpt lat="60.0168332" lon="17.4098067">
        <ele>52.5292</ele>
        <time>2012-04-29T10:06:58Z</time>
      </trkpt>
      <trkpt lat="60.0170005" lon="17.4091512">
        <ele>48.2034</ele>
        <time>2012-04-29T10:07:06Z</time>
      </trkpt>
      <trkpt lat="60.0171098" lon="17.4083081">
        <ele>45.7999</ele>
        <time>2012-04-29T10:07:13Z</time>
      </trkpt>
      <trkpt lat="60.0172439" lon="17.4074724">
        <ele>41.9547</ele>
        <time>2012-04-29T10:07:19Z</time>
      </trkpt>
      <trkpt lat="60.0174563" lon="17.4064348">
        <ele>36.1868</ele>
        <time>2012-04-29T10:07:25Z</time>
      </trkpt>
      <trkpt lat="60.0177241" lon="17.4056559">
        <ele>28.9769</ele>
        <time>2012-04-29T10:07:31Z</time>
      </trkpt>
      <trkpt lat="60.0181002" lon="17.4048769">
        <ele>32.3416</ele>
        <time>2012-04-29T10:07:38Z</time>
      </trkpt>
      <trkpt lat="60.0182831" lon="17.4044224">
        <ele>35.7061</ele>
        <time>2012-04-29T10:07:42Z</time>
      </trkpt>
      <trkpt lat="60.0183911" lon="17.4037528">
        <ele>37.6287</ele>
        <time>2012-04-29T10:07:47Z</time>
      </trkpt>
      <trkpt lat="60.0185017" lon="17.4030579">
        <ele>39.5513</ele>
        <time>2012-04-29T10:07:52Z</time>
      </trkpt>
      <trkpt lat="60.0185192" lon="17.4029317">
        <ele>40.5128</ele>
        <time>2012-04-29T10:07:53Z</time>
      </trkpt>
      <trkpt lat="60.0185979" lon="17.4021645">
        <ele>41.9547</ele>
        <time>2012-04-29T10:07:59Z</time>
      </trkpt>
      <trkpt lat="60.0186017" lon="17.4020478">
        <ele>42.4354</ele>
        <time>2012-04-29T10:08:00Z</time>
      </trkpt>
      <trkpt lat="60.0186021" lon="17.4014423">
        <ele>42.4354</ele>
        <time>2012-04-29T10:08:05Z</time>
      </trkpt>
      <trkpt lat="60.0185291" lon="17.4009113">
        <ele>41.474</ele>
        <time>2012-04-29T10:08:09Z</time>
      </trkpt>
      <trkpt lat="60.0183419" lon="17.4001873">
        <ele>40.9934</ele>
        <time>2012-04-29T10:08:14Z</time>
      </trkpt>
      <trkpt lat="60.0182918" lon="17.3996272">
        <ele>40.5128</ele>
        <time>2012-04-29T10:08:19Z</time>
      </trkpt>
      <trkpt lat="60.0182803" lon="17.3995403">
        <ele>40.0321</ele>
        <time>2012-04-29T10:08:20Z</time>
      </trkpt>
      <trkpt lat="60.0182545" lon="17.3991849">
        <ele>36.6675</ele>
        <time>2012-04-29T10:08:24Z</time>
      </trkpt>
      <trkpt lat="60.0181839" lon="17.3986197">
        <ele>37.6287</ele>
        <time>2012-04-29T10:08:30Z</time>
      </trkpt>
      <trkpt lat="60.0181505" lon="17.3983338">
        <ele>42.4354</ele>
        <time>2012-04-29T10:08:33Z</time>
      </trkpt>
      <trkpt lat="60.0180023" lon="17.3977774">
        <ele>49.1646</ele>
        <time>2012-04-29T10:08:39Z</time>
      </trkpt>
      <trkpt lat="60.0177287" lon="17.3969687">
        <ele>53.4905</ele>
        <time>2012-04-29T10:08:46Z</time>
      </trkpt>
      <trkpt lat="60.0176859" lon="17.3968378">
        <ele>54.4518</ele>
        <time>2012-04-29T10:08:47Z</time>
      </trkpt>
      <trkpt lat="60.0175237" lon="17.3962049">
        <ele>53.4905</ele>
        <time>2012-04-29T10:08:51Z</time>
      </trkpt>
      <trkpt lat="60.0175632" lon="17.3954436">
        <ele>46.2806</ele>
        <time>2012-04-29T10:08:55Z</time>
      </trkpt>
      <trkpt lat="60.0177066" lon="17.3950181">
        <ele>43.8773</ele>
        <time>2012-04-29T10:08:58Z</time>
      </trkpt>
      <trkpt lat="60.018021" lon="17.3945409">
        <ele>43.3966</ele>
        <time>2012-04-29T10:09:03Z</time>
      </trkpt>
      <trkpt lat="60.0182272" lon="17.3943852">
        <ele>45.7999</ele>
        <time>2012-04-29T10:09:06Z</time>
      </trkpt>
      <trkpt lat="60.0184685" lon="17.3941798">
        <ele>46.2806</ele>
        <time>2012-04-29T10:09:10Z</time>
      </trkpt>
      <trkpt lat="60.0186277" lon="17.3940238">
        <ele>45.7999</ele>
        <time>2012-04-29T10:09:13Z</time>
      </trkpt>
      <trkpt lat="60.0187714" lon="17.3938181">
        <ele>41.474</ele>
        <time>2012-04-29T10:09:17Z</time>
      </trkpt>
      <trkpt lat="60.0189695" lon="17.3934871">
        <ele>41.9547</ele>
        <time>2012-04-29T10:09:23Z</time>
      </trkpt>
      <trkpt lat="60.0191581" lon="17.3931178">
        <ele>39.0707</ele>
        <time>2012-04-29T10:09:29Z</time>
      </trkpt>
      <trkpt lat="60.0193569" lon="17.3926018">
        <ele>17.9218</ele>
        <time>2012-04-29T10:09:36Z</time>
      </trkpt>
      <trkpt lat="60.019499" lon="17.3923838">
        <ele>19.3638</ele>
        <time>2012-04-29T10:09:39Z</time>
      </trkpt>
      <trkpt lat="60.0196201" lon="17.3922629">
        <ele>24.651</ele>
        <time>2012-04-29T10:09:41Z</time>
      </trkpt>
      <trkpt lat="60.0199087" lon="17.3919365">
        <ele>34.2642</ele>
        <time>2012-04-29T10:09:46Z</time>
      </trkpt>
      <trkpt lat="60.020183" lon="17.3913122">
        <ele>40.0321</ele>
        <time>2012-04-29T10:09:52Z</time>
      </trkpt>
      <trkpt lat="60.0204592" lon="17.3906155">
        <ele>41.474</ele>
        <time>2012-04-29T10:09:59Z</time>
      </trkpt>
      <trkpt lat="60.0204911" lon="17.3905391">
        <ele>41.474</ele>
        <time>2012-04-29T10:10:00Z</time>
      </trkpt>
      <trkpt lat="60.0205813" lon="17.3903045">
        <ele>43.3966</ele>
        <time>2012-04-29T10:10:03Z</time>
      </trkpt>
      <trkpt lat="60.020689" lon="17.3900103">
        <ele>44.8386</ele>
        <time>2012-04-29T10:10:07Z</time>
      </trkpt>
      <trkpt lat="60.0207396" lon="17.3898394">
        <ele>44.8386</ele>
        <time>2012-04-29T10:10:09Z</time>
      </trkpt>
      <trkpt lat="60.0208342" lon="17.3892883">
        <ele>43.8773</ele>
        <time>2012-04-29T10:10:14Z</time>
      </trkpt>
      <trkpt lat="60.020898" lon="17.3888766">
        <ele>41.9547</ele>
        <time>2012-04-29T10:10:18Z</time>
      </trkpt>
      <trkpt lat="60.0209504" lon="17.3883575">
        <ele>40.9934</ele>
        <time>2012-04-29T10:10:23Z</time>
      </trkpt>
      <trkpt lat="60.021056" lon="17.3878553">
        <ele>38.5901</ele>
        <time>2012-04-29T10:10:28Z</time>
      </trkpt>
      <trkpt lat="60.0210803" lon="17.3877364">
        <ele>36.6675</ele>
        <time>2012-04-29T10:10:29Z</time>
      </trkpt>
      <trkpt lat="60.0213658" lon="17.3873623">
        <ele>40.5128</ele>
        <time>2012-04-29T10:10:34Z</time>
      </trkpt>
      <trkpt lat="60.0215103" lon="17.3873462">
        <ele>42.916</ele>
        <time>2012-04-29T10:10:36Z</time>
      </trkpt>
      <trkpt lat="60.0219957" lon="17.3871267">
        <ele>48.684</ele>
        <time>2012-04-29T10:10:44Z</time>
      </trkpt>
      <trkpt lat="60.0224018" lon="17.386923">
        <ele>47.7225</ele>
        <time>2012-04-29T10:10:50Z</time>
      </trkpt>
      <trkpt lat="60.0227727" lon="17.38683">
        <ele>47.2418</ele>
        <time>2012-04-29T10:10:55Z</time>
      </trkpt>
      <trkpt lat="60.0230256" lon="17.3866355">
        <ele>46.2806</ele>
        <time>2012-04-29T10:10:59Z</time>
      </trkpt>
      <trkpt lat="60.0233788" lon="17.3859705">
        <ele>44.358</ele>
        <time>2012-04-29T10:11:06Z</time>
      </trkpt>
      <trkpt lat="60.0234881" lon="17.3857957">
        <ele>44.358</ele>
        <time>2012-04-29T10:11:08Z</time>
      </trkpt>
      <trkpt lat="60.0238331" lon="17.3851324">
        <ele>45.7999</ele>
        <time>2012-04-29T10:11:15Z</time>
      </trkpt>
      <trkpt lat="60.0239911" lon="17.3849334">
        <ele>47.7225</ele>
        <time>2012-04-29T10:11:18Z</time>
      </trkpt>
      <trkpt lat="60.0242301" lon="17.3846494">
        <ele>48.2034</ele>
        <time>2012-04-29T10:11:23Z</time>
      </trkpt>
      <trkpt lat="60.024308" lon="17.3843349">
        <ele>49.1646</ele>
        <time>2012-04-29T10:11:26Z</time>
      </trkpt>
      <trkpt lat="60.0243441" lon="17.3839087">
        <ele>48.2034</ele>
        <time>2012-04-29T10:11:30Z</time>
      </trkpt>
      <trkpt lat="60.0243184" lon="17.3829577">
        <ele>48.2034</ele>
        <time>2012-04-29T10:11:38Z</time>
      </trkpt>
      <trkpt lat="60.0243282" lon="17.3820451">
        <ele>51.0872</ele>
        <time>2012-04-29T10:11:46Z</time>
      </trkpt>
      <trkpt lat="60.0243376" lon="17.3810991">
        <ele>50.126</ele>
        <time>2012-04-29T10:11:54Z</time>
      </trkpt>
      <trkpt lat="60.0243406" lon="17.3808567">
        <ele>49.6453</ele>
        <time>2012-04-29T10:11:56Z</time>
      </trkpt>
      <trkpt lat="60.0244256" lon="17.3800614">
        <ele>52.0486</ele>
        <time>2012-04-29T10:12:03Z</time>
      </trkpt>
      <trkpt lat="60.024463" lon="17.3792576">
        <ele>50.126</ele>
        <time>2012-04-29T10:12:09Z</time>
      </trkpt>
      <trkpt lat="60.0244617" lon="17.3786283">
        <ele>48.2034</ele>
        <time>2012-04-29T10:12:14Z</time>
      </trkpt>
      <trkpt lat="60.0243573" lon="17.3780594">
        <ele>49.1646</ele>
        <time>2012-04-29T10:12:19Z</time>
      </trkpt>
      <trkpt lat="60.0241336" lon="17.3774352">
        <ele>50.126</ele>
        <time>2012-04-29T10:12:25Z</time>
      </trkpt>
      <trkpt lat="60.0241127" lon="17.3773442">
        <ele>48.684</ele>
        <time>2012-04-29T10:12:26Z</time>
      </trkpt>
      <trkpt lat="60.0240574" lon="17.3767647">
        <ele>44.358</ele>
        <time>2012-04-29T10:12:31Z</time>
      </trkpt>
      <trkpt lat="60.0240784" lon="17.3765712">
        <ele>43.8773</ele>
        <time>2012-04-29T10:12:32Z</time>
      </trkpt>
      <trkpt lat="60.0240341" lon="17.3758238">
        <ele>41.474</ele>
        <time>2012-04-29T10:12:38Z</time>
      </trkpt>
      <trkpt lat="60.0239589" lon="17.3755687">
        <ele>42.916</ele>
        <time>2012-04-29T10:12:40Z</time>
      </trkpt>
      <trkpt lat="60.0239403" lon="17.3750121">
        <ele>40.0321</ele>
        <time>2012-04-29T10:12:44Z</time>
      </trkpt>
      <trkpt lat="60.0239594" lon="17.3746266">
        <ele>37.6287</ele>
        <time>2012-04-29T10:12:46Z</time>
      </trkpt>
      <trkpt lat="60.0241302" lon="17.3739465">
        <ele>29.9381</ele>
        <time>2012-04-29T10:12:52Z</time>
      </trkpt>
      <trkpt lat="60.0242645" lon="17.3732035">
        <ele>20.325</ele>
        <time>2012-04-29T10:12:59Z</time>
      </trkpt>
      <trkpt lat="60.0243102" lon="17.372988">
        <ele>21.2864</ele>
        <time>2012-04-29T10:13:01Z</time>
      </trkpt>
      <trkpt lat="60.0243644" lon="17.3725057">
        <ele>22.7283</ele>
        <time>2012-04-29T10:13:05Z</time>
      </trkpt>
      <trkpt lat="60.0243888" lon="17.3716872">
        <ele>29.4575</ele>
        <time>2012-04-29T10:13:12Z</time>
      </trkpt>
      <trkpt lat="60.0243935" lon="17.3715955">
        <ele>30.8995</ele>
        <time>2012-04-29T10:13:13Z</time>
      </trkpt>
      <trkpt lat="60.0243997" lon="17.3712112">
        <ele>33.7834</ele>
        <time>2012-04-29T10:13:16Z</time>
      </trkpt>
      <trkpt lat="60.0243542" lon="17.3703407">
        <ele>39.0707</ele>
        <time>2012-04-29T10:13:23Z</time>
      </trkpt>
      <trkpt lat="60.0243421" lon="17.3701277">
        <ele>39.5513</ele>
        <time>2012-04-29T10:13:25Z</time>
      </trkpt>
      <trkpt lat="60.0243457" lon="17.3696344">
        <ele>40.9934</ele>
        <time>2012-04-29T10:13:29Z</time>
      </trkpt>
      <trkpt lat="60.0242816" lon="17.3682266">
        <ele>43.8773</ele>
        <time>2012-04-29T10:13:37Z</time>
      </trkpt>
      <trkpt lat="60.0242493" lon="17.3680806">
        <ele>43.3966</ele>
        <time>2012-04-29T10:13:38Z</time>
      </trkpt>
      <trkpt lat="60.024034" lon="17.3678474">
        <ele>44.358</ele>
        <time>2012-04-29T10:13:42Z</time>
      </trkpt>
      <trkpt lat="60.023836" lon="17.367966">
        <ele>43.8773</ele>
        <time>2012-04-29T10:13:45Z</time>
      </trkpt>
      <trkpt lat="60.0237082" lon="17.3680502">
        <ele>44.358</ele>
        <time>2012-04-29T10:13:47Z</time>
      </trkpt>
      <trkpt lat="60.0231305" lon="17.3683198">
        <ele>47.7225</ele>
        <time>2012-04-29T10:13:55Z</time>
      </trkpt>
      <trkpt lat="60.022715" lon="17.3687012">
        <ele>47.2418</ele>
        <time>2012-04-29T10:14:01Z</time>
      </trkpt>
      <trkpt lat="60.0220904" lon="17.3693196">
        <ele>48.2034</ele>
        <time>2012-04-29T10:14:10Z</time>
      </trkpt>
      <trkpt lat="60.0215636" lon="17.3697951">
        <ele>45.7999</ele>
        <time>2012-04-29T10:14:18Z</time>
      </trkpt>
      <trkpt lat="60.0212788" lon="17.3700391">
        <ele>45.3192</ele>
        <time>2012-04-29T10:14:23Z</time>
      </trkpt>
      <trkpt lat="60.0209938" lon="17.3703307">
        <ele>44.358</ele>
        <time>2012-04-29T10:14:29Z</time>
      </trkpt>
      <trkpt lat="60.0206987" lon="17.3706077">
        <ele>43.8773</ele>
        <time>2012-04-29T10:14:35Z</time>
      </trkpt>
      <trkpt lat="60.0203976" lon="17.3709051">
        <ele>43.8773</ele>
        <time>2012-04-29T10:14:41Z</time>
      </trkpt>
      <trkpt lat="60.0202435" lon="17.3710778">
        <ele>45.3192</ele>
        <time>2012-04-29T10:14:44Z</time>
      </trkpt>
      <trkpt lat="60.0200653" lon="17.3712272">
        <ele>44.8386</ele>
        <time>2012-04-29T10:14:47Z</time>
      </trkpt>
      <trkpt lat="60.0197677" lon="17.3714088">
        <ele>41.9547</ele>
        <time>2012-04-29T10:14:52Z</time>
      </trkpt>
      <trkpt lat="60.0193743" lon="17.3716138">
        <ele>42.916</ele>
        <time>2012-04-29T10:14:58Z</time>
      </trkpt>
      <trkpt lat="60.0188057" lon="17.3717319">
        <ele>46.7612</ele>
        <time>2012-04-29T10:15:06Z</time>
      </trkpt>
      <trkpt lat="60.0184191" lon="17.3717873">
        <ele>49.1646</ele>
        <time>2012-04-29T10:15:12Z</time>
      </trkpt>
      <trkpt lat="60.018082" lon="17.3718673">
        <ele>50.6066</ele>
        <time>2012-04-29T10:15:18Z</time>
      </trkpt>
      <trkpt lat="60.0178019" lon="17.3718703">
        <ele>50.6066</ele>
        <time>2012-04-29T10:15:24Z</time>
      </trkpt>
      <trkpt lat="60.0175755" lon="17.3718605">
        <ele>49.6453</ele>
        <time>2012-04-29T10:15:29Z</time>
      </trkpt>
      <trkpt lat="60.0173041" lon="17.3718831">
        <ele>51.0872</ele>
        <time>2012-04-29T10:15:34Z</time>
      </trkpt>
      <trkpt lat="60.0169241" lon="17.3719045">
        <ele>52.0486</ele>
        <time>2012-04-29T10:15:40Z</time>
      </trkpt>
      <trkpt lat="60.0164938" lon="17.3719158">
        <ele>52.5292</ele>
        <time>2012-04-29T10:15:47Z</time>
      </trkpt>
      <trkpt lat="60.0162602" lon="17.37188">
        <ele>51.0872</ele>
        <time>2012-04-29T10:15:51Z</time>
      </trkpt>
      <trkpt lat="60.0157443" lon="17.3719241">
        <ele>43.8773</ele>
        <time>2012-04-29T10:15:59Z</time>
      </trkpt>
      <trkpt lat="60.0153466" lon="17.3719853">
        <ele>44.8386</ele>
        <time>2012-04-29T10:16:05Z</time>
      </trkpt>
      <trkpt lat="60.0149316" lon="17.3720371">
        <ele>46.7612</ele>
        <time>2012-04-29T10:16:11Z</time>
      </trkpt>
      <trkpt lat="60.0145939" lon="17.3720941">
        <ele>49.1646</ele>
        <time>2012-04-29T10:16:16Z</time>
      </trkpt>
      <trkpt lat="60.0141514" lon="17.3721332">
        <ele>46.2806</ele>
        <time>2012-04-29T10:16:23Z</time>
      </trkpt>
      <trkpt lat="60.0136712" lon="17.3722081">
        <ele>47.7225</ele>
        <time>2012-04-29T10:16:30Z</time>
      </trkpt>
      <trkpt lat="60.0131537" lon="17.3723109">
        <ele>49.1646</ele>
        <time>2012-04-29T10:16:36Z</time>
      </trkpt>
      <trkpt lat="60.0126405" lon="17.3723361">
        <ele>51.5679</ele>
        <time>2012-04-29T10:16:43Z</time>
      </trkpt>
      <trkpt lat="60.0125109" lon="17.3723179">
        <ele>52.5292</ele>
        <time>2012-04-29T10:16:45Z</time>
      </trkpt>
      <trkpt lat="60.0121942" lon="17.3722924">
        <ele>53.4905</ele>
        <time>2012-04-29T10:16:50Z</time>
      </trkpt>
      <trkpt lat="60.0118327" lon="17.372425">
        <ele>53.4905</ele>
        <time>2012-04-29T10:16:55Z</time>
      </trkpt>
      <trkpt lat="60.0115215" lon="17.3722592">
        <ele>53.0098</ele>
        <time>2012-04-29T10:16:59Z</time>
      </trkpt>
      <trkpt lat="60.0113713" lon="17.3721355">
        <ele>52.5292</ele>
        <time>2012-04-29T10:17:01Z</time>
      </trkpt>
      <trkpt lat="60.0110476" lon="17.3716076">
        <ele>51.0872</ele>
        <time>2012-04-29T10:17:06Z</time>
      </trkpt>
      <trkpt lat="60.01099" lon="17.3714969">
        <ele>50.126</ele>
        <time>2012-04-29T10:17:07Z</time>
      </trkpt>
      <trkpt lat="60.0107165" lon="17.3705777">
        <ele>48.2034</ele>
        <time>2012-04-29T10:17:14Z</time>
      </trkpt>
      <trkpt lat="60.0102969" lon="17.3692486">
        <ele>49.6453</ele>
        <time>2012-04-29T10:17:24Z</time>
      </trkpt>
      <trkpt lat="60.0101305" lon="17.3689269">
        <ele>50.6066</ele>
        <time>2012-04-29T10:17:27Z</time>
      </trkpt>
      <trkpt lat="60.0098679" lon="17.3684308">
        <ele>50.6066</ele>
        <time>2012-04-29T10:17:32Z</time>
      </trkpt>
      <trkpt lat="60.0097458" lon="17.3682364">
        <ele>50.126</ele>
        <time>2012-04-29T10:17:34Z</time>
      </trkpt>
      <trkpt lat="60.0094889" lon="17.3676827">
        <ele>47.2418</ele>
        <time>2012-04-29T10:17:39Z</time>
      </trkpt>
      <trkpt lat="60.0093024" lon="17.3672085">
        <ele>43.8773</ele>
        <time>2012-04-29T10:17:43Z</time>
      </trkpt>
      <trkpt lat="60.0092558" lon="17.3670997">
        <ele>43.8773</ele>
        <time>2012-04-29T10:17:44Z</time>
      </trkpt>
      <trkpt lat="60.0090796" lon="17.3665959">
        <ele>41.474</ele>
        <time>2012-04-29T10:17:49Z</time>
      </trkpt>
      <trkpt lat="60.0088786" lon="17.3661192">
        <ele>42.4354</ele>
        <time>2012-04-29T10:17:54Z</time>
      </trkpt>
      <trkpt lat="60.008785" lon="17.3659127">
        <ele>42.916</ele>
        <time>2012-04-29T10:17:56Z</time>
      </trkpt>
      <trkpt lat="60.0085739" lon="17.3655498">
        <ele>42.916</ele>
        <time>2012-04-29T10:18:00Z</time>
      </trkpt>
      <trkpt lat="60.0081762" lon="17.3652281">
        <ele>45.7999</ele>
        <time>2012-04-29T10:18:06Z</time>
      </trkpt>
      <trkpt lat="60.0078561" lon="17.365016">
        <ele>48.2034</ele>
        <time>2012-04-29T10:18:11Z</time>
      </trkpt>
      <trkpt lat="60.0074798" lon="17.364744">
        <ele>49.6453</ele>
        <time>2012-04-29T10:18:17Z</time>
      </trkpt>
      <trkpt lat="60.007166" lon="17.3645424">
        <ele>48.684</ele>
        <time>2012-04-29T10:18:22Z</time>
      </trkpt>
      <trkpt lat="60.0067428" lon="17.3643222">
        <ele>50.6066</ele>
        <time>2012-04-29T10:18:28Z</time>
      </trkpt>
      <trkpt lat="60.0063243" lon="17.364179">
        <ele>53.0098</ele>
        <time>2012-04-29T10:18:34Z</time>
      </trkpt>
      <trkpt lat="60.0058527" lon="17.3640702">
        <ele>53.4905</ele>
        <time>2012-04-29T10:18:41Z</time>
      </trkpt>
      <trkpt lat="60.0053191" lon="17.3640098">
        <ele>51.5679</ele>
        <time>2012-04-29T10:18:49Z</time>
      </trkpt>
      <trkpt lat="60.0047717" lon="17.3640089">
        <ele>52.0486</ele>
        <time>2012-04-29T10:18:57Z</time>
      </trkpt>
      <trkpt lat="60.0042227" lon="17.3640126">
        <ele>50.126</ele>
        <time>2012-04-29T10:19:06Z</time>
      </trkpt>
      <trkpt lat="60.0038977" lon="17.3640049">
        <ele>44.358</ele>
        <time>2012-04-29T10:19:12Z</time>
      </trkpt>
      <trkpt lat="60.0034809" lon="17.3640176">
        <ele>44.358</ele>
        <time>2012-04-29T10:19:19Z</time>
      </trkpt>
      <trkpt lat="60.0030179" lon="17.3639623">
        <ele>45.3192</ele>
        <time>2012-04-29T10:19:26Z</time>
      </trkpt>
      <trkpt lat="60.0025965" lon="17.3639239">
        <ele>47.2418</ele>
        <time>2012-04-29T10:19:32Z</time>
      </trkpt>
      <trkpt lat="60.0022211" lon="17.3638148">
        <ele>49.1646</ele>
        <time>2012-04-29T10:19:37Z</time>
      </trkpt>
      <trkpt lat="60.0017097" lon="17.363552">
        <ele>51.5679</ele>
        <time>2012-04-29T10:19:44Z</time>
      </trkpt>
      <trkpt lat="60.0014917" lon="17.3632262">
        <ele>48.2034</ele>
        <time>2012-04-29T10:19:48Z</time>
      </trkpt>
      <trkpt lat="60.0014313" lon="17.3628371">
        <ele>44.358</ele>
        <time>2012-04-29T10:19:51Z</time>
      </trkpt>
      <trkpt lat="60.0013662" lon="17.3616437">
        <ele>42.916</ele>
        <time>2012-04-29T10:20:00Z</time>
      </trkpt>
      <trkpt lat="60.0012918" lon="17.3608449">
        <ele>42.916</ele>
        <time>2012-04-29T10:20:07Z</time>
      </trkpt>
      <trkpt lat="60.0012753" lon="17.3607402">
        <ele>42.916</ele>
        <time>2012-04-29T10:20:08Z</time>
      </trkpt>
      <trkpt lat="60.0011344" lon="17.3603744">
        <ele>43.8773</ele>
        <time>2012-04-29T10:20:12Z</time>
      </trkpt>
      <trkpt lat="60.0010221" lon="17.3602818">
        <ele>44.358</ele>
        <time>2012-04-29T10:20:14Z</time>
      </trkpt>
      <trkpt lat="60.0004827" lon="17.3599711">
        <ele>47.2418</ele>
        <time>2012-04-29T10:20:23Z</time>
      </trkpt>
      <trkpt lat="60.0001119" lon="17.3599337">
        <ele>47.7225</ele>
        <time>2012-04-29T10:20:29Z</time>
      </trkpt>
      <trkpt lat="59.9995928" lon="17.3600924">
        <ele>48.684</ele>
        <time>2012-04-29T10:20:37Z</time>
      </trkpt>
      <trkpt lat="59.9994073" lon="17.360192">
        <ele>50.126</ele>
        <time>2012-04-29T10:20:40Z</time>
      </trkpt>
      <trkpt lat="59.9988499" lon="17.3606072">
        <ele>49.1646</ele>
        <time>2012-04-29T10:20:48Z</time>
      </trkpt>
      <trkpt lat="59.9982397" lon="17.3610457">
        <ele>46.2806</ele>
        <time>2012-04-29T10:20:56Z</time>
      </trkpt>
      <trkpt lat="59.9978047" lon="17.3613746">
        <ele>42.916</ele>
        <time>2012-04-29T10:21:02Z</time>
      </trkpt>
      <trkpt lat="59.9976567" lon="17.3618122">
        <ele>43.8773</ele>
        <time>2012-04-29T10:21:06Z</time>
      </trkpt>
      <trkpt lat="59.9975547" lon="17.3622912">
        <ele>44.358</ele>
        <time>2012-04-29T10:21:10Z</time>
      </trkpt>
      <trkpt lat="59.9972509" lon="17.3629677">
        <ele>42.916</ele>
        <time>2012-04-29T10:21:17Z</time>
      </trkpt>
      <trkpt lat="59.9971616" lon="17.3631184">
        <ele>43.3966</ele>
        <time>2012-04-29T10:21:19Z</time>
      </trkpt>
      <trkpt lat="59.9969048" lon="17.3636993">
        <ele>45.3192</ele>
        <time>2012-04-29T10:21:27Z</time>
      </trkpt>
      <trkpt lat="59.9967239" lon="17.3641312">
        <ele>45.7999</ele>
        <time>2012-04-29T10:21:33Z</time>
      </trkpt>
      <trkpt lat="59.9965014" lon="17.3645765">
        <ele>42.916</ele>
        <time>2012-04-29T10:21:39Z</time>
      </trkpt>
      <trkpt lat="59.9962915" lon="17.3649543">
        <ele>40.0321</ele>
        <time>2012-04-29T10:21:44Z</time>
      </trkpt>
      <trkpt lat="59.9959532" lon="17.3655982">
        <ele>38.1094</ele>
        <time>2012-04-29T10:21:52Z</time>
      </trkpt>
      <trkpt lat="59.9955793" lon="17.3662213">
        <ele>41.9547</ele>
        <time>2012-04-29T10:22:00Z</time>
      </trkpt>
      <trkpt lat="59.9953135" lon="17.3666475">
        <ele>42.4354</ele>
        <time>2012-04-29T10:22:06Z</time>
      </trkpt>
      <trkpt lat="59.9952648" lon="17.3667053">
        <ele>41.9547</ele>
        <time>2012-04-29T10:22:07Z</time>
      </trkpt>
      <trkpt lat="59.9949524" lon="17.3670399">
        <ele>41.9547</ele>
        <time>2012-04-29T10:22:13Z</time>
      </trkpt>
      <trkpt lat="59.9946146" lon="17.3673958">
        <ele>40.5128</ele>
        <time>2012-04-29T10:22:19Z</time>
      </trkpt>
      <trkpt lat="59.9943789" lon="17.3677227">
        <ele>41.9547</ele>
        <time>2012-04-29T10:22:23Z</time>
      </trkpt>
      <trkpt lat="59.9940116" lon="17.3679379">
        <ele>44.358</ele>
        <time>2012-04-29T10:22:28Z</time>
      </trkpt>
      <trkpt lat="59.9934843" lon="17.3678578">
        <ele>43.3966</ele>
        <time>2012-04-29T10:22:35Z</time>
      </trkpt>
      <trkpt lat="59.9931925" lon="17.3679299">
        <ele>45.3192</ele>
        <time>2012-04-29T10:22:39Z</time>
      </trkpt>
      <trkpt lat="59.992926" lon="17.3680712">
        <ele>44.8386</ele>
        <time>2012-04-29T10:22:43Z</time>
      </trkpt>
      <trkpt lat="59.9927208" lon="17.3685066">
        <ele>40.5128</ele>
        <time>2012-04-29T10:22:48Z</time>
      </trkpt>
      <trkpt lat="59.9926842" lon="17.3686104">
        <ele>39.5513</ele>
        <time>2012-04-29T10:22:49Z</time>
      </trkpt>
      <trkpt lat="59.9925675" lon="17.3689024">
        <ele>38.1094</ele>
        <time>2012-04-29T10:22:52Z</time>
      </trkpt>
      <trkpt lat="59.9924549" lon="17.3692624">
        <ele>35.7061</ele>
        <time>2012-04-29T10:22:55Z</time>
      </trkpt>
      <trkpt lat="59.9920966" lon="17.3704001">
        <ele>43.3966</ele>
        <time>2012-04-29T10:23:02Z</time>
      </trkpt>
      <trkpt lat="59.9918691" lon="17.3710291">
        <ele>43.3966</ele>
        <time>2012-04-29T10:23:08Z</time>
      </trkpt>
      <trkpt lat="59.9916052" lon="17.3716509">
        <ele>40.9934</ele>
        <time>2012-04-29T10:23:14Z</time>
      </trkpt>
      <trkpt lat="59.9912589" lon="17.3723209">
        <ele>38.5901</ele>
        <time>2012-04-29T10:23:21Z</time>
      </trkpt>
      <trkpt lat="59.9909436" lon="17.3726958">
        <ele>36.6675</ele>
        <time>2012-04-29T10:23:26Z</time>
      </trkpt>
      <trkpt lat="59.9903057" lon="17.3733708">
        <ele>34.7449</ele>
        <time>2012-04-29T10:23:35Z</time>
      </trkpt>
      <trkpt lat="59.9896863" lon="17.3740429">
        <ele>35.2255</ele>
        <time>2012-04-29T10:23:44Z</time>
      </trkpt>
      <trkpt lat="59.9890697" lon="17.3746829">
        <ele>35.2255</ele>
        <time>2012-04-29T10:23:53Z</time>
      </trkpt>
      <trkpt lat="59.9886472" lon="17.3751285">
        <ele>36.1868</ele>
        <time>2012-04-29T10:24:00Z</time>
      </trkpt>
      <trkpt lat="59.9885535" lon="17.375245">
        <ele>36.1868</ele>
        <time>2012-04-29T10:24:02Z</time>
      </trkpt>
      <trkpt lat="59.9883093" lon="17.3758033">
        <ele>35.7061</ele>
        <time>2012-04-29T10:24:09Z</time>
      </trkpt>
      <trkpt lat="59.9881219" lon="17.3763681">
        <ele>34.7449</ele>
        <time>2012-04-29T10:24:14Z</time>
      </trkpt>
      <trkpt lat="59.9878125" lon="17.3772824">
        <ele>33.3029</ele>
        <time>2012-04-29T10:24:21Z</time>
      </trkpt>
      <trkpt lat="59.9874495" lon="17.3784004">
        <ele>34.7449</ele>
        <time>2012-04-29T10:24:29Z</time>
      </trkpt>
      <trkpt lat="59.9870626" lon="17.3795865">
        <ele>35.2255</ele>
        <time>2012-04-29T10:24:38Z</time>
      </trkpt>
      <trkpt lat="59.9866896" lon="17.3807427">
        <ele>34.7449</ele>
        <time>2012-04-29T10:24:47Z</time>
      </trkpt>
      <trkpt lat="59.9864683" lon="17.3816368">
        <ele>33.3029</ele>
        <time>2012-04-29T10:24:53Z</time>
      </trkpt>
      <trkpt lat="59.9861477" lon="17.3829825">
        <ele>37.1481</ele>
        <time>2012-04-29T10:25:02Z</time>
      </trkpt>
      <trkpt lat="59.9859966" lon="17.3837861">
        <ele>42.4354</ele>
        <time>2012-04-29T10:25:08Z</time>
      </trkpt>
      <trkpt lat="59.9859525" lon="17.3846312">
        <ele>45.7999</ele>
        <time>2012-04-29T10:25:15Z</time>
      </trkpt>
      <trkpt lat="59.9858323" lon="17.3856329">
        <ele>47.2418</ele>
        <time>2012-04-29T10:25:23Z</time>
      </trkpt>
      <trkpt lat="59.9856596" lon="17.3865041">
        <ele>50.126</ele>
        <time>2012-04-29T10:25:31Z</time>
      </trkpt>
      <trkpt lat="59.9856303" lon="17.3865981">
        <ele>50.6066</ele>
        <time>2012-04-29T10:25:32Z</time>
      </trkpt>
      <trkpt lat="59.9853198" lon="17.3871609">
        <ele>45.3192</ele>
        <time>2012-04-29T10:25:40Z</time>
      </trkpt>
      <trkpt lat="59.9851942" lon="17.3873581">
        <ele>45.7999</ele>
        <time>2012-04-29T10:25:43Z</time>
      </trkpt>
      <trkpt lat="59.9850589" lon="17.3875364">
        <ele>44.8386</ele>
        <time>2012-04-29T10:25:46Z</time>
      </trkpt>
      <trkpt lat="59.984823" lon="17.3876829">
        <ele>44.8386</ele>
        <time>2012-04-29T10:25:50Z</time>
      </trkpt>
      <trkpt lat="59.9846151" lon="17.3877198">
        <ele>44.8386</ele>
        <time>2012-04-29T10:25:53Z</time>
      </trkpt>
      <trkpt lat="59.9842271" lon="17.387593">
        <ele>44.358</ele>
        <time>2012-04-29T10:25:58Z</time>
      </trkpt>
      <trkpt lat="59.9841491" lon="17.3875276">
        <ele>43.8773</ele>
        <time>2012-04-29T10:25:59Z</time>
      </trkpt>
      <trkpt lat="59.9835333" lon="17.3868489">
        <ele>44.358</ele>
        <time>2012-04-29T10:26:07Z</time>
      </trkpt>
      <trkpt lat="59.983077" lon="17.3863822">
        <ele>46.2806</ele>
        <time>2012-04-29T10:26:14Z</time>
      </trkpt>
      <trkpt lat="59.9826859" lon="17.3859524">
        <ele>47.2418</ele>
        <time>2012-04-29T10:26:21Z</time>
      </trkpt>
      <trkpt lat="59.9821897" lon="17.3854287">
        <ele>47.2418</ele>
        <time>2012-04-29T10:26:29Z</time>
      </trkpt>
      <trkpt lat="59.9817153" lon="17.3851121">
        <ele>48.2034</ele>
        <time>2012-04-29T10:26:36Z</time>
      </trkpt>
      <trkpt lat="59.9812008" lon="17.3848728">
        <ele>50.126</ele>
        <time>2012-04-29T10:26:44Z</time>
      </trkpt>
      <trkpt lat="59.9809041" lon="17.384633">
        <ele>51.0872</ele>
        <time>2012-04-29T10:26:49Z</time>
      </trkpt>
      <trkpt lat="59.9804669" lon="17.3841308">
        <ele>53.0098</ele>
        <time>2012-04-29T10:26:57Z</time>
      </trkpt>
      <trkpt lat="59.9799528" lon="17.3835136">
        <ele>53.0098</ele>
        <time>2012-04-29T10:27:07Z</time>
      </trkpt>
      <trkpt lat="59.9795096" lon="17.3829827">
        <ele>53.4905</ele>
        <time>2012-04-29T10:27:15Z</time>
      </trkpt>
      <trkpt lat="59.9789273" lon="17.3822838">
        <ele>53.0098</ele>
        <time>2012-04-29T10:27:25Z</time>
      </trkpt>
      <trkpt lat="59.9785582" lon="17.3818565">
        <ele>53.4905</ele>
        <time>2012-04-29T10:27:31Z</time>
      </trkpt>
      <trkpt lat="59.9781564" lon="17.3812818">
        <ele>52.0486</ele>
        <time>2012-04-29T10:27:38Z</time>
      </trkpt>
      <trkpt lat="59.9777358" lon="17.3806406">
        <ele>51.5679</ele>
        <time>2012-04-29T10:27:45Z</time>
      </trkpt>
      <trkpt lat="59.9771158" lon="17.3797046">
        <ele>50.6066</ele>
        <time>2012-04-29T10:27:55Z</time>
      </trkpt>
      <trkpt lat="59.9768082" lon="17.3793047">
        <ele>49.1646</ele>
        <time>2012-04-29T10:28:00Z</time>
      </trkpt>
      <trkpt lat="59.9765438" lon="17.3788924">
        <ele>50.126</ele>
        <time>2012-04-29T10:28:04Z</time>
      </trkpt>
      <trkpt lat="59.9764202" lon="17.3783434">
        <ele>48.684</ele>
        <time>2012-04-29T10:28:08Z</time>
      </trkpt>
      <trkpt lat="59.9761356" lon="17.3773985">
        <ele>45.7999</ele>
        <time>2012-04-29T10:28:15Z</time>
      </trkpt>
      <trkpt lat="59.9759078" lon="17.3768793">
        <ele>50.6066</ele>
        <time>2012-04-29T10:28:20Z</time>
      </trkpt>
      <trkpt lat="59.9755249" lon="17.3764515">
        <ele>50.6066</ele>
        <time>2012-04-29T10:28:26Z</time>
      </trkpt>
      <trkpt lat="59.9751223" lon="17.3759719">
        <ele>48.684</ele>
        <time>2012-04-29T10:28:32Z</time>
      </trkpt>
      <trkpt lat="59.9747609" lon="17.3758585">
        <ele>49.6453</ele>
        <time>2012-04-29T10:28:37Z</time>
      </trkpt>
      <trkpt lat="59.9746868" lon="17.3758916">
        <ele>50.126</ele>
        <time>2012-04-29T10:28:38Z</time>
      </trkpt>
      <trkpt lat="59.9742699" lon="17.376063">
        <ele>48.2034</ele>
        <time>2012-04-29T10:28:44Z</time>
      </trkpt>
      <trkpt lat="59.9739129" lon="17.3759103">
        <ele>48.684</ele>
        <time>2012-04-29T10:28:49Z</time>
      </trkpt>
      <trkpt lat="59.9737791" lon="17.3755693">
        <ele>48.2034</ele>
        <time>2012-04-29T10:28:52Z</time>
      </trkpt>
      <trkpt lat="59.973673" lon="17.3747095">
        <ele>42.916</ele>
        <time>2012-04-29T10:28:58Z</time>
      </trkpt>
      <trkpt lat="59.973582" lon="17.374018">
        <ele>38.1094</ele>
        <time>2012-04-29T10:29:03Z</time>
      </trkpt>
      <trkpt lat="59.9735318" lon="17.3738226">
        <ele>37.1481</ele>
        <time>2012-04-29T10:29:05Z</time>
      </trkpt>
      <trkpt lat="59.9733502" lon="17.3733642">
        <ele>41.474</ele>
        <time>2012-04-29T10:29:09Z</time>
      </trkpt>
      <trkpt lat="59.9732948" lon="17.3732653">
        <ele>41.9547</ele>
        <time>2012-04-29T10:29:10Z</time>
      </trkpt>
      <trkpt lat="59.9725734" lon="17.3724682">
        <ele>43.8773</ele>
        <time>2012-04-29T10:29:21Z</time>
      </trkpt>
      <trkpt lat="59.9725116" lon="17.3724023">
        <ele>44.358</ele>
        <time>2012-04-29T10:29:22Z</time>
      </trkpt>
      <trkpt lat="59.9722658" lon="17.372241">
        <ele>45.3192</ele>
        <time>2012-04-29T10:29:26Z</time>
      </trkpt>
      <trkpt lat="59.9718216" lon="17.3720807">
        <ele>44.8386</ele>
        <time>2012-04-29T10:29:33Z</time>
      </trkpt>
      <trkpt lat="59.9713436" lon="17.3719677">
        <ele>44.358</ele>
        <time>2012-04-29T10:29:39Z</time>
      </trkpt>
      <trkpt lat="59.9708177" lon="17.3718395">
        <ele>44.358</ele>
        <time>2012-04-29T10:29:46Z</time>
      </trkpt>
      <trkpt lat="59.9705542" lon="17.3717366">
        <ele>44.8386</ele>
        <time>2012-04-29T10:29:50Z</time>
      </trkpt>
      <trkpt lat="59.9702235" lon="17.3716563">
        <ele>45.7999</ele>
        <time>2012-04-29T10:29:55Z</time>
      </trkpt>
      <trkpt lat="59.9699808" lon="17.3715646">
        <ele>46.7612</ele>
        <time>2012-04-29T10:29:59Z</time>
      </trkpt>
      <trkpt lat="59.969859" lon="17.3714666">
        <ele>46.2806</ele>
        <time>2012-04-29T10:30:03Z</time>
      </trkpt>
      <trkpt lat="59.9697047" lon="17.371608">
        <ele>43.3966</ele>
        <time>2012-04-29T10:30:08Z</time>
      </trkpt>
      <trkpt lat="59.9694613" lon="17.3724378">
        <ele>40.5128</ele>
        <time>2012-04-29T10:30:16Z</time>
      </trkpt>
      <trkpt lat="59.9691085" lon="17.3735854">
        <ele>37.6287</ele>
        <time>2012-04-29T10:30:26Z</time>
      </trkpt>
      <trkpt lat="59.9687331" lon="17.3747657">
        <ele>35.2255</ele>
        <time>2012-04-29T10:30:36Z</time>
      </trkpt>
      <trkpt lat="59.968399" lon="17.3757981">
        <ele>34.2642</ele>
        <time>2012-04-29T10:30:45Z</time>
      </trkpt>
      <trkpt lat="59.9680885" lon="17.3767354">
        <ele>33.7834</ele>
        <time>2012-04-29T10:30:53Z</time>
      </trkpt>
      <trkpt lat="59.9677506" lon="17.3777278">
        <ele>32.8223</ele>
        <time>2012-04-29T10:31:02Z</time>
      </trkpt>
      <trkpt lat="59.9674258" lon="17.3786753">
        <ele>29.9381</ele>
        <time>2012-04-29T10:31:11Z</time>
      </trkpt>
      <trkpt lat="59.9671301" lon="17.3794905">
        <ele>28.0155</ele>
        <time>2012-04-29T10:31:19Z</time>
      </trkpt>
      <trkpt lat="59.9668291" lon="17.3803126">
        <ele>28.4962</ele>
        <time>2012-04-29T10:31:27Z</time>
      </trkpt>
      <trkpt lat="59.9664819" lon="17.3811902">
        <ele>27.5349</ele>
        <time>2012-04-29T10:31:36Z</time>
      </trkpt>
      <trkpt lat="59.9661732" lon="17.3819705">
        <ele>25.1317</ele>
        <time>2012-04-29T10:31:44Z</time>
      </trkpt>
      <trkpt lat="59.9657698" lon="17.3829869">
        <ele>23.6896</ele>
        <time>2012-04-29T10:31:54Z</time>
      </trkpt>
      <trkpt lat="59.9654491" lon="17.3838182">
        <ele>27.0543</ele>
        <time>2012-04-29T10:32:02Z</time>
      </trkpt>
      <trkpt lat="59.9650289" lon="17.384851">
        <ele>30.8995</ele>
        <time>2012-04-29T10:32:12Z</time>
      </trkpt>
      <trkpt lat="59.9646891" lon="17.3856391">
        <ele>29.9381</ele>
        <time>2012-04-29T10:32:20Z</time>
      </trkpt>
      <trkpt lat="59.9643422" lon="17.3864412">
        <ele>30.4188</ele>
        <time>2012-04-29T10:32:28Z</time>
      </trkpt>
      <trkpt lat="59.9638836" lon="17.3874834">
        <ele>29.9381</ele>
        <time>2012-04-29T10:32:38Z</time>
      </trkpt>
      <trkpt lat="59.9634937" lon="17.3883601">
        <ele>30.4188</ele>
        <time>2012-04-29T10:32:46Z</time>
      </trkpt>
      <trkpt lat="59.9631089" lon="17.3892037">
        <ele>30.4188</ele>
        <time>2012-04-29T10:32:54Z</time>
      </trkpt>
      <trkpt lat="59.9628121" lon="17.3898483">
        <ele>31.8607</ele>
        <time>2012-04-29T10:33:00Z</time>
      </trkpt>
      <trkpt lat="59.96247" lon="17.3905548">
        <ele>31.3801</ele>
        <time>2012-04-29T10:33:07Z</time>
      </trkpt>
      <trkpt lat="59.9620748" lon="17.3914111">
        <ele>30.4188</ele>
        <time>2012-04-29T10:33:15Z</time>
      </trkpt>
      <trkpt lat="59.961675" lon="17.3921465">
        <ele>29.4575</ele>
        <time>2012-04-29T10:33:22Z</time>
      </trkpt>
      <trkpt lat="59.9612687" lon="17.3929455">
        <ele>28.9769</ele>
        <time>2012-04-29T10:33:29Z</time>
      </trkpt>
      <trkpt lat="59.9609207" lon="17.3935843">
        <ele>28.9769</ele>
        <time>2012-04-29T10:33:35Z</time>
      </trkpt>
      <trkpt lat="59.9605224" lon="17.3943168">
        <ele>28.4962</ele>
        <time>2012-04-29T10:33:42Z</time>
      </trkpt>
      <trkpt lat="59.9601853" lon="17.3949321">
        <ele>28.0155</ele>
        <time>2012-04-29T10:33:48Z</time>
      </trkpt>
      <trkpt lat="59.9596801" lon="17.3958603">
        <ele>27.5349</ele>
        <time>2012-04-29T10:33:57Z</time>
      </trkpt>
      <trkpt lat="59.9592526" lon="17.396619">
        <ele>27.5349</ele>
        <time>2012-04-29T10:34:04Z</time>
      </trkpt>
      <trkpt lat="59.9587709" lon="17.3974737">
        <ele>27.5349</ele>
        <time>2012-04-29T10:34:12Z</time>
      </trkpt>
      <trkpt lat="59.9581446" lon="17.3984887">
        <ele>29.9381</ele>
        <time>2012-04-29T10:34:22Z</time>
      </trkpt>
      <trkpt lat="59.9574521" lon="17.3995915">
        <ele>30.8995</ele>
        <time>2012-04-29T10:34:33Z</time>
      </trkpt>
      <trkpt lat="59.9568413" lon="17.4006038">
        <ele>31.3801</ele>
        <time>2012-04-29T10:34:42Z</time>
      </trkpt>
      <trkpt lat="59.9561973" lon="17.4015955">
        <ele>31.3801</ele>
        <time>2012-04-29T10:34:51Z</time>
      </trkpt>
      <trkpt lat="59.9555654" lon="17.4025573">
        <ele>32.8223</ele>
        <time>2012-04-29T10:35:00Z</time>
      </trkpt>
      <trkpt lat="59.9547484" lon="17.4038082">
        <ele>33.3029</ele>
        <time>2012-04-29T10:35:12Z</time>
      </trkpt>
      <trkpt lat="59.9542383" lon="17.4045717">
        <ele>31.8607</ele>
        <time>2012-04-29T10:35:20Z</time>
      </trkpt>
      <trkpt lat="59.9537162" lon="17.4053371">
        <ele>32.3416</ele>
        <time>2012-04-29T10:35:28Z</time>
      </trkpt>
      <trkpt lat="59.9533012" lon="17.4059461">
        <ele>33.7834</ele>
        <time>2012-04-29T10:35:35Z</time>
      </trkpt>
      <trkpt lat="59.9527652" lon="17.4067521">
        <ele>35.7061</ele>
        <time>2012-04-29T10:35:44Z</time>
      </trkpt>
      <trkpt lat="59.9522757" lon="17.407491">
        <ele>35.7061</ele>
        <time>2012-04-29T10:35:52Z</time>
      </trkpt>
      <trkpt lat="59.9517416" lon="17.4083116">
        <ele>35.2255</ele>
        <time>2012-04-29T10:36:01Z</time>
      </trkpt>
      <trkpt lat="59.9513499" lon="17.4089406">
        <ele>33.3029</ele>
        <time>2012-04-29T10:36:08Z</time>
      </trkpt>
      <trkpt lat="59.9509067" lon="17.4096796">
        <ele>32.8223</ele>
        <time>2012-04-29T10:36:16Z</time>
      </trkpt>
      <trkpt lat="59.9504803" lon="17.4104086">
        <ele>31.8607</ele>
        <time>2012-04-29T10:36:24Z</time>
      </trkpt>
      <trkpt lat="59.9500358" lon="17.4112525">
        <ele>30.8995</ele>
        <time>2012-04-29T10:36:33Z</time>
      </trkpt>
      <trkpt lat="59.949651" lon="17.4120367">
        <ele>30.8995</ele>
        <time>2012-04-29T10:36:41Z</time>
      </trkpt>
      <trkpt lat="59.949251" lon="17.4128443">
        <ele>30.8995</ele>
        <time>2012-04-29T10:36:50Z</time>
      </trkpt>
      <trkpt lat="59.9488266" lon="17.4137643">
        <ele>30.4188</ele>
        <time>2012-04-29T10:36:59Z</time>
      </trkpt>
      <trkpt lat="59.9483734" lon="17.4148304">
        <ele>28.9769</ele>
        <time>2012-04-29T10:37:09Z</time>
      </trkpt>
      <trkpt lat="59.9479062" lon="17.4160356">
        <ele>28.0155</ele>
        <time>2012-04-29T10:37:20Z</time>
      </trkpt>
      <trkpt lat="59.9474587" lon="17.4172706">
        <ele>27.0543</ele>
        <time>2012-04-29T10:37:31Z</time>
      </trkpt>
      <trkpt lat="59.9470427" lon="17.4184899">
        <ele>28.0155</ele>
        <time>2012-04-29T10:37:41Z</time>
      </trkpt>
      <trkpt lat="59.9466325" lon="17.4197816">
        <ele>24.1703</ele>
        <time>2012-04-29T10:37:52Z</time>
      </trkpt>
      <trkpt lat="59.946302" lon="17.4209107">
        <ele>18.4023</ele>
        <time>2012-04-29T10:38:01Z</time>
      </trkpt>
      <trkpt lat="59.9459493" lon="17.4222426">
        <ele>23.209</ele>
        <time>2012-04-29T10:38:11Z</time>
      </trkpt>
      <trkpt lat="59.9457043" lon="17.4232993">
        <ele>31.3801</ele>
        <time>2012-04-29T10:38:19Z</time>
      </trkpt>
      <trkpt lat="59.9453945" lon="17.4246748">
        <ele>36.1868</ele>
        <time>2012-04-29T10:38:29Z</time>
      </trkpt>
      <trkpt lat="59.9450852" lon="17.4260535">
        <ele>38.1094</ele>
        <time>2012-04-29T10:38:39Z</time>
      </trkpt>
      <trkpt lat="59.9447363" lon="17.4276629">
        <ele>44.358</ele>
        <time>2012-04-29T10:38:51Z</time>
      </trkpt>
      <trkpt lat="59.9444944" lon="17.4288306">
        <ele>51.5679</ele>
        <time>2012-04-29T10:39:00Z</time>
      </trkpt>
      <trkpt lat="59.9442049" lon="17.4300956">
        <ele>57.8165</ele>
        <time>2012-04-29T10:39:10Z</time>
      </trkpt>
      <trkpt lat="59.9439502" lon="17.4311637">
        <ele>54.9324</ele>
        <time>2012-04-29T10:39:19Z</time>
      </trkpt>
      <trkpt lat="59.9436668" lon="17.4322583">
        <ele>52.0486</ele>
        <time>2012-04-29T10:39:29Z</time>
      </trkpt>
      <trkpt lat="59.9434151" lon="17.4331363">
        <ele>45.7999</ele>
        <time>2012-04-29T10:39:37Z</time>
      </trkpt>
      <trkpt lat="59.9430907" lon="17.4342498">
        <ele>44.8386</ele>
        <time>2012-04-29T10:39:47Z</time>
      </trkpt>
      <trkpt lat="59.9427731" lon="17.4353302">
        <ele>48.684</ele>
        <time>2012-04-29T10:39:57Z</time>
      </trkpt>
      <trkpt lat="59.9424317" lon="17.4363885">
        <ele>48.684</ele>
        <time>2012-04-29T10:40:07Z</time>
      </trkpt>
      <trkpt lat="59.942117" lon="17.4373146">
        <ele>46.2806</ele>
        <time>2012-04-29T10:40:16Z</time>
      </trkpt>
      <trkpt lat="59.941803" lon="17.438221">
        <ele>42.916</ele>
        <time>2012-04-29T10:40:25Z</time>
      </trkpt>
      <trkpt lat="59.9414863" lon="17.4391815">
        <ele>41.9547</ele>
        <time>2012-04-29T10:40:34Z</time>
      </trkpt>
      <trkpt lat="59.9412114" lon="17.4400362">
        <ele>44.8386</ele>
        <time>2012-04-29T10:40:42Z</time>
      </trkpt>
      <trkpt lat="59.9408459" lon="17.4411426">
        <ele>44.8386</ele>
        <time>2012-04-29T10:40:52Z</time>
      </trkpt>
      <trkpt lat="59.9405162" lon="17.4421994">
        <ele>47.2418</ele>
        <time>2012-04-29T10:41:01Z</time>
      </trkpt>
      <trkpt lat="59.9401879" lon="17.4432746">
        <ele>47.2418</ele>
        <time>2012-04-29T10:41:10Z</time>
      </trkpt>
      <trkpt lat="59.9398444" lon="17.4443994">
        <ele>43.8773</ele>
        <time>2012-04-29T10:41:20Z</time>
      </trkpt>
      <trkpt lat="59.9395004" lon="17.4455989">
        <ele>40.5128</ele>
        <time>2012-04-29T10:41:30Z</time>
      </trkpt>
      <trkpt lat="59.9390829" lon="17.4471002">
        <ele>39.0707</ele>
        <time>2012-04-29T10:41:42Z</time>
      </trkpt>
      <trkpt lat="59.9388202" lon="17.4480607">
        <ele>37.6287</ele>
        <time>2012-04-29T10:41:50Z</time>
      </trkpt>
      <trkpt lat="59.9384987" lon="17.4493475">
        <ele>47.7225</ele>
        <time>2012-04-29T10:42:01Z</time>
      </trkpt>
      <trkpt lat="59.9382376" lon="17.4503524">
        <ele>42.916</ele>
        <time>2012-04-29T10:42:10Z</time>
      </trkpt>
      <trkpt lat="59.9380357" lon="17.4511929">
        <ele>44.8386</ele>
        <time>2012-04-29T10:42:17Z</time>
      </trkpt>
      <trkpt lat="59.9377652" lon="17.4523209">
        <ele>43.8773</ele>
        <time>2012-04-29T10:42:26Z</time>
      </trkpt>
      <trkpt lat="59.9375864" lon="17.4531287">
        <ele>44.8386</ele>
        <time>2012-04-29T10:42:33Z</time>
      </trkpt>
      <trkpt lat="59.9372969" lon="17.4543793">
        <ele>35.2255</ele>
        <time>2012-04-29T10:42:44Z</time>
      </trkpt>
      <trkpt lat="59.9371197" lon="17.4551773">
        <ele>33.3029</ele>
        <time>2012-04-29T10:42:51Z</time>
      </trkpt>
      <trkpt lat="59.9369763" lon="17.4558504">
        <ele>32.8223</ele>
        <time>2012-04-29T10:42:57Z</time>
      </trkpt>
      <trkpt lat="59.9368327" lon="17.4565354">
        <ele>35.2255</ele>
        <time>2012-04-29T10:43:03Z</time>
      </trkpt>
      <trkpt lat="59.9366219" lon="17.4576118">
        <ele>39.5513</ele>
        <time>2012-04-29T10:43:12Z</time>
      </trkpt>
      <trkpt lat="59.9363308" lon="17.4590959">
        <ele>43.3966</ele>
        <time>2012-04-29T10:43:24Z</time>
      </trkpt>
      <trkpt lat="59.9360498" lon="17.4606197">
        <ele>46.7612</ele>
        <time>2012-04-29T10:43:36Z</time>
      </trkpt>
      <trkpt lat="59.9357659" lon="17.4621677">
        <ele>44.358</ele>
        <time>2012-04-29T10:43:48Z</time>
      </trkpt>
      <trkpt lat="59.9355284" lon="17.4635682">
        <ele>42.916</ele>
        <time>2012-04-29T10:43:59Z</time>
      </trkpt>
      <trkpt lat="59.9352938" lon="17.4649775">
        <ele>42.4354</ele>
        <time>2012-04-29T10:44:10Z</time>
      </trkpt>
      <trkpt lat="59.9350342" lon="17.4666309">
        <ele>43.3966</ele>
        <time>2012-04-29T10:44:23Z</time>
      </trkpt>
      <trkpt lat="59.9348229" lon="17.4680524">
        <ele>44.8386</ele>
        <time>2012-04-29T10:44:35Z</time>
      </trkpt>
      <trkpt lat="59.9346757" lon="17.4690584">
        <ele>44.8386</ele>
        <time>2012-04-29T10:44:44Z</time>
      </trkpt>
      <trkpt lat="59.9345025" lon="17.4702528">
        <ele>44.8386</ele>
        <time>2012-04-29T10:44:55Z</time>
      </trkpt>
      <trkpt lat="59.9343275" lon="17.4715654">
        <ele>41.474</ele>
        <time>2012-04-29T10:45:07Z</time>
      </trkpt>
      <trkpt lat="59.9341843" lon="17.4727254">
        <ele>37.1481</ele>
        <time>2012-04-29T10:45:17Z</time>
      </trkpt>
      <trkpt lat="59.9340117" lon="17.4741114">
        <ele>34.2642</ele>
        <time>2012-04-29T10:45:29Z</time>
      </trkpt>
      <trkpt lat="59.9338822" lon="17.4751695">
        <ele>34.2642</ele>
        <time>2012-04-29T10:45:38Z</time>
      </trkpt>
      <trkpt lat="59.9337481" lon="17.4761378">
        <ele>35.7061</ele>
        <time>2012-04-29T10:45:46Z</time>
      </trkpt>
      <trkpt lat="59.9335988" lon="17.4772418">
        <ele>38.1094</ele>
        <time>2012-04-29T10:45:55Z</time>
      </trkpt>
      <trkpt lat="59.9334945" lon="17.4780177">
        <ele>34.7449</ele>
        <time>2012-04-29T10:46:02Z</time>
      </trkpt>
      <trkpt lat="59.9333631" lon="17.4790122">
        <ele>34.7449</ele>
        <time>2012-04-29T10:46:11Z</time>
      </trkpt>
      <trkpt lat="59.9331987" lon="17.4800288">
        <ele>32.3416</ele>
        <time>2012-04-29T10:46:20Z</time>
      </trkpt>
      <trkpt lat="59.9330268" lon="17.4810251">
        <ele>31.3801</ele>
        <time>2012-04-29T10:46:29Z</time>
      </trkpt>
      <trkpt lat="59.9328123" lon="17.4820385">
        <ele>30.4188</ele>
        <time>2012-04-29T10:46:38Z</time>
      </trkpt>
      <trkpt lat="59.9325854" lon="17.4830425">
        <ele>29.9381</ele>
        <time>2012-04-29T10:46:47Z</time>
      </trkpt>
      <trkpt lat="59.932301" lon="17.4841596">
        <ele>31.3801</ele>
        <time>2012-04-29T10:46:57Z</time>
      </trkpt>
      <trkpt lat="59.9320299" lon="17.4851721">
        <ele>35.7061</ele>
        <time>2012-04-29T10:47:06Z</time>
      </trkpt>
      <trkpt lat="59.9316921" lon="17.4862755">
        <ele>35.7061</ele>
        <time>2012-04-29T10:47:16Z</time>
      </trkpt>
      <trkpt lat="59.9312968" lon="17.4874365">
        <ele>34.7449</ele>
        <time>2012-04-29T10:47:26Z</time>
      </trkpt>
      <trkpt lat="59.9309968" lon="17.4882719">
        <ele>39.5513</ele>
        <time>2012-04-29T10:47:33Z</time>
      </trkpt>
      <trkpt lat="59.9306015" lon="17.4892542">
        <ele>38.1094</ele>
        <time>2012-04-29T10:47:42Z</time>
      </trkpt>
      <trkpt lat="59.9300933" lon="17.4903519">
        <ele>34.2642</ele>
        <time>2012-04-29T10:47:52Z</time>
      </trkpt>
      <trkpt lat="59.9295807" lon="17.4914234">
        <ele>36.1868</ele>
        <time>2012-04-29T10:48:01Z</time>
      </trkpt>
      <trkpt lat="59.9290196" lon="17.4924854">
        <ele>39.5513</ele>
        <time>2012-04-29T10:48:10Z</time>
      </trkpt>
      <trkpt lat="59.9283042" lon="17.4936393">
        <ele>36.1868</ele>
        <time>2012-04-29T10:48:21Z</time>
      </trkpt>
      <trkpt lat="59.9276096" lon="17.4946421">
        <ele>37.6287</ele>
        <time>2012-04-29T10:48:31Z</time>
      </trkpt>
      <trkpt lat="59.9271366" lon="17.4952489">
        <ele>39.5513</ele>
        <time>2012-04-29T10:48:38Z</time>
      </trkpt>
      <trkpt lat="59.9264089" lon="17.4961326">
        <ele>40.9934</ele>
        <time>2012-04-29T10:48:49Z</time>
      </trkpt>
      <trkpt lat="59.925668" lon="17.4970034">
        <ele>40.9934</ele>
        <time>2012-04-29T10:49:00Z</time>
      </trkpt>
      <trkpt lat="59.9250889" lon="17.4976765">
        <ele>40.0321</ele>
        <time>2012-04-29T10:49:09Z</time>
      </trkpt>
      <trkpt lat="59.9245243" lon="17.4983445">
        <ele>40.5128</ele>
        <time>2012-04-29T10:49:18Z</time>
      </trkpt>
      <trkpt lat="59.9238903" lon="17.499091">
        <ele>40.0321</ele>
        <time>2012-04-29T10:49:28Z</time>
      </trkpt>
      <trkpt lat="59.9234665" lon="17.4995808">
        <ele>37.6287</ele>
        <time>2012-04-29T10:49:35Z</time>
      </trkpt>
      <trkpt lat="59.9229521" lon="17.5002019">
        <ele>38.1094</ele>
        <time>2012-04-29T10:49:44Z</time>
      </trkpt>
      <trkpt lat="59.922293" lon="17.5009786">
        <ele>31.8607</ele>
        <time>2012-04-29T10:49:55Z</time>
      </trkpt>
      <trkpt lat="59.9218327" lon="17.5015855">
        <ele>29.4575</ele>
        <time>2012-04-29T10:50:03Z</time>
      </trkpt>
      <trkpt lat="59.9214124" lon="17.5021984">
        <ele>27.0543</ele>
        <time>2012-04-29T10:50:10Z</time>
      </trkpt>
      <trkpt lat="59.920859" lon="17.5031112">
        <ele>28.0155</ele>
        <time>2012-04-29T10:50:19Z</time>
      </trkpt>
      <trkpt lat="59.9202928" lon="17.5041404">
        <ele>29.4575</ele>
        <time>2012-04-29T10:50:28Z</time>
      </trkpt>
      <trkpt lat="59.919713" lon="17.5053092">
        <ele>28.4962</ele>
        <time>2012-04-29T10:50:38Z</time>
      </trkpt>
      <trkpt lat="59.9191111" lon="17.5067036">
        <ele>27.5349</ele>
        <time>2012-04-29T10:50:49Z</time>
      </trkpt>
      <trkpt lat="59.9186434" lon="17.5078896">
        <ele>25.1317</ele>
        <time>2012-04-29T10:50:58Z</time>
      </trkpt>
      <trkpt lat="59.9183092" lon="17.5088709">
        <ele>26.0929</ele>
        <time>2012-04-29T10:51:06Z</time>
      </trkpt>
      <trkpt lat="59.9179254" lon="17.5101168">
        <ele>25.6123</ele>
        <time>2012-04-29T10:51:16Z</time>
      </trkpt>
      <trkpt lat="59.9175943" lon="17.5112953">
        <ele>26.0929</ele>
        <time>2012-04-29T10:51:25Z</time>
      </trkpt>
      <trkpt lat="59.9171966" lon="17.5127679">
        <ele>24.651</ele>
        <time>2012-04-29T10:51:36Z</time>
      </trkpt>
      <trkpt lat="59.9168869" lon="17.513921">
        <ele>23.6896</ele>
        <time>2012-04-29T10:51:45Z</time>
      </trkpt>
      <trkpt lat="59.9165149" lon="17.5152869">
        <ele>22.2476</ele>
        <time>2012-04-29T10:51:56Z</time>
      </trkpt>
      <trkpt lat="59.9162004" lon="17.5164378">
        <ele>21.2864</ele>
        <time>2012-04-29T10:52:06Z</time>
      </trkpt>
      <trkpt lat="59.9157492" lon="17.5180837">
        <ele>18.8831</ele>
        <time>2012-04-29T10:52:20Z</time>
      </trkpt>
      <trkpt lat="59.9154026" lon="17.5193413">
        <ele>18.4023</ele>
        <time>2012-04-29T10:52:30Z</time>
      </trkpt>
      <trkpt lat="59.91505" lon="17.5206416">
        <ele>16.9604</ele>
        <time>2012-04-29T10:52:40Z</time>
      </trkpt>
      <trkpt lat="59.9146593" lon="17.5220608">
        <ele>14.557</ele>
        <time>2012-04-29T10:52:51Z</time>
      </trkpt>
      <trkpt lat="59.9144305" lon="17.5229091">
        <ele>13.5958</ele>
        <time>2012-04-29T10:52:58Z</time>
      </trkpt>
      <trkpt lat="59.9141029" lon="17.5241145">
        <ele>12.1538</ele>
        <time>2012-04-29T10:53:08Z</time>
      </trkpt>
      <trkpt lat="59.9137108" lon="17.5255539">
        <ele>10.7118</ele>
        <time>2012-04-29T10:53:20Z</time>
      </trkpt>
      <trkpt lat="59.9133403" lon="17.5269125">
        <ele>9.2699</ele>
        <time>2012-04-29T10:53:31Z</time>
      </trkpt>
      <trkpt lat="59.9129022" lon="17.5284023">
        <ele>7.82788</ele>
        <time>2012-04-29T10:53:44Z</time>
      </trkpt>
      <trkpt lat="59.9124412" lon="17.5297597">
        <ele>4.94385</ele>
        <time>2012-04-29T10:53:56Z</time>
      </trkpt>
      <trkpt lat="59.9119722" lon="17.531006">
        <ele>3.98267</ele>
        <time>2012-04-29T10:54:07Z</time>
      </trkpt>
      <trkpt lat="59.9116909" lon="17.5317277">
        <ele>5.90527</ele>
        <time>2012-04-29T10:54:14Z</time>
      </trkpt>
      <trkpt lat="59.9112668" lon="17.5327249">
        <ele>6.38586</ele>
        <time>2012-04-29T10:54:24Z</time>
      </trkpt>
      <trkpt lat="59.9108467" lon="17.533607">
        <ele>5.90527</ele>
        <time>2012-04-29T10:54:33Z</time>
      </trkpt>
      <trkpt lat="59.9105093" lon="17.5342803">
        <ele>5.90527</ele>
        <time>2012-04-29T10:54:40Z</time>
      </trkpt>
      <trkpt lat="59.9101257" lon="17.5350249">
        <ele>8.30859</ele>
        <time>2012-04-29T10:54:48Z</time>
      </trkpt>
      <trkpt lat="59.9098174" lon="17.5355479">
        <ele>7.82788</ele>
        <time>2012-04-29T10:54:55Z</time>
      </trkpt>
      <trkpt lat="59.9094159" lon="17.5362167">
        <ele>8.30859</ele>
        <time>2012-04-29T10:55:03Z</time>
      </trkpt>
      <trkpt lat="59.9090456" lon="17.5368206">
        <ele>11.1925</ele>
        <time>2012-04-29T10:55:10Z</time>
      </trkpt>
      <trkpt lat="59.9085705" lon="17.5375692">
        <ele>19.3638</ele>
        <time>2012-04-29T10:55:19Z</time>
      </trkpt>
      <trkpt lat="59.9081107" lon="17.5381928">
        <ele>23.209</ele>
        <time>2012-04-29T10:55:27Z</time>
      </trkpt>
      <trkpt lat="59.9076409" lon="17.5387796">
        <ele>25.1317</ele>
        <time>2012-04-29T10:55:35Z</time>
      </trkpt>
      <trkpt lat="59.9070544" lon="17.5394333">
        <ele>25.1317</ele>
        <time>2012-04-29T10:55:45Z</time>
      </trkpt>
      <trkpt lat="59.9065214" lon="17.5399619">
        <ele>24.1703</ele>
        <time>2012-04-29T10:55:54Z</time>
      </trkpt>
      <trkpt lat="59.9059843" lon="17.5404608">
        <ele>24.651</ele>
        <time>2012-04-29T10:56:03Z</time>
      </trkpt>
      <trkpt lat="59.905453" lon="17.5409507">
        <ele>24.651</ele>
        <time>2012-04-29T10:56:12Z</time>
      </trkpt>
      <trkpt lat="59.904972" lon="17.5413938">
        <ele>24.1703</ele>
        <time>2012-04-29T10:56:20Z</time>
      </trkpt>
      <trkpt lat="59.904429" lon="17.5418882">
        <ele>24.1703</ele>
        <time>2012-04-29T10:56:29Z</time>
      </trkpt>
      <trkpt lat="59.903993" lon="17.5422876">
        <ele>23.209</ele>
        <time>2012-04-29T10:56:37Z</time>
      </trkpt>
      <trkpt lat="59.9034761" lon="17.5427725">
        <ele>23.6896</ele>
        <time>2012-04-29T10:56:46Z</time>
      </trkpt>
      <trkpt lat="59.9030239" lon="17.5431885">
        <ele>23.6896</ele>
        <time>2012-04-29T10:56:54Z</time>
      </trkpt>
      <trkpt lat="59.9024821" lon="17.5436895">
        <ele>23.6896</ele>
        <time>2012-04-29T10:57:03Z</time>
      </trkpt>
      <trkpt lat="59.9019632" lon="17.5441665">
        <ele>23.6896</ele>
        <time>2012-04-29T10:57:12Z</time>
      </trkpt>
      <trkpt lat="59.9014624" lon="17.5446323">
        <ele>23.6896</ele>
        <time>2012-04-29T10:57:21Z</time>
      </trkpt>
      <trkpt lat="59.900956" lon="17.5451016">
        <ele>24.1703</ele>
        <time>2012-04-29T10:57:30Z</time>
      </trkpt>
      <trkpt lat="59.9003451" lon="17.5456652">
        <ele>20.8057</ele>
        <time>2012-04-29T10:57:41Z</time>
      </trkpt>
      <trkpt lat="59.8998686" lon="17.5461067">
        <ele>19.3638</ele>
        <time>2012-04-29T10:57:49Z</time>
      </trkpt>
      <trkpt lat="59.899476" lon="17.5464468">
        <ele>20.325</ele>
        <time>2012-04-29T10:57:56Z</time>
      </trkpt>
      <trkpt lat="59.8993416" lon="17.5465348">
        <ele>20.325</ele>
        <time>2012-04-29T10:57:59Z</time>
      </trkpt>
      <trkpt lat="59.8992903" lon="17.5465624">
        <ele>19.3638</ele>
        <time>2012-04-29T10:58:03Z</time>
      </trkpt>
      <trkpt lat="59.8992908" lon="17.546581">
        <ele>13.1151</ele>
        <time>2012-04-29T10:59:22Z</time>
      </trkpt>
      <trkpt lat="59.8992771" lon="17.5466047">
        <ele>13.1151</ele>
        <time>2012-04-29T10:59:23Z</time>
      </trkpt>
      <trkpt lat="59.8991281" lon="17.5467939">
        <ele>13.5958</ele>
        <time>2012-04-29T10:59:27Z</time>
      </trkpt>
      <trkpt lat="59.8988847" lon="17.5470213">
        <ele>13.5958</ele>
        <time>2012-04-29T10:59:32Z</time>
      </trkpt>
      <trkpt lat="59.8983584" lon="17.5475264">
        <ele>14.0764</ele>
        <time>2012-04-29T10:59:41Z</time>
      </trkpt>
      <trkpt lat="59.8977917" lon="17.5480926">
        <ele>15.5184</ele>
        <time>2012-04-29T10:59:50Z</time>
      </trkpt>
      <trkpt lat="59.8972253" lon="17.5486829">
        <ele>18.4023</ele>
        <time>2012-04-29T10:59:59Z</time>
      </trkpt>
      <trkpt lat="59.8966164" lon="17.5492923">
        <ele>16.9604</ele>
        <time>2012-04-29T11:00:08Z</time>
      </trkpt>
      <trkpt lat="59.8958829" lon="17.5501285">
        <ele>19.3638</ele>
        <time>2012-04-29T11:00:19Z</time>
      </trkpt>
      <trkpt lat="59.8953106" lon="17.5507939">
        <ele>21.2864</ele>
        <time>2012-04-29T11:00:27Z</time>
      </trkpt>
      <trkpt lat="59.894646" lon="17.551541">
        <ele>22.2476</ele>
        <time>2012-04-29T11:00:36Z</time>
      </trkpt>
      <trkpt lat="59.8940486" lon="17.5522561">
        <ele>21.2864</ele>
        <time>2012-04-29T11:00:45Z</time>
      </trkpt>
      <trkpt lat="59.8934851" lon="17.5529223">
        <ele>20.325</ele>
        <time>2012-04-29T11:00:54Z</time>
      </trkpt>
      <trkpt lat="59.8929443" lon="17.5535655">
        <ele>19.3638</ele>
        <time>2012-04-29T11:01:03Z</time>
      </trkpt>
      <trkpt lat="59.8922104" lon="17.5544833">
        <ele>18.8831</ele>
        <time>2012-04-29T11:01:15Z</time>
      </trkpt>
      <trkpt lat="59.8917134" lon="17.5551">
        <ele>19.8444</ele>
        <time>2012-04-29T11:01:23Z</time>
      </trkpt>
      <trkpt lat="59.8910447" lon="17.5559648">
        <ele>20.325</ele>
        <time>2012-04-29T11:01:34Z</time>
      </trkpt>
      <trkpt lat="59.8903427" lon="17.5569179">
        <ele>20.8057</ele>
        <time>2012-04-29T11:01:46Z</time>
      </trkpt>
      <trkpt lat="59.8896772" lon="17.5578136">
        <ele>19.8444</ele>
        <time>2012-04-29T11:01:57Z</time>
      </trkpt>
      <trkpt lat="59.8891047" lon="17.5586267">
        <ele>19.8444</ele>
        <time>2012-04-29T11:02:07Z</time>
      </trkpt>
      <trkpt lat="59.8886172" lon="17.5593541">
        <ele>21.2864</ele>
        <time>2012-04-29T11:02:16Z</time>
      </trkpt>
      <trkpt lat="59.8881169" lon="17.5600974">
        <ele>22.2476</ele>
        <time>2012-04-29T11:02:25Z</time>
      </trkpt>
      <trkpt lat="59.8876378" lon="17.5608236">
        <ele>24.1703</ele>
        <time>2012-04-29T11:02:33Z</time>
      </trkpt>
      <trkpt lat="59.8871482" lon="17.5615893">
        <ele>23.6896</ele>
        <time>2012-04-29T11:02:41Z</time>
      </trkpt>
      <trkpt lat="59.88671" lon="17.5622504">
        <ele>22.7283</ele>
        <time>2012-04-29T11:02:48Z</time>
      </trkpt>
      <trkpt lat="59.8862608" lon="17.5629465">
        <ele>22.2476</ele>
        <time>2012-04-29T11:02:55Z</time>
      </trkpt>
      <trkpt lat="59.8855394" lon="17.5640798">
        <ele>18.8831</ele>
        <time>2012-04-29T11:03:06Z</time>
      </trkpt>
      <trkpt lat="59.8848841" lon="17.5651408">
        <ele>18.4023</ele>
        <time>2012-04-29T11:03:16Z</time>
      </trkpt>
      <trkpt lat="59.8842954" lon="17.5661198">
        <ele>16.4797</ele>
        <time>2012-04-29T11:03:25Z</time>
      </trkpt>
      <trkpt lat="59.8836901" lon="17.5671713">
        <ele>15.0377</ele>
        <time>2012-04-29T11:03:35Z</time>
      </trkpt>
      <trkpt lat="59.8831082" lon="17.5682675">
        <ele>15.999</ele>
        <time>2012-04-29T11:03:45Z</time>
      </trkpt>
      <trkpt lat="59.8826541" lon="17.5691217">
        <ele>15.5184</ele>
        <time>2012-04-29T11:03:53Z</time>
      </trkpt>
      <trkpt lat="59.8826054" lon="17.5692305">
        <ele>15.5184</ele>
        <time>2012-04-29T11:03:54Z</time>
      </trkpt>
      <trkpt lat="59.8824929" lon="17.5696087">
        <ele>15.5184</ele>
        <time>2012-04-29T11:03:57Z</time>
      </trkpt>
      <trkpt lat="59.8822278" lon="17.5702613">
        <ele>15.999</ele>
        <time>2012-04-29T11:04:03Z</time>
      </trkpt>
      <trkpt lat="59.8821863" lon="17.57061">
        <ele>16.4797</ele>
        <time>2012-04-29T11:04:06Z</time>
      </trkpt>
      <trkpt lat="59.8822897" lon="17.5708845">
        <ele>15.999</ele>
        <time>2012-04-29T11:04:09Z</time>
      </trkpt>
      <trkpt lat="59.8826541" lon="17.5715218">
        <ele>14.557</ele>
        <time>2012-04-29T11:04:17Z</time>
      </trkpt>
      <trkpt lat="59.8829633" lon="17.5720884">
        <ele>14.0764</ele>
        <time>2012-04-29T11:04:24Z</time>
      </trkpt>
      <trkpt lat="59.8833684" lon="17.5727975">
        <ele>13.5958</ele>
        <time>2012-04-29T11:04:33Z</time>
      </trkpt>
      <trkpt lat="59.8837234" lon="17.5734523">
        <ele>13.5958</ele>
        <time>2012-04-29T11:04:41Z</time>
      </trkpt>
      <trkpt lat="59.8842168" lon="17.5743074">
        <ele>18.8831</ele>
        <time>2012-04-29T11:04:52Z</time>
      </trkpt>
      <trkpt lat="59.8846436" lon="17.5750882">
        <ele>21.2864</ele>
        <time>2012-04-29T11:05:02Z</time>
      </trkpt>
      <trkpt lat="59.8850701" lon="17.5758401">
        <ele>23.209</ele>
        <time>2012-04-29T11:05:12Z</time>
      </trkpt>
      <trkpt lat="59.8855566" lon="17.5767458">
        <ele>19.3638</ele>
        <time>2012-04-29T11:05:24Z</time>
      </trkpt>
      <trkpt lat="59.8860311" lon="17.5776104">
        <ele>15.5184</ele>
        <time>2012-04-29T11:05:35Z</time>
      </trkpt>
      <trkpt lat="59.8862491" lon="17.5780093">
        <ele>15.0377</ele>
        <time>2012-04-29T11:05:40Z</time>
      </trkpt>
      <trkpt lat="59.8862773" lon="17.5783857">
        <ele>14.0764</ele>
        <time>2012-04-29T11:05:44Z</time>
      </trkpt>
      <trkpt lat="59.8861666" lon="17.5790938">
        <ele>15.999</ele>
        <time>2012-04-29T11:05:51Z</time>
      </trkpt>
      <trkpt lat="59.8860679" lon="17.5798071">
        <ele>17.4412</ele>
        <time>2012-04-29T11:05:57Z</time>
      </trkpt>
      <trkpt lat="59.8860629" lon="17.5799309">
        <ele>16.9604</ele>
        <time>2012-04-29T11:05:58Z</time>
      </trkpt>
      <trkpt lat="59.8858003" lon="17.5805107">
        <ele>15.5184</ele>
        <time>2012-04-29T11:06:03Z</time>
      </trkpt>
      <trkpt lat="59.8853699" lon="17.5812572">
        <ele>15.999</ele>
        <time>2012-04-29T11:06:11Z</time>
      </trkpt>
      <trkpt lat="59.8851491" lon="17.5819842">
        <ele>16.9604</ele>
        <time>2012-04-29T11:06:17Z</time>
      </trkpt>
      <trkpt lat="59.8850251" lon="17.5824988">
        <ele>17.4412</ele>
        <time>2012-04-29T11:06:21Z</time>
      </trkpt>
      <trkpt lat="59.8848602" lon="17.5829297">
        <ele>16.4797</ele>
        <time>2012-04-29T11:06:25Z</time>
      </trkpt>
      <trkpt lat="59.8848018" lon="17.5833587">
        <ele>16.4797</ele>
        <time>2012-04-29T11:06:28Z</time>
      </trkpt>
      <trkpt lat="59.8847602" lon="17.583481">
        <ele>16.4797</ele>
        <time>2012-04-29T11:06:29Z</time>
      </trkpt>
      <trkpt lat="59.8843304" lon="17.5845031">
        <ele>16.9604</ele>
        <time>2012-04-29T11:06:38Z</time>
      </trkpt>
      <trkpt lat="59.8840799" lon="17.585236">
        <ele>17.4412</ele>
        <time>2012-04-29T11:06:44Z</time>
      </trkpt>
      <trkpt lat="59.8837756" lon="17.5862542">
        <ele>16.9604</ele>
        <time>2012-04-29T11:06:52Z</time>
      </trkpt>
      <trkpt lat="59.8835392" lon="17.5869634">
        <ele>17.4412</ele>
        <time>2012-04-29T11:06:58Z</time>
      </trkpt>
      <trkpt lat="59.88319" lon="17.5876652">
        <ele>17.9218</ele>
        <time>2012-04-29T11:07:05Z</time>
      </trkpt>
      <trkpt lat="59.8828139" lon="17.5882506">
        <ele>16.9604</ele>
        <time>2012-04-29T11:07:12Z</time>
      </trkpt>
      <trkpt lat="59.8825456" lon="17.58889">
        <ele>16.4797</ele>
        <time>2012-04-29T11:07:18Z</time>
      </trkpt>
      <trkpt lat="59.8824076" lon="17.589363">
        <ele>15.999</ele>
        <time>2012-04-29T11:07:22Z</time>
      </trkpt>
      <trkpt lat="59.8822619" lon="17.5900398">
        <ele>14.557</ele>
        <time>2012-04-29T11:07:28Z</time>
      </trkpt>
      <trkpt lat="59.8820739" lon="17.5905389">
        <ele>14.0764</ele>
        <time>2012-04-29T11:07:33Z</time>
      </trkpt>
      <trkpt lat="59.8818293" lon="17.5911874">
        <ele>15.0377</ele>
        <time>2012-04-29T11:07:39Z</time>
      </trkpt>
      <trkpt lat="59.8816813" lon="17.5919535">
        <ele>16.9604</ele>
        <time>2012-04-29T11:07:45Z</time>
      </trkpt>
      <trkpt lat="59.8816029" lon="17.5927819">
        <ele>17.9218</ele>
        <time>2012-04-29T11:07:51Z</time>
      </trkpt>
      <trkpt lat="59.8814451" lon="17.5934107">
        <ele>17.9218</ele>
        <time>2012-04-29T11:07:56Z</time>
      </trkpt>
      <trkpt lat="59.8811796" lon="17.5944414">
        <ele>18.4023</ele>
        <time>2012-04-29T11:08:04Z</time>
      </trkpt>
      <trkpt lat="59.8810817" lon="17.5952424">
        <ele>18.4023</ele>
        <time>2012-04-29T11:08:10Z</time>
      </trkpt>
      <trkpt lat="59.8808751" lon="17.5958778">
        <ele>17.9218</ele>
        <time>2012-04-29T11:08:15Z</time>
      </trkpt>
      <trkpt lat="59.880816" lon="17.5959868">
        <ele>17.9218</ele>
        <time>2012-04-29T11:08:16Z</time>
      </trkpt>
      <trkpt lat="59.8807073" lon="17.5961562">
        <ele>17.4412</ele>
        <time>2012-04-29T11:08:18Z</time>
      </trkpt>
      <trkpt lat="59.8804473" lon="17.5967323">
        <ele>16.4797</ele>
        <time>2012-04-29T11:08:24Z</time>
      </trkpt>
      <trkpt lat="59.8801049" lon="17.5975642">
        <ele>14.0764</ele>
        <time>2012-04-29T11:08:32Z</time>
      </trkpt>
      <trkpt lat="59.8797945" lon="17.5983712">
        <ele>13.5958</ele>
        <time>2012-04-29T11:08:39Z</time>
      </trkpt>
      <trkpt lat="59.879412" lon="17.5991471">
        <ele>14.0764</ele>
        <time>2012-04-29T11:08:46Z</time>
      </trkpt>
      <trkpt lat="59.8793554" lon="17.5992435">
        <ele>14.0764</ele>
        <time>2012-04-29T11:08:47Z</time>
      </trkpt>
      <trkpt lat="59.879172" lon="17.5994802">
        <ele>14.557</ele>
        <time>2012-04-29T11:08:50Z</time>
      </trkpt>
      <trkpt lat="59.8789058" lon="17.6000335">
        <ele>15.5184</ele>
        <time>2012-04-29T11:08:55Z</time>
      </trkpt>
      <trkpt lat="59.878611" lon="17.6006814">
        <ele>15.5184</ele>
        <time>2012-04-29T11:09:01Z</time>
      </trkpt>
      <trkpt lat="59.878444" lon="17.6009584">
        <ele>15.0377</ele>
        <time>2012-04-29T11:09:04Z</time>
      </trkpt>
      <trkpt lat="59.8779718" lon="17.6014082">
        <ele>15.0377</ele>
        <time>2012-04-29T11:09:11Z</time>
      </trkpt>
      <trkpt lat="59.8776392" lon="17.6017791">
        <ele>14.557</ele>
        <time>2012-04-29T11:09:16Z</time>
      </trkpt>
      <trkpt lat="59.8775147" lon="17.6021434">
        <ele>14.0764</ele>
        <time>2012-04-29T11:09:19Z</time>
      </trkpt>
      <trkpt lat="59.8774709" lon="17.6027375">
        <ele>13.1151</ele>
        <time>2012-04-29T11:09:23Z</time>
      </trkpt>
      <trkpt lat="59.8773092" lon="17.6030763">
        <ele>12.6344</ele>
        <time>2012-04-29T11:09:26Z</time>
      </trkpt>
      <trkpt lat="59.8767626" lon="17.6040811">
        <ele>11.6732</ele>
        <time>2012-04-29T11:09:36Z</time>
      </trkpt>
      <trkpt lat="59.8764193" lon="17.6048156">
        <ele>10.2312</ele>
        <time>2012-04-29T11:09:43Z</time>
      </trkpt>
      <trkpt lat="59.8762019" lon="17.6052765">
        <ele>12.1538</ele>
        <time>2012-04-29T11:09:48Z</time>
      </trkpt>
      <trkpt lat="59.8759598" lon="17.6053302">
        <ele>12.6344</ele>
        <time>2012-04-29T11:09:52Z</time>
      </trkpt>
      <trkpt lat="59.8756937" lon="17.6053156">
        <ele>12.1538</ele>
        <time>2012-04-29T11:09:56Z</time>
      </trkpt>
      <trkpt lat="59.875434" lon="17.6051867">
        <ele>12.1538</ele>
        <time>2012-04-29T11:10:00Z</time>
      </trkpt>
      <trkpt lat="59.875331" lon="17.6050122">
        <ele>12.1538</ele>
        <time>2012-04-29T11:10:02Z</time>
      </trkpt>
      <trkpt lat="59.8747766" lon="17.6038411">
        <ele>8.78918</ele>
        <time>2012-04-29T11:10:14Z</time>
      </trkpt>
      <trkpt lat="59.8743172" lon="17.6029555">
        <ele>7.82788</ele>
        <time>2012-04-29T11:10:23Z</time>
      </trkpt>
      <trkpt lat="59.8737988" lon="17.6020343">
        <ele>9.75061</ele>
        <time>2012-04-29T11:10:33Z</time>
      </trkpt>
      <trkpt lat="59.8734709" lon="17.6015242">
        <ele>12.1538</ele>
        <time>2012-04-29T11:10:39Z</time>
      </trkpt>
      <trkpt lat="59.8734214" lon="17.6014289">
        <ele>12.1538</ele>
        <time>2012-04-29T11:10:40Z</time>
      </trkpt>
      <trkpt lat="59.8732906" lon="17.6008317">
        <ele>14.557</ele>
        <time>2012-04-29T11:10:45Z</time>
      </trkpt>
      <trkpt lat="59.8732829" lon="17.6006982">
        <ele>15.0377</ele>
        <time>2012-04-29T11:10:46Z</time>
      </trkpt>
      <trkpt lat="59.8733119" lon="17.5997953">
        <ele>17.4412</ele>
        <time>2012-04-29T11:10:53Z</time>
      </trkpt>
      <trkpt lat="59.8732194" lon="17.5990249">
        <ele>16.9604</ele>
        <time>2012-04-29T11:10:59Z</time>
      </trkpt>
      <trkpt lat="59.8730463" lon="17.5985005">
        <ele>17.4412</ele>
        <time>2012-04-29T11:11:04Z</time>
      </trkpt>
      <trkpt lat="59.8728896" lon="17.5981413">
        <ele>16.9604</ele>
        <time>2012-04-29T11:11:09Z</time>
      </trkpt>
      <trkpt lat="59.8728221" lon="17.5979776">
        <ele>16.4797</ele>
        <time>2012-04-29T11:11:12Z</time>
      </trkpt>
      <trkpt lat="59.8727601" lon="17.597964">
        <ele>16.9604</ele>
        <time>2012-04-29T11:11:16Z</time>
      </trkpt>
      <trkpt lat="59.8727306" lon="17.5980584">
        <ele>17.4412</ele>
        <time>2012-04-29T11:11:21Z</time>
      </trkpt>
      <trkpt lat="59.8724762" lon="17.5977721">
        <ele>17.4412</ele>
        <time>2012-04-29T11:11:46Z</time>
      </trkpt>
      <trkpt lat="59.87236" lon="17.5975347">
        <ele>16.4797</ele>
        <time>2012-04-29T11:11:50Z</time>
      </trkpt>
      <trkpt lat="59.8723047" lon="17.5973691">
        <ele>16.4797</ele>
        <time>2012-04-29T11:11:53Z</time>
      </trkpt>
      <trkpt lat="59.8720684" lon="17.5967801">
        <ele>18.8831</ele>
        <time>2012-04-29T11:12:04Z</time>
      </trkpt>
      <trkpt lat="59.871996" lon="17.5962943">
        <ele>19.8444</ele>
        <time>2012-04-29T11:12:10Z</time>
      </trkpt>
      <trkpt lat="59.871939" lon="17.5954566">
        <ele>21.767</ele>
        <time>2012-04-29T11:12:19Z</time>
      </trkpt>
      <trkpt lat="59.8719043" lon="17.5947803">
        <ele>22.2476</ele>
        <time>2012-04-29T11:12:27Z</time>
      </trkpt>
      <trkpt lat="59.8718623" lon="17.5941173">
        <ele>23.209</ele>
        <time>2012-04-29T11:12:35Z</time>
      </trkpt>
      <trkpt lat="59.8718454" lon="17.5939484">
        <ele>22.7283</ele>
        <time>2012-04-29T11:12:37Z</time>
      </trkpt>
      <trkpt lat="59.8717037" lon="17.5932102">
        <ele>21.767</ele>
        <time>2012-04-29T11:12:45Z</time>
      </trkpt>
      <trkpt lat="59.8715785" lon="17.592555">
        <ele>20.8057</ele>
        <time>2012-04-29T11:12:51Z</time>
      </trkpt>
      <trkpt lat="59.8713638" lon="17.5919561">
        <ele>19.3638</ele>
        <time>2012-04-29T11:12:56Z</time>
      </trkpt>
      <trkpt lat="59.8713049" lon="17.591851">
        <ele>18.8831</ele>
        <time>2012-04-29T11:12:57Z</time>
      </trkpt>
      <trkpt lat="59.8707854" lon="17.5911154">
        <ele>17.9218</ele>
        <time>2012-04-29T11:13:05Z</time>
      </trkpt>
      <trkpt lat="59.8703596" lon="17.5904727">
        <ele>18.8831</ele>
        <time>2012-04-29T11:13:12Z</time>
      </trkpt>
      <trkpt lat="59.8701322" lon="17.5899027">
        <ele>19.8444</ele>
        <time>2012-04-29T11:13:17Z</time>
      </trkpt>
      <trkpt lat="59.8697653" lon="17.5890106">
        <ele>19.8444</ele>
        <time>2012-04-29T11:13:25Z</time>
      </trkpt>
      <trkpt lat="59.8695878" lon="17.5888869">
        <ele>19.3638</ele>
        <time>2012-04-29T11:13:28Z</time>
      </trkpt>
      <trkpt lat="59.8694452" lon="17.5889563">
        <ele>18.8831</ele>
        <time>2012-04-29T11:13:30Z</time>
      </trkpt>
      <trkpt lat="59.8690817" lon="17.5891711">
        <ele>18.8831</ele>
        <time>2012-04-29T11:13:35Z</time>
      </trkpt>
      <trkpt lat="59.8688626" lon="17.5894484">
        <ele>18.8831</ele>
        <time>2012-04-29T11:13:39Z</time>
      </trkpt>
      <trkpt lat="59.8687429" lon="17.58955">
        <ele>18.8831</ele>
        <time>2012-04-29T11:13:41Z</time>
      </trkpt>
      <trkpt lat="59.8684958" lon="17.5896912">
        <ele>18.8831</ele>
        <time>2012-04-29T11:13:45Z</time>
      </trkpt>
      <trkpt lat="59.8681558" lon="17.5898927">
        <ele>16.4797</ele>
        <time>2012-04-29T11:13:50Z</time>
      </trkpt>
      <trkpt lat="59.8680717" lon="17.589894">
        <ele>15.999</ele>
        <time>2012-04-29T11:13:51Z</time>
      </trkpt>
      <trkpt lat="59.8676951" lon="17.5899018">
        <ele>17.4412</ele>
        <time>2012-04-29T11:13:56Z</time>
      </trkpt>
      <trkpt lat="59.8676362" lon="17.5899084">
        <ele>17.4412</ele>
        <time>2012-04-29T11:13:57Z</time>
      </trkpt>
      <trkpt lat="59.8673039" lon="17.5900963">
        <ele>17.9218</ele>
        <time>2012-04-29T11:14:03Z</time>
      </trkpt>
      <trkpt lat="59.8669703" lon="17.590398">
        <ele>14.557</ele>
        <time>2012-04-29T11:14:09Z</time>
      </trkpt>
      <trkpt lat="59.8669149" lon="17.5904563">
        <ele>14.557</ele>
        <time>2012-04-29T11:14:10Z</time>
      </trkpt>
      <trkpt lat="59.8667453" lon="17.5904876">
        <ele>12.6344</ele>
        <time>2012-04-29T11:14:14Z</time>
      </trkpt>
      <trkpt lat="59.8666256" lon="17.5904858">
        <ele>12.6344</ele>
        <time>2012-04-29T11:14:18Z</time>
      </trkpt>
      <trkpt lat="59.8663992" lon="17.5905245">
        <ele>15.5184</ele>
        <time>2012-04-29T11:14:25Z</time>
      </trkpt>
      <trkpt lat="59.8661838" lon="17.5905346">
        <ele>16.4797</ele>
        <time>2012-04-29T11:14:31Z</time>
      </trkpt>
      <trkpt lat="59.8658984" lon="17.5905941">
        <ele>17.9218</ele>
        <time>2012-04-29T11:14:38Z</time>
      </trkpt>
      <trkpt lat="59.8658633" lon="17.5906322">
        <ele>18.4023</ele>
        <time>2012-04-29T11:14:39Z</time>
      </trkpt>
      <trkpt lat="59.8656429" lon="17.591002">
        <ele>19.8444</ele>
        <time>2012-04-29T11:14:46Z</time>
      </trkpt>
      <trkpt lat="59.8655101" lon="17.5912185">
        <ele>19.8444</ele>
        <time>2012-04-29T11:14:50Z</time>
      </trkpt>
      <trkpt lat="59.8653808" lon="17.5914464">
        <ele>19.3638</ele>
        <time>2012-04-29T11:14:54Z</time>
      </trkpt>
      <trkpt lat="59.8652156" lon="17.591477">
        <ele>20.8057</ele>
        <time>2012-04-29T11:14:58Z</time>
      </trkpt>
      <trkpt lat="59.8651272" lon="17.5914568">
        <ele>22.2476</ele>
        <time>2012-04-29T11:15:00Z</time>
      </trkpt>
      <trkpt lat="59.8648887" lon="17.5915003">
        <ele>26.0929</ele>
        <time>2012-04-29T11:15:05Z</time>
      </trkpt>
      <trkpt lat="59.864691" lon="17.5915655">
        <ele>27.0543</ele>
        <time>2012-04-29T11:15:09Z</time>
      </trkpt>
      <trkpt lat="59.8642948" lon="17.5915555">
        <ele>28.9769</ele>
        <time>2012-04-29T11:15:16Z</time>
      </trkpt>
      <trkpt lat="59.8641259" lon="17.5914583">
        <ele>28.4962</ele>
        <time>2012-04-29T11:15:19Z</time>
      </trkpt>
      <trkpt lat="59.8639513" lon="17.5914485">
        <ele>27.5349</ele>
        <time>2012-04-29T11:15:22Z</time>
      </trkpt>
      <trkpt lat="59.8635831" lon="17.5912423">
        <ele>26.0929</ele>
        <time>2012-04-29T11:15:28Z</time>
      </trkpt>
      <trkpt lat="59.8630821" lon="17.5908497">
        <ele>24.1703</ele>
        <time>2012-04-29T11:15:36Z</time>
      </trkpt>
      <trkpt lat="59.8623816" lon="17.5903311">
        <ele>21.2864</ele>
        <time>2012-04-29T11:15:46Z</time>
      </trkpt>
      <trkpt lat="59.8618784" lon="17.5899999">
        <ele>20.8057</ele>
        <time>2012-04-29T11:15:53Z</time>
      </trkpt>
      <trkpt lat="59.8614369" lon="17.5896697">
        <ele>22.7283</ele>
        <time>2012-04-29T11:16:00Z</time>
      </trkpt>
      <trkpt lat="59.8611991" lon="17.5895311">
        <ele>23.209</ele>
        <time>2012-04-29T11:16:04Z</time>
      </trkpt>
      <trkpt lat="59.8609917" lon="17.5894541">
        <ele>24.1703</ele>
        <time>2012-04-29T11:16:08Z</time>
      </trkpt>
      <trkpt lat="59.8608076" lon="17.5894011">
        <ele>25.1317</ele>
        <time>2012-04-29T11:16:13Z</time>
      </trkpt>
      <trkpt lat="59.8606221" lon="17.5892928">
        <ele>26.0929</ele>
        <time>2012-04-29T11:16:17Z</time>
      </trkpt>
      <trkpt lat="59.8602574" lon="17.5889051">
        <ele>26.5736</ele>
        <time>2012-04-29T11:16:24Z</time>
      </trkpt>
      <trkpt lat="59.8600744" lon="17.5887829">
        <ele>27.0543</ele>
        <time>2012-04-29T11:16:27Z</time>
      </trkpt>
      <trkpt lat="59.8598809" lon="17.5889191">
        <ele>26.5736</ele>
        <time>2012-04-29T11:16:31Z</time>
      </trkpt>
      <trkpt lat="59.8598751" lon="17.589015">
        <ele>27.0543</ele>
        <time>2012-04-29T11:16:32Z</time>
      </trkpt>
      <trkpt lat="59.8598604" lon="17.5892484">
        <ele>27.5349</ele>
        <time>2012-04-29T11:16:34Z</time>
      </trkpt>
      <trkpt lat="59.8598029" lon="17.5898321">
        <ele>27.5349</ele>
        <time>2012-04-29T11:16:39Z</time>
      </trkpt>
      <trkpt lat="59.859721" lon="17.5902777">
        <ele>29.9381</ele>
        <time>2012-04-29T11:16:44Z</time>
      </trkpt>
      <trkpt lat="59.8596907" lon="17.5903542">
        <ele>28.0155</ele>
        <time>2012-04-29T11:16:45Z</time>
      </trkpt>
      <trkpt lat="59.8595924" lon="17.5905512">
        <ele>27.0543</ele>
        <time>2012-04-29T11:16:48Z</time>
      </trkpt>
      <trkpt lat="59.8595136" lon="17.5909608">
        <ele>30.8995</ele>
        <time>2012-04-29T11:16:53Z</time>
      </trkpt>
      <trkpt lat="59.8594881" lon="17.5913971">
        <ele>35.7061</ele>
        <time>2012-04-29T11:16:57Z</time>
      </trkpt>
      <trkpt lat="59.8594431" lon="17.5915909">
        <ele>36.6675</ele>
        <time>2012-04-29T11:16:59Z</time>
      </trkpt>
      <trkpt lat="59.859353" lon="17.5922909">
        <ele>35.7061</ele>
        <time>2012-04-29T11:17:03Z</time>
      </trkpt>
      <trkpt lat="59.8592488" lon="17.59283">
        <ele>31.8607</ele>
        <time>2012-04-29T11:17:06Z</time>
      </trkpt>
      <trkpt lat="59.8591823" lon="17.5937515">
        <ele>26.0929</ele>
        <time>2012-04-29T11:17:11Z</time>
      </trkpt>
      <trkpt lat="59.8591047" lon="17.5948013">
        <ele>23.209</ele>
        <time>2012-04-29T11:17:17Z</time>
      </trkpt>
      <trkpt lat="59.8590725" lon="17.5956673">
        <ele>22.2476</ele>
        <time>2012-04-29T11:17:23Z</time>
      </trkpt>
      <trkpt lat="59.8590383" lon="17.5964468">
        <ele>21.767</ele>
        <time>2012-04-29T11:17:29Z</time>
      </trkpt>
      <trkpt lat="59.8590125" lon="17.5971773">
        <ele>21.767</ele>
        <time>2012-04-29T11:17:35Z</time>
      </trkpt>
      <trkpt lat="59.8590929" lon="17.5976036">
        <ele>21.767</ele>
        <time>2012-04-29T11:17:39Z</time>
      </trkpt>
      <trkpt lat="59.8591358" lon="17.5976857">
        <ele>22.2476</ele>
        <time>2012-04-29T11:17:40Z</time>
      </trkpt>
      <trkpt lat="59.8592198" lon="17.5978478">
        <ele>22.7283</ele>
        <time>2012-04-29T11:17:42Z</time>
      </trkpt>
      <trkpt lat="59.8593127" lon="17.5982581">
        <ele>24.651</ele>
        <time>2012-04-29T11:17:46Z</time>
      </trkpt>
      <trkpt lat="59.8592748" lon="17.5988467">
        <ele>24.1703</ele>
        <time>2012-04-29T11:17:52Z</time>
      </trkpt>
      <trkpt lat="59.8590748" lon="17.5994713">
        <ele>23.6896</ele>
        <time>2012-04-29T11:18:00Z</time>
      </trkpt>
      <trkpt lat="59.8587962" lon="17.600323">
        <ele>23.6896</ele>
        <time>2012-04-29T11:18:10Z</time>
      </trkpt>
      <trkpt lat="59.8585961" lon="17.6009937">
        <ele>26.0929</ele>
        <time>2012-04-29T11:18:18Z</time>
      </trkpt>
      <trkpt lat="59.858351" lon="17.6017729">
        <ele>28.9769</ele>
        <time>2012-04-29T11:18:28Z</time>
      </trkpt>
      <trkpt lat="59.8581528" lon="17.602189">
        <ele>30.4188</ele>
        <time>2012-04-29T11:18:35Z</time>
      </trkpt>
      <trkpt lat="59.8578823" lon="17.602801">
        <ele>31.8607</ele>
        <time>2012-04-29T11:18:44Z</time>
      </trkpt>
      <trkpt lat="59.8578454" lon="17.6032637">
        <ele>33.3029</ele>
        <time>2012-04-29T11:18:49Z</time>
      </trkpt>
      <trkpt lat="59.8578009" lon="17.6034777">
        <ele>29.9381</ele>
        <time>2012-04-29T11:18:52Z</time>
      </trkpt>
      <trkpt lat="59.8576906" lon="17.6035642">
        <ele>32.8223</ele>
        <time>2012-04-29T11:18:55Z</time>
      </trkpt>
      <trkpt lat="59.8574917" lon="17.6038668">
        <ele>33.7834</ele>
        <time>2012-04-29T11:19:01Z</time>
      </trkpt>
      <trkpt lat="59.8573543" lon="17.6041049">
        <ele>32.8223</ele>
        <time>2012-04-29T11:19:06Z</time>
      </trkpt>
      <trkpt lat="59.857231" lon="17.6043822">
        <ele>30.8995</ele>
        <time>2012-04-29T11:19:11Z</time>
      </trkpt>
      <trkpt lat="59.8571864" lon="17.6046135">
        <ele>32.8223</ele>
        <time>2012-04-29T11:19:14Z</time>
      </trkpt>
      <trkpt lat="59.8570033" lon="17.6048823">
        <ele>32.8223</ele>
        <time>2012-04-29T11:19:19Z</time>
      </trkpt>
      <trkpt lat="59.8568608" lon="17.6048686">
        <ele>37.6287</ele>
        <time>2012-04-29T11:19:22Z</time>
      </trkpt>
      <trkpt lat="59.8563692" lon="17.6047187">
        <ele>31.8607</ele>
        <time>2012-04-29T11:19:29Z</time>
      </trkpt>
      <trkpt lat="59.8562014" lon="17.6047378">
        <ele>32.8223</ele>
        <time>2012-04-29T11:19:32Z</time>
      </trkpt>
      <trkpt lat="59.8560402" lon="17.6045537">
        <ele>28.9769</ele>
        <time>2012-04-29T11:19:36Z</time>
      </trkpt>
      <trkpt lat="59.8558966" lon="17.6039157">
        <ele>28.0155</ele>
        <time>2012-04-29T11:19:43Z</time>
      </trkpt>
      <trkpt lat="59.8558331" lon="17.6035902">
        <ele>27.5349</ele>
        <time>2012-04-29T11:19:46Z</time>
      </trkpt>
      <trkpt lat="59.8556887" lon="17.6028348">
        <ele>25.6123</ele>
        <time>2012-04-29T11:19:52Z</time>
      </trkpt>
      <trkpt lat="59.8556398" lon="17.6024801">
        <ele>25.1317</ele>
        <time>2012-04-29T11:19:55Z</time>
      </trkpt>
      <trkpt lat="59.8555812" lon="17.6014394">
        <ele>24.651</ele>
        <time>2012-04-29T11:20:04Z</time>
      </trkpt>
      <trkpt lat="59.8555363" lon="17.6007939">
        <ele>24.1703</ele>
        <time>2012-04-29T11:20:09Z</time>
      </trkpt>
      <trkpt lat="59.8555212" lon="17.6006497">
        <ele>24.1703</ele>
        <time>2012-04-29T11:20:10Z</time>
      </trkpt>
      <trkpt lat="59.8552798" lon="17.5993642">
        <ele>23.209</ele>
        <time>2012-04-29T11:20:18Z</time>
      </trkpt>
      <trkpt lat="59.8550918" lon="17.5987762">
        <ele>23.6896</ele>
        <time>2012-04-29T11:20:22Z</time>
      </trkpt>
      <trkpt lat="59.8550206" lon="17.5984897">
        <ele>22.7283</ele>
        <time>2012-04-29T11:20:24Z</time>
      </trkpt>
      <trkpt lat="59.8548502" lon="17.597534">
        <ele>22.2476</ele>
        <time>2012-04-29T11:20:31Z</time>
      </trkpt>
      <trkpt lat="59.8546865" lon="17.59664">
        <ele>21.767</ele>
        <time>2012-04-29T11:20:38Z</time>
      </trkpt>
      <trkpt lat="59.8545499" lon="17.5964079">
        <ele>20.325</ele>
        <time>2012-04-29T11:20:41Z</time>
      </trkpt>
      <trkpt lat="59.8545001" lon="17.5964758">
        <ele>19.3638</ele>
        <time>2012-04-29T11:20:42Z</time>
      </trkpt>
      <trkpt lat="59.8539185" lon="17.5969761">
        <ele>18.8831</ele>
        <time>2012-04-29T11:20:51Z</time>
      </trkpt>
      <trkpt lat="59.8538061" lon="17.59742">
        <ele>18.8831</ele>
        <time>2012-04-29T11:20:55Z</time>
      </trkpt>
      <trkpt lat="59.8537818" lon="17.5977778">
        <ele>19.3638</ele>
        <time>2012-04-29T11:20:58Z</time>
      </trkpt>
      <trkpt lat="59.8537404" lon="17.598326">
        <ele>15.999</ele>
        <time>2012-04-29T11:21:03Z</time>
      </trkpt>
      <trkpt lat="59.8536153" lon="17.5986824">
        <ele>16.9604</ele>
        <time>2012-04-29T11:21:08Z</time>
      </trkpt>
      <trkpt lat="59.8535461" lon="17.5985212">
        <ele>15.5184</ele>
        <time>2012-04-29T11:21:11Z</time>
      </trkpt>
      <trkpt lat="59.8535888" lon="17.5982271">
        <ele>16.9604</ele>
        <time>2012-04-29T11:21:14Z</time>
      </trkpt>
      <trkpt lat="59.8536638" lon="17.5973952">
        <ele>11.1925</ele>
        <time>2012-04-29T11:21:22Z</time>
      </trkpt>
      <trkpt lat="59.8537339" lon="17.5968451">
        <ele>8.30859</ele>
        <time>2012-04-29T11:21:27Z</time>
      </trkpt>
      <trkpt lat="59.8537941" lon="17.5958947">
        <ele>8.78918</ele>
        <time>2012-04-29T11:21:35Z</time>
      </trkpt>
      <trkpt lat="59.8537838" lon="17.5955253">
        <ele>11.1925</ele>
        <time>2012-04-29T11:21:38Z</time>
      </trkpt>
      <trkpt lat="59.8536964" lon="17.5946947">
        <ele>11.6732</ele>
        <time>2012-04-29T11:21:44Z</time>
      </trkpt>
      <trkpt lat="59.8535683" lon="17.5937366">
        <ele>11.1925</ele>
        <time>2012-04-29T11:21:50Z</time>
      </trkpt>
      <trkpt lat="59.8534009" lon="17.5926585">
        <ele>12.6344</ele>
        <time>2012-04-29T11:21:57Z</time>
      </trkpt>
      <trkpt lat="59.8531933" lon="17.5914949">
        <ele>12.6344</ele>
        <time>2012-04-29T11:22:05Z</time>
      </trkpt>
      <trkpt lat="59.8529976" lon="17.5906689">
        <ele>13.1151</ele>
        <time>2012-04-29T11:22:11Z</time>
      </trkpt>
      <trkpt lat="59.8528675" lon="17.5901374">
        <ele>14.557</ele>
        <time>2012-04-29T11:22:15Z</time>
      </trkpt>
      <trkpt lat="59.8526259" lon="17.5896588">
        <ele>16.4797</ele>
        <time>2012-04-29T11:22:20Z</time>
      </trkpt>
      <trkpt lat="59.8525656" lon="17.589614">
        <ele>16.9604</ele>
        <time>2012-04-29T11:22:21Z</time>
      </trkpt>
      <trkpt lat="59.8521785" lon="17.5894194">
        <ele>17.9218</ele>
        <time>2012-04-29T11:22:28Z</time>
      </trkpt>
      <trkpt lat="59.8521312" lon="17.5891761">
        <ele>17.4412</ele>
        <time>2012-04-29T11:22:32Z</time>
      </trkpt>
      <trkpt lat="59.8521501" lon="17.5890015">
        <ele>16.4797</ele>
        <time>2012-04-29T11:22:34Z</time>
      </trkpt>
      <trkpt lat="59.8521665" lon="17.5885633">
        <ele>13.5958</ele>
        <time>2012-04-29T11:22:38Z</time>
      </trkpt>
      <trkpt lat="59.8521303" lon="17.5880136">
        <ele>9.2699</ele>
        <time>2012-04-29T11:22:42Z</time>
      </trkpt>
      <trkpt lat="59.8520247" lon="17.5873293">
        <ele>5.90527</ele>
        <time>2012-04-29T11:22:47Z</time>
      </trkpt>
      <trkpt lat="59.8520039" lon="17.5867118">
        <ele>5.90527</ele>
        <time>2012-04-29T11:22:52Z</time>
      </trkpt>
      <trkpt lat="59.8519823" lon="17.5864839">
        <ele>5.90527</ele>
        <time>2012-04-29T11:22:55Z</time>
      </trkpt>
      <trkpt lat="59.851983" lon="17.5863818">
        <ele>6.38586</ele>
        <time>2012-04-29T11:22:58Z</time>
      </trkpt>
      <trkpt lat="59.8520096" lon="17.5861772">
        <ele>6.38586</ele>
        <time>2012-04-29T11:23:01Z</time>
      </trkpt>
      <trkpt lat="59.852081" lon="17.5858767">
        <ele>5.42456</ele>
        <time>2012-04-29T11:23:05Z</time>
      </trkpt>
      <trkpt lat="59.8522025" lon="17.5856441">
        <ele>4.94385</ele>
        <time>2012-04-29T11:23:09Z</time>
      </trkpt>
      <trkpt lat="59.8524086" lon="17.5856577">
        <ele>5.90527</ele>
        <time>2012-04-29T11:23:12Z</time>
      </trkpt>
      <trkpt lat="59.8525597" lon="17.5854924">
        <ele>8.30859</ele>
        <time>2012-04-29T11:23:16Z</time>
      </trkpt>
      <trkpt lat="59.8524632" lon="17.5854095">
        <ele>10.7118</ele>
        <time>2012-04-29T11:23:19Z</time>
      </trkpt>
      <trkpt lat="59.8523137" lon="17.5852472">
        <ele>11.1925</ele>
        <time>2012-04-29T11:23:23Z</time>
      </trkpt>
      <trkpt lat="59.8521918" lon="17.5849486">
        <ele>11.1925</ele>
        <time>2012-04-29T11:23:27Z</time>
      </trkpt>
      <trkpt lat="59.8520262" lon="17.5843676">
        <ele>12.1538</ele>
        <time>2012-04-29T11:23:33Z</time>
      </trkpt>
      <trkpt lat="59.8517724" lon="17.5833824">
        <ele>13.1151</ele>
        <time>2012-04-29T11:23:43Z</time>
      </trkpt>
      <trkpt lat="59.8515298" lon="17.5823223">
        <ele>14.557</ele>
        <time>2012-04-29T11:23:53Z</time>
      </trkpt>
      <trkpt lat="59.8512438" lon="17.5810582">
        <ele>15.999</ele>
        <time>2012-04-29T11:24:05Z</time>
      </trkpt>
      <trkpt lat="59.8510332" lon="17.5801377">
        <ele>17.9218</ele>
        <time>2012-04-29T11:24:14Z</time>
      </trkpt>
      <trkpt lat="59.8508313" lon="17.5792576">
        <ele>19.8444</ele>
        <time>2012-04-29T11:24:23Z</time>
      </trkpt>
      <trkpt lat="59.8506642" lon="17.5784986">
        <ele>20.325</ele>
        <time>2012-04-29T11:24:31Z</time>
      </trkpt>
      <trkpt lat="59.8504561" lon="17.5774322">
        <ele>20.8057</ele>
        <time>2012-04-29T11:24:42Z</time>
      </trkpt>
      <trkpt lat="59.8502755" lon="17.5764153">
        <ele>19.8444</ele>
        <time>2012-04-29T11:24:52Z</time>
      </trkpt>
      <trkpt lat="59.8500949" lon="17.5752518">
        <ele>19.3638</ele>
        <time>2012-04-29T11:25:03Z</time>
      </trkpt>
      <trkpt lat="59.8499314" lon="17.57416">
        <ele>19.3638</ele>
        <time>2012-04-29T11:25:13Z</time>
      </trkpt>
      <trkpt lat="59.849852" lon="17.5736035">
        <ele>19.8444</ele>
        <time>2012-04-29T11:25:18Z</time>
      </trkpt>
      <trkpt lat="59.8498843" lon="17.5730359">
        <ele>20.325</ele>
        <time>2012-04-29T11:25:23Z</time>
      </trkpt>
      <trkpt lat="59.8499588" lon="17.5728559">
        <ele>20.8057</ele>
        <time>2012-04-29T11:25:25Z</time>
      </trkpt>
      <trkpt lat="59.8500462" lon="17.5727089">
        <ele>21.2864</ele>
        <time>2012-04-29T11:25:27Z</time>
      </trkpt>
      <trkpt lat="59.850121" lon="17.5723235">
        <ele>21.767</ele>
        <time>2012-04-29T11:25:31Z</time>
      </trkpt>
      <trkpt lat="59.8500755" lon="17.572017">
        <ele>21.767</ele>
        <time>2012-04-29T11:25:34Z</time>
      </trkpt>
      <trkpt lat="59.8498429" lon="17.5710791">
        <ele>21.767</ele>
        <time>2012-04-29T11:25:43Z</time>
      </trkpt>
      <trkpt lat="59.8495864" lon="17.570076">
        <ele>21.2864</ele>
        <time>2012-04-29T11:25:52Z</time>
      </trkpt>
      <trkpt lat="59.8493542" lon="17.5690254">
        <ele>22.7283</ele>
        <time>2012-04-29T11:26:01Z</time>
      </trkpt>
      <trkpt lat="59.8491875" lon="17.5681696">
        <ele>23.209</ele>
        <time>2012-04-29T11:26:08Z</time>
      </trkpt>
      <trkpt lat="59.8490673" lon="17.5673622">
        <ele>22.7283</ele>
        <time>2012-04-29T11:26:15Z</time>
      </trkpt>
      <trkpt lat="59.8489265" lon="17.5662642">
        <ele>22.2476</ele>
        <time>2012-04-29T11:26:24Z</time>
      </trkpt>
      <trkpt lat="59.8487768" lon="17.5653646">
        <ele>21.2864</ele>
        <time>2012-04-29T11:26:31Z</time>
      </trkpt>
      <trkpt lat="59.8485846" lon="17.5643249">
        <ele>22.2476</ele>
        <time>2012-04-29T11:26:39Z</time>
      </trkpt>
      <trkpt lat="59.8484514" lon="17.5636644">
        <ele>25.1317</ele>
        <time>2012-04-29T11:26:45Z</time>
      </trkpt>
      <trkpt lat="59.8484349" lon="17.563563">
        <ele>25.1317</ele>
        <time>2012-04-29T11:26:46Z</time>
      </trkpt>
      <trkpt lat="59.8484896" lon="17.5632318">
        <ele>25.6123</ele>
        <time>2012-04-29T11:26:50Z</time>
      </trkpt>
      <trkpt lat="59.8485277" lon="17.5632093">
        <ele>26.0929</ele>
        <time>2012-04-29T11:26:51Z</time>
      </trkpt>
      <trkpt lat="59.8487113" lon="17.5633185">
        <ele>27.5349</ele>
        <time>2012-04-29T11:26:56Z</time>
      </trkpt>
      <trkpt lat="59.8487541" lon="17.5635498">
        <ele>28.4962</ele>
        <time>2012-04-29T11:26:59Z</time>
      </trkpt>
      <trkpt lat="59.8486398" lon="17.5631758">
        <ele>37.6287</ele>
        <time>2012-04-29T11:30:03Z</time>
      </trkpt>
      <trkpt lat="59.848507" lon="17.5632473">
        <ele>36.6675</ele>
        <time>2012-04-29T11:30:07Z</time>
      </trkpt>
      <trkpt lat="59.8484129" lon="17.5635402">
        <ele>36.6675</ele>
        <time>2012-04-29T11:30:11Z</time>
      </trkpt>
      <trkpt lat="59.8484233" lon="17.5636464">
        <ele>36.1868</ele>
        <time>2012-04-29T11:30:12Z</time>
      </trkpt>
      <trkpt lat="59.8484621" lon="17.5639712">
        <ele>36.1868</ele>
        <time>2012-04-29T11:30:15Z</time>
      </trkpt>
      <trkpt lat="59.8485315" lon="17.5645435">
        <ele>34.7449</ele>
        <time>2012-04-29T11:30:20Z</time>
      </trkpt>
      <trkpt lat="59.8487285" lon="17.5657063">
        <ele>29.9381</ele>
        <time>2012-04-29T11:30:30Z</time>
      </trkpt>
      <trkpt lat="59.8488595" lon="17.5664976">
        <ele>29.4575</ele>
        <time>2012-04-29T11:30:37Z</time>
      </trkpt>
      <trkpt lat="59.848985" lon="17.5671025">
        <ele>27.5349</ele>
        <time>2012-04-29T11:30:42Z</time>
      </trkpt>
      <trkpt lat="59.8490965" lon="17.5681535">
        <ele>26.5736</ele>
        <time>2012-04-29T11:30:51Z</time>
      </trkpt>
      <trkpt lat="59.8492435" lon="17.5690528">
        <ele>27.0543</ele>
        <time>2012-04-29T11:30:59Z</time>
      </trkpt>
      <trkpt lat="59.8494118" lon="17.5697686">
        <ele>25.6123</ele>
        <time>2012-04-29T11:31:06Z</time>
      </trkpt>
      <trkpt lat="59.849586" lon="17.5705317">
        <ele>26.0929</ele>
        <time>2012-04-29T11:31:13Z</time>
      </trkpt>
      <trkpt lat="59.8497929" lon="17.5713689">
        <ele>26.5736</ele>
        <time>2012-04-29T11:31:21Z</time>
      </trkpt>
      <trkpt lat="59.8499785" lon="17.5720915">
        <ele>28.0155</ele>
        <time>2012-04-29T11:31:28Z</time>
      </trkpt>
      <trkpt lat="59.8500355" lon="17.5722843">
        <ele>28.0155</ele>
        <time>2012-04-29T11:31:30Z</time>
      </trkpt>
      <trkpt lat="59.8500778" lon="17.5724819">
        <ele>28.0155</ele>
        <time>2012-04-29T11:31:32Z</time>
      </trkpt>
      <trkpt lat="59.8500291" lon="17.5728287">
        <ele>28.4962</ele>
        <time>2012-04-29T11:31:36Z</time>
      </trkpt>
      <trkpt lat="59.8498913" lon="17.5729011">
        <ele>28.9769</ele>
        <time>2012-04-29T11:31:39Z</time>
      </trkpt>
      <trkpt lat="59.8495862" lon="17.5731689">
        <ele>29.9381</ele>
        <time>2012-04-29T11:31:46Z</time>
      </trkpt>
      <trkpt lat="59.8495794" lon="17.5735256">
        <ele>29.4575</ele>
        <time>2012-04-29T11:31:49Z</time>
      </trkpt>
      <trkpt lat="59.8497435" lon="17.5748367">
        <ele>24.651</ele>
        <time>2012-04-29T11:31:59Z</time>
      </trkpt>
      <trkpt lat="59.8498869" lon="17.5758138">
        <ele>22.2476</ele>
        <time>2012-04-29T11:32:06Z</time>
      </trkpt>
      <trkpt lat="59.8500686" lon="17.5771105">
        <ele>17.9218</ele>
        <time>2012-04-29T11:32:15Z</time>
      </trkpt>
      <trkpt lat="59.8503028" lon="17.5783916">
        <ele>16.9604</ele>
        <time>2012-04-29T11:32:24Z</time>
      </trkpt>
      <trkpt lat="59.8505901" lon="17.579705">
        <ele>16.4797</ele>
        <time>2012-04-29T11:32:33Z</time>
      </trkpt>
      <trkpt lat="59.8509905" lon="17.581454">
        <ele>15.0377</ele>
        <time>2012-04-29T11:32:45Z</time>
      </trkpt>
      <trkpt lat="59.8513202" lon="17.5828576">
        <ele>15.5184</ele>
        <time>2012-04-29T11:32:55Z</time>
      </trkpt>
      <trkpt lat="59.851648" lon="17.5842388">
        <ele>15.5184</ele>
        <time>2012-04-29T11:33:05Z</time>
      </trkpt>
      <trkpt lat="59.8518926" lon="17.5853278">
        <ele>15.0377</ele>
        <time>2012-04-29T11:33:13Z</time>
      </trkpt>
      <trkpt lat="59.8521142" lon="17.5862711">
        <ele>15.0377</ele>
        <time>2012-04-29T11:33:21Z</time>
      </trkpt>
      <trkpt lat="59.8521101" lon="17.586606">
        <ele>13.5958</ele>
        <time>2012-04-29T11:33:24Z</time>
      </trkpt>
      <trkpt lat="59.8520775" lon="17.5866563">
        <ele>14.0764</ele>
        <time>2012-04-29T11:33:25Z</time>
      </trkpt>
      <trkpt lat="59.8519592" lon="17.5871221">
        <ele>13.5958</ele>
        <time>2012-04-29T11:33:30Z</time>
      </trkpt>
      <trkpt lat="59.8519844" lon="17.5873764">
        <ele>14.0764</ele>
        <time>2012-04-29T11:33:32Z</time>
      </trkpt>
      <trkpt lat="59.8521042" lon="17.5883896">
        <ele>13.5958</ele>
        <time>2012-04-29T11:33:40Z</time>
      </trkpt>
      <trkpt lat="59.8521154" lon="17.5886352">
        <ele>14.557</ele>
        <time>2012-04-29T11:33:42Z</time>
      </trkpt>
      <trkpt lat="59.8521567" lon="17.5889644">
        <ele>15.5184</ele>
        <time>2012-04-29T11:33:45Z</time>
      </trkpt>
      <trkpt lat="59.8521646" lon="17.5892381">
        <ele>15.999</ele>
        <time>2012-04-29T11:33:48Z</time>
      </trkpt>
      <trkpt lat="59.8521587" lon="17.5893909">
        <ele>16.4797</ele>
        <time>2012-04-29T11:33:50Z</time>
      </trkpt>
      <trkpt lat="59.8522415" lon="17.5895896">
        <ele>16.4797</ele>
        <time>2012-04-29T11:33:54Z</time>
      </trkpt>
      <trkpt lat="59.8523332" lon="17.5896027">
        <ele>16.9604</ele>
        <time>2012-04-29T11:33:56Z</time>
      </trkpt>
      <trkpt lat="59.8526218" lon="17.589742">
        <ele>15.5184</ele>
        <time>2012-04-29T11:34:02Z</time>
      </trkpt>
      <trkpt lat="59.8528398" lon="17.590079">
        <ele>15.5184</ele>
        <time>2012-04-29T11:34:07Z</time>
      </trkpt>
      <trkpt lat="59.8529017" lon="17.5902814">
        <ele>15.5184</ele>
        <time>2012-04-29T11:34:09Z</time>
      </trkpt>
      <trkpt lat="59.8530947" lon="17.5910821">
        <ele>15.999</ele>
        <time>2012-04-29T11:34:16Z</time>
      </trkpt>
      <trkpt lat="59.8533188" lon="17.5922698">
        <ele>16.9604</ele>
        <time>2012-04-29T11:34:26Z</time>
      </trkpt>
      <trkpt lat="59.8534754" lon="17.5932282">
        <ele>16.9604</ele>
        <time>2012-04-29T11:34:34Z</time>
      </trkpt>
      <trkpt lat="59.8535953" lon="17.5940815">
        <ele>16.9604</ele>
        <time>2012-04-29T11:34:41Z</time>
      </trkpt>
      <trkpt lat="59.8536927" lon="17.5947434">
        <ele>16.4797</ele>
        <time>2012-04-29T11:34:47Z</time>
      </trkpt>
      <trkpt lat="59.8537766" lon="17.5954491">
        <ele>17.9218</ele>
        <time>2012-04-29T11:34:54Z</time>
      </trkpt>
      <trkpt lat="59.8537972" lon="17.5961541">
        <ele>17.4412</ele>
        <time>2012-04-29T11:35:01Z</time>
      </trkpt>
      <trkpt lat="59.8537274" lon="17.5969015">
        <ele>15.999</ele>
        <time>2012-04-29T11:35:08Z</time>
      </trkpt>
      <trkpt lat="59.853657" lon="17.597351">
        <ele>15.999</ele>
        <time>2012-04-29T11:35:12Z</time>
      </trkpt>
      <trkpt lat="59.853546" lon="17.5984427">
        <ele>17.4412</ele>
        <time>2012-04-29T11:35:21Z</time>
      </trkpt>
      <trkpt lat="59.8534233" lon="17.5987494">
        <ele>20.8057</ele>
        <time>2012-04-29T11:35:25Z</time>
      </trkpt>
      <trkpt lat="59.8532398" lon="17.5988613">
        <ele>18.8831</ele>
        <time>2012-04-29T11:35:29Z</time>
      </trkpt>
      <trkpt lat="59.8531586" lon="17.5989551">
        <ele>19.8444</ele>
        <time>2012-04-29T11:35:31Z</time>
      </trkpt>
      <trkpt lat="59.8528368" lon="17.5991988">
        <ele>19.8444</ele>
        <time>2012-04-29T11:35:37Z</time>
      </trkpt>
      <trkpt lat="59.852728" lon="17.5992964">
        <ele>19.3638</ele>
        <time>2012-04-29T11:35:39Z</time>
      </trkpt>
      <trkpt lat="59.8525096" lon="17.5992776">
        <ele>21.767</ele>
        <time>2012-04-29T11:35:43Z</time>
      </trkpt>
      <trkpt lat="59.8522873" lon="17.5992637">
        <ele>23.6896</ele>
        <time>2012-04-29T11:35:47Z</time>
      </trkpt>
      <trkpt lat="59.8519356" lon="17.5992906">
        <ele>23.6896</ele>
        <time>2012-04-29T11:35:53Z</time>
      </trkpt>
      <trkpt lat="59.8516784" lon="17.5990222">
        <ele>24.651</ele>
        <time>2012-04-29T11:35:58Z</time>
      </trkpt>
      <trkpt lat="59.8513759" lon="17.5989176">
        <ele>25.6123</ele>
        <time>2012-04-29T11:36:03Z</time>
      </trkpt>
      <trkpt lat="59.8510778" lon="17.5988938">
        <ele>27.5349</ele>
        <time>2012-04-29T11:36:08Z</time>
      </trkpt>
      <trkpt lat="59.8508771" lon="17.5985178">
        <ele>28.9769</ele>
        <time>2012-04-29T11:36:13Z</time>
      </trkpt>
      <trkpt lat="59.8507778" lon="17.5982768">
        <ele>28.9769</ele>
        <time>2012-04-29T11:36:18Z</time>
      </trkpt>
      <trkpt lat="59.8507222" lon="17.5981551">
        <ele>29.4575</ele>
        <time>2012-04-29T11:36:25Z</time>
      </trkpt>
      <trkpt lat="59.8506295" lon="17.5980236">
        <ele>27.0543</ele>
        <time>2012-04-29T11:36:30Z</time>
      </trkpt>
      <trkpt lat="59.8504577" lon="17.5978757">
        <ele>25.6123</ele>
        <time>2012-04-29T11:36:34Z</time>
      </trkpt>
      <trkpt lat="59.8502537" lon="17.5977564">
        <ele>26.5736</ele>
        <time>2012-04-29T11:36:38Z</time>
      </trkpt>
      <trkpt lat="59.8499288" lon="17.5977364">
        <ele>28.0155</ele>
        <time>2012-04-29T11:36:44Z</time>
      </trkpt>
      <trkpt lat="59.8497519" lon="17.5978167">
        <ele>27.5349</ele>
        <time>2012-04-29T11:36:47Z</time>
      </trkpt>
      <trkpt lat="59.8494403" lon="17.5977345">
        <ele>26.0929</ele>
        <time>2012-04-29T11:36:52Z</time>
      </trkpt>
      <trkpt lat="59.8490109" lon="17.5976095">
        <ele>26.0929</ele>
        <time>2012-04-29T11:36:58Z</time>
      </trkpt>
      <trkpt lat="59.8488213" lon="17.5975543">
        <ele>24.651</ele>
        <time>2012-04-29T11:37:01Z</time>
      </trkpt>
      <trkpt lat="59.8486452" lon="17.5976898">
        <ele>22.7283</ele>
        <time>2012-04-29T11:37:05Z</time>
      </trkpt>
      <trkpt lat="59.8485773" lon="17.5978447">
        <ele>21.2864</ele>
        <time>2012-04-29T11:37:07Z</time>
      </trkpt>
      <trkpt lat="59.8484457" lon="17.5982417">
        <ele>21.2864</ele>
        <time>2012-04-29T11:37:12Z</time>
      </trkpt>
      <trkpt lat="59.8483386" lon="17.5982194">
        <ele>18.8831</ele>
        <time>2012-04-29T11:37:15Z</time>
      </trkpt>
      <trkpt lat="59.8482442" lon="17.5981391">
        <ele>19.8444</ele>
        <time>2012-04-29T11:37:17Z</time>
      </trkpt>
      <trkpt lat="59.8481188" lon="17.5980845">
        <ele>16.9604</ele>
        <time>2012-04-29T11:37:20Z</time>
      </trkpt>
      <trkpt lat="59.8480054" lon="17.5981656">
        <ele>17.9218</ele>
        <time>2012-04-29T11:37:23Z</time>
      </trkpt>
      <trkpt lat="59.8476127" lon="17.5982215">
        <ele>17.9218</ele>
        <time>2012-04-29T11:37:27Z</time>
      </trkpt>
      <trkpt lat="59.8475097" lon="17.5982428">
        <ele>18.4023</ele>
        <time>2012-04-29T11:37:28Z</time>
      </trkpt>
      <trkpt lat="59.847324" lon="17.5982934">
        <ele>18.8831</ele>
        <time>2012-04-29T11:37:30Z</time>
      </trkpt>
      <trkpt lat="59.8470279" lon="17.5983197">
        <ele>17.4412</ele>
        <time>2012-04-29T11:37:34Z</time>
      </trkpt>
      <trkpt lat="59.8469155" lon="17.5985715">
        <ele>15.999</ele>
        <time>2012-04-29T11:37:37Z</time>
      </trkpt>
      <trkpt lat="59.8467294" lon="17.5991352">
        <ele>14.0764</ele>
        <time>2012-04-29T11:37:43Z</time>
      </trkpt>
      <trkpt lat="59.8465612" lon="17.5992797">
        <ele>15.0377</ele>
        <time>2012-04-29T11:37:47Z</time>
      </trkpt>
      <trkpt lat="59.8465089" lon="17.5992772">
        <ele>15.5184</ele>
        <time>2012-04-29T11:37:48Z</time>
      </trkpt>
      <trkpt lat="59.8461343" lon="17.5993528">
        <ele>13.5958</ele>
        <time>2012-04-29T11:37:54Z</time>
      </trkpt>
      <trkpt lat="59.8458391" lon="17.5997511">
        <ele>12.1538</ele>
        <time>2012-04-29T11:37:59Z</time>
      </trkpt>
      <trkpt lat="59.8454024" lon="17.6002775">
        <ele>10.2312</ele>
        <time>2012-04-29T11:38:06Z</time>
      </trkpt>
      <trkpt lat="59.8450315" lon="17.600627">
        <ele>9.75061</ele>
        <time>2012-04-29T11:38:12Z</time>
      </trkpt>
      <trkpt lat="59.8446171" lon="17.6006974">
        <ele>10.2312</ele>
        <time>2012-04-29T11:38:18Z</time>
      </trkpt>
      <trkpt lat="59.8444146" lon="17.6006649">
        <ele>11.1925</ele>
        <time>2012-04-29T11:38:21Z</time>
      </trkpt>
      <trkpt lat="59.8441223" lon="17.6007877">
        <ele>11.1925</ele>
        <time>2012-04-29T11:38:26Z</time>
      </trkpt>
      <trkpt lat="59.8438162" lon="17.6009489">
        <ele>10.7118</ele>
        <time>2012-04-29T11:38:32Z</time>
      </trkpt>
      <trkpt lat="59.8436303" lon="17.6008638">
        <ele>11.1925</ele>
        <time>2012-04-29T11:38:36Z</time>
      </trkpt>
      <trkpt lat="59.8434464" lon="17.600668">
        <ele>12.6344</ele>
        <time>2012-04-29T11:38:40Z</time>
      </trkpt>
      <trkpt lat="59.8432908" lon="17.6007326">
        <ele>13.5958</ele>
        <time>2012-04-29T11:38:43Z</time>
      </trkpt>
      <trkpt lat="59.8432428" lon="17.6007675">
        <ele>14.0764</ele>
        <time>2012-04-29T11:38:44Z</time>
      </trkpt>
      <trkpt lat="59.8431041" lon="17.600867">
        <ele>14.0764</ele>
        <time>2012-04-29T11:38:47Z</time>
      </trkpt>
      <trkpt lat="59.8428262" lon="17.6012579">
        <ele>15.5184</ele>
        <time>2012-04-29T11:38:55Z</time>
      </trkpt>
      <trkpt lat="59.8426871" lon="17.6016056">
        <ele>16.9604</ele>
        <time>2012-04-29T11:39:01Z</time>
      </trkpt>
      <trkpt lat="59.8425991" lon="17.6019116">
        <ele>19.8444</ele>
        <time>2012-04-29T11:39:06Z</time>
      </trkpt>
      <trkpt lat="59.8425088" lon="17.6021795">
        <ele>18.8831</ele>
        <time>2012-04-29T11:39:11Z</time>
      </trkpt>
      <trkpt lat="59.8424517" lon="17.6023641">
        <ele>24.651</ele>
        <time>2012-04-29T11:39:16Z</time>
      </trkpt>
      <trkpt lat="59.8424294" lon="17.6024381">
        <ele>30.4188</ele>
        <time>2012-04-29T11:39:19Z</time>
      </trkpt>
      <trkpt lat="59.8423454" lon="17.6025743">
        <ele>35.7061</ele>
        <time>2012-04-29T11:39:23Z</time>
      </trkpt>
      <trkpt lat="59.8421272" lon="17.6029317">
        <ele>40.9934</ele>
        <time>2012-04-29T11:39:31Z</time>
      </trkpt>
      <trkpt lat="59.8418951" lon="17.6032741">
        <ele>42.916</ele>
        <time>2012-04-29T11:39:38Z</time>
      </trkpt>
      <trkpt lat="59.8416645" lon="17.6034968">
        <ele>43.8773</ele>
        <time>2012-04-29T11:39:44Z</time>
      </trkpt>
      <trkpt lat="59.841367" lon="17.6037816">
        <ele>41.9547</ele>
        <time>2012-04-29T11:39:50Z</time>
      </trkpt>
      <trkpt lat="59.8410833" lon="17.604034">
        <ele>40.5128</ele>
        <time>2012-04-29T11:39:56Z</time>
      </trkpt>
      <trkpt lat="59.841034" lon="17.6040673">
        <ele>40.0321</ele>
        <time>2012-04-29T11:39:57Z</time>
      </trkpt>
      <trkpt lat="59.8409" lon="17.604066">
        <ele>41.474</ele>
        <time>2012-04-29T11:40:01Z</time>
      </trkpt>
      <trkpt lat="59.8408684" lon="17.6040689">
        <ele>41.474</ele>
        <time>2012-04-29T11:40:04Z</time>
      </trkpt>
      <trkpt lat="59.8408124" lon="17.6042963">
        <ele>38.1094</ele>
        <time>2012-04-29T11:40:10Z</time>
      </trkpt>
      <trkpt lat="59.8407838" lon="17.6046198">
        <ele>36.6675</ele>
        <time>2012-04-29T11:40:14Z</time>
      </trkpt>
      <trkpt lat="59.8407796" lon="17.6050587">
        <ele>33.3029</ele>
        <time>2012-04-29T11:40:19Z</time>
      </trkpt>
      <trkpt lat="59.840789" lon="17.6057601">
        <ele>30.4188</ele>
        <time>2012-04-29T11:40:25Z</time>
      </trkpt>
      <trkpt lat="59.8407876" lon="17.6062207">
        <ele>30.4188</ele>
        <time>2012-04-29T11:40:30Z</time>
      </trkpt>
      <trkpt lat="59.8407793" lon="17.6063185">
        <ele>30.8995</ele>
        <time>2012-04-29T11:40:31Z</time>
      </trkpt>
      <trkpt lat="59.8407797" lon="17.6065971">
        <ele>31.8607</ele>
        <time>2012-04-29T11:40:34Z</time>
      </trkpt>
      <trkpt lat="59.8407745" lon="17.6070389">
        <ele>31.8607</ele>
        <time>2012-04-29T11:40:39Z</time>
      </trkpt>
      <trkpt lat="59.8406829" lon="17.6074503">
        <ele>34.7449</ele>
        <time>2012-04-29T11:40:44Z</time>
      </trkpt>
      <trkpt lat="59.8405906" lon="17.6075706">
        <ele>35.7061</ele>
        <time>2012-04-29T11:40:46Z</time>
      </trkpt>
      <trkpt lat="59.8403466" lon="17.6078097">
        <ele>35.2255</ele>
        <time>2012-04-29T11:40:51Z</time>
      </trkpt>
      <trkpt lat="59.8401543" lon="17.6080373">
        <ele>32.8223</ele>
        <time>2012-04-29T11:40:55Z</time>
      </trkpt>
      <trkpt lat="59.8399799" lon="17.6085506">
        <ele>31.3801</ele>
        <time>2012-04-29T11:41:00Z</time>
      </trkpt>
      <trkpt lat="59.8398354" lon="17.6091476">
        <ele>28.9769</ele>
        <time>2012-04-29T11:41:05Z</time>
      </trkpt>
      <trkpt lat="59.8396767" lon="17.6098156">
        <ele>28.9769</ele>
        <time>2012-04-29T11:41:11Z</time>
      </trkpt>
      <trkpt lat="59.8395697" lon="17.6103035">
        <ele>26.5736</ele>
        <time>2012-04-29T11:41:16Z</time>
      </trkpt>
      <trkpt lat="59.8395043" lon="17.610624">
        <ele>25.1317</ele>
        <time>2012-04-29T11:41:19Z</time>
      </trkpt>
      <trkpt lat="59.8393837" lon="17.6110138">
        <ele>21.767</ele>
        <time>2012-04-29T11:41:23Z</time>
      </trkpt>
      <trkpt lat="59.839298" lon="17.6114313">
        <ele>22.2476</ele>
        <time>2012-04-29T11:41:27Z</time>
      </trkpt>
      <trkpt lat="59.8392562" lon="17.6119369">
        <ele>25.1317</ele>
        <time>2012-04-29T11:41:32Z</time>
      </trkpt>
      <trkpt lat="59.8392141" lon="17.6123797">
        <ele>28.4962</ele>
        <time>2012-04-29T11:41:37Z</time>
      </trkpt>
      <trkpt lat="59.8390791" lon="17.6126818">
        <ele>31.3801</ele>
        <time>2012-04-29T11:41:42Z</time>
      </trkpt>
      <trkpt lat="59.838918" lon="17.612654">
        <ele>32.8223</ele>
        <time>2012-04-29T11:41:45Z</time>
      </trkpt>
      <trkpt lat="59.8385211" lon="17.6122383">
        <ele>30.8995</ele>
        <time>2012-04-29T11:41:52Z</time>
      </trkpt>
      <trkpt lat="59.8384119" lon="17.6120651">
        <ele>31.3801</ele>
        <time>2012-04-29T11:41:54Z</time>
      </trkpt>
      <trkpt lat="59.8381485" lon="17.6118772">
        <ele>33.7834</ele>
        <time>2012-04-29T11:41:58Z</time>
      </trkpt>
      <trkpt lat="59.8380835" lon="17.6118323">
        <ele>34.2642</ele>
        <time>2012-04-29T11:41:59Z</time>
      </trkpt>
      <trkpt lat="59.837731" lon="17.6115359">
        <ele>35.7061</ele>
        <time>2012-04-29T11:42:05Z</time>
      </trkpt>
      <trkpt lat="59.8376187" lon="17.6114445">
        <ele>36.6675</ele>
        <time>2012-04-29T11:42:07Z</time>
      </trkpt>
      <trkpt lat="59.8373262" lon="17.6113243">
        <ele>39.5513</ele>
        <time>2012-04-29T11:42:12Z</time>
      </trkpt>
      <trkpt lat="59.8370267" lon="17.611306">
        <ele>43.8773</ele>
        <time>2012-04-29T11:42:17Z</time>
      </trkpt>
      <trkpt lat="59.8366709" lon="17.6114545">
        <ele>40.9934</ele>
        <time>2012-04-29T11:42:23Z</time>
      </trkpt>
      <trkpt lat="59.8363155" lon="17.6116799">
        <ele>38.5901</ele>
        <time>2012-04-29T11:42:29Z</time>
      </trkpt>
      <trkpt lat="59.8361342" lon="17.6118229">
        <ele>34.7449</ele>
        <time>2012-04-29T11:42:32Z</time>
      </trkpt>
      <trkpt lat="59.8359678" lon="17.6120597">
        <ele>31.3801</ele>
        <time>2012-04-29T11:42:35Z</time>
      </trkpt>
      <trkpt lat="59.8355829" lon="17.6124273">
        <ele>28.4962</ele>
        <time>2012-04-29T11:42:41Z</time>
      </trkpt>
      <trkpt lat="59.835123" lon="17.612779">
        <ele>28.4962</ele>
        <time>2012-04-29T11:42:48Z</time>
      </trkpt>
      <trkpt lat="59.8348143" lon="17.6130091">
        <ele>25.6123</ele>
        <time>2012-04-29T11:42:53Z</time>
      </trkpt>
      <trkpt lat="59.8344834" lon="17.6133171">
        <ele>24.651</ele>
        <time>2012-04-29T11:42:58Z</time>
      </trkpt>
      <trkpt lat="59.8339534" lon="17.6138317">
        <ele>24.1703</ele>
        <time>2012-04-29T11:43:06Z</time>
      </trkpt>
      <trkpt lat="59.8333763" lon="17.6143479">
        <ele>23.6896</ele>
        <time>2012-04-29T11:43:15Z</time>
      </trkpt>
      <trkpt lat="59.8330255" lon="17.6146743">
        <ele>23.6896</ele>
        <time>2012-04-29T11:43:21Z</time>
      </trkpt>
      <trkpt lat="59.8326877" lon="17.6149765">
        <ele>26.0929</ele>
        <time>2012-04-29T11:43:27Z</time>
      </trkpt>
      <trkpt lat="59.8322834" lon="17.6153453">
        <ele>27.0543</ele>
        <time>2012-04-29T11:43:34Z</time>
      </trkpt>
      <trkpt lat="59.8318275" lon="17.6155762">
        <ele>28.0155</ele>
        <time>2012-04-29T11:43:42Z</time>
      </trkpt>
      <trkpt lat="59.8315695" lon="17.6156976">
        <ele>31.3801</ele>
        <time>2012-04-29T11:43:47Z</time>
      </trkpt>
      <trkpt lat="59.8314617" lon="17.6157395">
        <ele>33.3029</ele>
        <time>2012-04-29T11:43:49Z</time>
      </trkpt>
      <trkpt lat="59.8310554" lon="17.6159622">
        <ele>33.7834</ele>
        <time>2012-04-29T11:43:57Z</time>
      </trkpt>
      <trkpt lat="59.8307676" lon="17.6161876">
        <ele>33.7834</ele>
        <time>2012-04-29T11:44:03Z</time>
      </trkpt>
      <trkpt lat="59.8304136" lon="17.6165721">
        <ele>31.3801</ele>
        <time>2012-04-29T11:44:10Z</time>
      </trkpt>
      <trkpt lat="59.8299351" lon="17.6171037">
        <ele>30.4188</ele>
        <time>2012-04-29T11:44:19Z</time>
      </trkpt>
      <trkpt lat="59.8295222" lon="17.6175603">
        <ele>30.8995</ele>
        <time>2012-04-29T11:44:27Z</time>
      </trkpt>
      <trkpt lat="59.8291031" lon="17.6180395">
        <ele>29.4575</ele>
        <time>2012-04-29T11:44:35Z</time>
      </trkpt>
      <trkpt lat="59.8287085" lon="17.6183779">
        <ele>28.4962</ele>
        <time>2012-04-29T11:44:42Z</time>
      </trkpt>
      <trkpt lat="59.8283439" lon="17.6186022">
        <ele>27.5349</ele>
        <time>2012-04-29T11:44:48Z</time>
      </trkpt>
      <trkpt lat="59.8279828" lon="17.6187374">
        <ele>30.8995</ele>
        <time>2012-04-29T11:44:54Z</time>
      </trkpt>
      <trkpt lat="59.8275904" lon="17.6188191">
        <ele>33.7834</ele>
        <time>2012-04-29T11:45:00Z</time>
      </trkpt>
      <trkpt lat="59.8273855" lon="17.6188134">
        <ele>34.7449</ele>
        <time>2012-04-29T11:45:03Z</time>
      </trkpt>
      <trkpt lat="59.8269556" lon="17.6187459">
        <ele>33.7834</ele>
        <time>2012-04-29T11:45:09Z</time>
      </trkpt>
      <trkpt lat="59.8264888" lon="17.6185497">
        <ele>32.8223</ele>
        <time>2012-04-29T11:45:16Z</time>
      </trkpt>
      <trkpt lat="59.8260625" lon="17.6183325">
        <ele>33.3029</ele>
        <time>2012-04-29T11:45:22Z</time>
      </trkpt>
      <trkpt lat="59.8257595" lon="17.6180545">
        <ele>33.7834</ele>
        <time>2012-04-29T11:45:27Z</time>
      </trkpt>
      <trkpt lat="59.8254408" lon="17.6176653">
        <ele>29.4575</ele>
        <time>2012-04-29T11:45:33Z</time>
      </trkpt>
      <trkpt lat="59.8249062" lon="17.6172094">
        <ele>27.0543</ele>
        <time>2012-04-29T11:45:41Z</time>
      </trkpt>
      <trkpt lat="59.8242776" lon="17.6166042">
        <ele>27.0543</ele>
        <time>2012-04-29T11:45:51Z</time>
      </trkpt>
      <trkpt lat="59.8238833" lon="17.6161801">
        <ele>26.5736</ele>
        <time>2012-04-29T11:45:58Z</time>
      </trkpt>
      <trkpt lat="59.823435" lon="17.6158574">
        <ele>27.0543</ele>
        <time>2012-04-29T11:46:05Z</time>
      </trkpt>
      <trkpt lat="59.8231154" lon="17.6156567">
        <ele>27.0543</ele>
        <time>2012-04-29T11:46:10Z</time>
      </trkpt>
      <trkpt lat="59.8229166" lon="17.6155789">
        <ele>26.0929</ele>
        <time>2012-04-29T11:46:13Z</time>
      </trkpt>
      <trkpt lat="59.8227843" lon="17.6155068">
        <ele>25.6123</ele>
        <time>2012-04-29T11:46:15Z</time>
      </trkpt>
      <trkpt lat="59.8226148" lon="17.6155215">
        <ele>25.6123</ele>
        <time>2012-04-29T11:46:17Z</time>
      </trkpt>
      <trkpt lat="59.8223357" lon="17.6155891">
        <ele>26.0929</ele>
        <time>2012-04-29T11:46:21Z</time>
      </trkpt>
      <trkpt lat="59.8221613" lon="17.6155561">
        <ele>26.0929</ele>
        <time>2012-04-29T11:46:24Z</time>
      </trkpt>
      <trkpt lat="59.8218505" lon="17.6156034">
        <ele>27.0543</ele>
        <time>2012-04-29T11:46:29Z</time>
      </trkpt>
      <trkpt lat="59.8216511" lon="17.6157298">
        <ele>26.0929</ele>
        <time>2012-04-29T11:46:32Z</time>
      </trkpt>
      <trkpt lat="59.8215163" lon="17.6158208">
        <ele>26.0929</ele>
        <time>2012-04-29T11:46:34Z</time>
      </trkpt>
      <trkpt lat="59.8211944" lon="17.6160023">
        <ele>25.6123</ele>
        <time>2012-04-29T11:46:39Z</time>
      </trkpt>
      <trkpt lat="59.8207251" lon="17.6164104">
        <ele>27.0543</ele>
        <time>2012-04-29T11:46:46Z</time>
      </trkpt>
      <trkpt lat="59.8204341" lon="17.6166133">
        <ele>27.5349</ele>
        <time>2012-04-29T11:46:50Z</time>
      </trkpt>
      <trkpt lat="59.8201054" lon="17.6166722">
        <ele>26.0929</ele>
        <time>2012-04-29T11:46:54Z</time>
      </trkpt>
      <trkpt lat="59.8199376" lon="17.6167153">
        <ele>26.0929</ele>
        <time>2012-04-29T11:46:56Z</time>
      </trkpt>
      <trkpt lat="59.8196551" lon="17.6171092">
        <ele>24.651</ele>
        <time>2012-04-29T11:47:00Z</time>
      </trkpt>
      <trkpt lat="59.8194973" lon="17.6175759">
        <ele>23.6896</ele>
        <time>2012-04-29T11:47:04Z</time>
      </trkpt>
      <trkpt lat="59.8194756" lon="17.6176867">
        <ele>23.6896</ele>
        <time>2012-04-29T11:47:05Z</time>
      </trkpt>
      <trkpt lat="59.8194095" lon="17.6180519">
        <ele>24.1703</ele>
        <time>2012-04-29T11:47:08Z</time>
      </trkpt>
      <trkpt lat="59.8192144" lon="17.6185237">
        <ele>23.209</ele>
        <time>2012-04-29T11:47:13Z</time>
      </trkpt>
      <trkpt lat="59.8191498" lon="17.6186866">
        <ele>23.6896</ele>
        <time>2012-04-29T11:47:15Z</time>
      </trkpt>
      <trkpt lat="59.8189719" lon="17.6192217">
        <ele>21.2864</ele>
        <time>2012-04-29T11:47:20Z</time>
      </trkpt>
      <trkpt lat="59.8187347" lon="17.6198369">
        <ele>22.2476</ele>
        <time>2012-04-29T11:47:25Z</time>
      </trkpt>
      <trkpt lat="59.8186805" lon="17.6199229">
        <ele>22.7283</ele>
        <time>2012-04-29T11:47:26Z</time>
      </trkpt>
      <trkpt lat="59.8183241" lon="17.6203783">
        <ele>28.9769</ele>
        <time>2012-04-29T11:47:32Z</time>
      </trkpt>
      <trkpt lat="59.8180482" lon="17.6206155">
        <ele>28.9769</ele>
        <time>2012-04-29T11:47:36Z</time>
      </trkpt>
      <trkpt lat="59.8179384" lon="17.6207115">
        <ele>28.4962</ele>
        <time>2012-04-29T11:47:38Z</time>
      </trkpt>
      <trkpt lat="59.8178184" lon="17.6209973">
        <ele>24.651</ele>
        <time>2012-04-29T11:47:42Z</time>
      </trkpt>
      <trkpt lat="59.8178983" lon="17.6211614">
        <ele>23.209</ele>
        <time>2012-04-29T11:47:45Z</time>
      </trkpt>
      <trkpt lat="59.8179562" lon="17.6211802">
        <ele>23.209</ele>
        <time>2012-04-29T11:47:46Z</time>
      </trkpt>
      <trkpt lat="59.818395" lon="17.6214914">
        <ele>22.2476</ele>
        <time>2012-04-29T11:47:53Z</time>
      </trkpt>
      <trkpt lat="59.8188493" lon="17.621861">
        <ele>21.2864</ele>
        <time>2012-04-29T11:48:00Z</time>
      </trkpt>
      <trkpt lat="59.8190513" lon="17.6219197">
        <ele>20.325</ele>
        <time>2012-04-29T11:48:03Z</time>
      </trkpt>
      <trkpt lat="59.819443" lon="17.6218039">
        <ele>20.8057</ele>
        <time>2012-04-29T11:48:09Z</time>
      </trkpt>
      <trkpt lat="59.8199799" lon="17.6214231">
        <ele>22.7283</ele>
        <time>2012-04-29T11:48:18Z</time>
      </trkpt>
      <trkpt lat="59.8203766" lon="17.6211477">
        <ele>23.209</ele>
        <time>2012-04-29T11:48:25Z</time>
      </trkpt>
      <trkpt lat="59.8206971" lon="17.620904">
        <ele>26.0929</ele>
        <time>2012-04-29T11:48:31Z</time>
      </trkpt>
      <trkpt lat="59.8208652" lon="17.6209657">
        <ele>28.0155</ele>
        <time>2012-04-29T11:48:35Z</time>
      </trkpt>
      <trkpt lat="59.8208784" lon="17.6210372">
        <ele>28.4962</ele>
        <time>2012-04-29T11:48:36Z</time>
      </trkpt>
      <trkpt lat="59.820933" lon="17.6214615">
        <ele>30.4188</ele>
        <time>2012-04-29T11:48:41Z</time>
      </trkpt>
      <trkpt lat="59.8210674" lon="17.622213">
        <ele>35.2255</ele>
        <time>2012-04-29T11:48:49Z</time>
      </trkpt>
      <trkpt lat="59.8210956" lon="17.6224354">
        <ele>35.7061</ele>
        <time>2012-04-29T11:48:51Z</time>
      </trkpt>
      <trkpt lat="59.821312" lon="17.6232446">
        <ele>36.1868</ele>
        <time>2012-04-29T11:48:59Z</time>
      </trkpt>
      <trkpt lat="59.8215631" lon="17.6239938">
        <ele>35.7061</ele>
        <time>2012-04-29T11:49:07Z</time>
      </trkpt>
      <trkpt lat="59.8217576" lon="17.6245458">
        <ele>32.8223</ele>
        <time>2012-04-29T11:49:13Z</time>
      </trkpt>
      <trkpt lat="59.8220926" lon="17.6252793">
        <ele>28.0155</ele>
        <time>2012-04-29T11:49:21Z</time>
      </trkpt>
      <trkpt lat="59.822464" lon="17.6258774">
        <ele>30.8995</ele>
        <time>2012-04-29T11:49:29Z</time>
      </trkpt>
      <trkpt lat="59.8226549" lon="17.6261744">
        <ele>31.8607</ele>
        <time>2012-04-29T11:49:34Z</time>
      </trkpt>
      <trkpt lat="59.8228079" lon="17.6264174">
        <ele>31.8607</ele>
        <time>2012-04-29T11:49:38Z</time>
      </trkpt>
      <trkpt lat="59.8231176" lon="17.6268073">
        <ele>35.2255</ele>
        <time>2012-04-29T11:49:45Z</time>
      </trkpt>
      <trkpt lat="59.8235548" lon="17.6274506">
        <ele>38.1094</ele>
        <time>2012-04-29T11:49:55Z</time>
      </trkpt>
      <trkpt lat="59.8237527" lon="17.6276653">
        <ele>39.0707</ele>
        <time>2012-04-29T11:49:59Z</time>
      </trkpt>
      <trkpt lat="59.8238387" lon="17.6277983">
        <ele>38.5901</ele>
        <time>2012-04-29T11:50:01Z</time>
      </trkpt>
      <trkpt lat="59.8242254" lon="17.6281152">
        <ele>37.6287</ele>
        <time>2012-04-29T11:50:08Z</time>
      </trkpt>
      <trkpt lat="59.8247887" lon="17.6285055">
        <ele>41.9547</ele>
        <time>2012-04-29T11:50:18Z</time>
      </trkpt>
      <trkpt lat="59.8249405" lon="17.6286165">
        <ele>44.8386</ele>
        <time>2012-04-29T11:50:21Z</time>
      </trkpt>
      <trkpt lat="59.8252896" lon="17.6288705">
        <ele>45.3192</ele>
        <time>2012-04-29T11:50:29Z</time>
      </trkpt>
      <trkpt lat="59.8254544" lon="17.6290227">
        <ele>43.3966</ele>
        <time>2012-04-29T11:50:33Z</time>
      </trkpt>
      <trkpt lat="59.8255998" lon="17.6291408">
        <ele>44.8386</ele>
        <time>2012-04-29T11:50:36Z</time>
      </trkpt>
      <trkpt lat="59.8258582" lon="17.629348">
        <ele>47.7225</ele>
        <time>2012-04-29T11:50:41Z</time>
      </trkpt>
      <trkpt lat="59.8262899" lon="17.6297148">
        <ele>49.6453</ele>
        <time>2012-04-29T11:50:49Z</time>
      </trkpt>
      <trkpt lat="59.8266536" lon="17.6300641">
        <ele>50.126</ele>
        <time>2012-04-29T11:50:56Z</time>
      </trkpt>
      <trkpt lat="59.8269614" lon="17.6304081">
        <ele>53.0098</ele>
        <time>2012-04-29T11:51:02Z</time>
      </trkpt>
      <trkpt lat="59.8271219" lon="17.630582">
        <ele>54.4518</ele>
        <time>2012-04-29T11:51:05Z</time>
      </trkpt>
      <trkpt lat="59.827468" lon="17.6308727">
        <ele>58.2971</ele>
        <time>2012-04-29T11:51:11Z</time>
      </trkpt>
      <trkpt lat="59.8275221" lon="17.6309274">
        <ele>59.7391</ele>
        <time>2012-04-29T11:51:12Z</time>
      </trkpt>
      <trkpt lat="59.8279542" lon="17.6312653">
        <ele>64.5457</ele>
        <time>2012-04-29T11:51:19Z</time>
      </trkpt>
      <trkpt lat="59.8283563" lon="17.631621">
        <ele>66.949</ele>
        <time>2012-04-29T11:51:26Z</time>
      </trkpt>
      <trkpt lat="59.8287457" lon="17.6320087">
        <ele>65.5071</ele>
        <time>2012-04-29T11:51:33Z</time>
      </trkpt>
      <trkpt lat="59.8287877" lon="17.6320662">
        <ele>63.5844</ele>
        <time>2012-04-29T11:51:34Z</time>
      </trkpt>
      <trkpt lat="59.8289411" lon="17.6322003">
        <ele>57.8165</ele>
        <time>2012-04-29T11:51:38Z</time>
      </trkpt>
      <trkpt lat="59.8289784" lon="17.632266">
        <ele>57.3358</ele>
        <time>2012-04-29T11:51:39Z</time>
      </trkpt>
      <trkpt lat="59.8292613" lon="17.6326879">
        <ele>51.5679</ele>
        <time>2012-04-29T11:51:45Z</time>
      </trkpt>
      <trkpt lat="59.8296124" lon="17.6332636">
        <ele>47.2418</ele>
        <time>2012-04-29T11:51:52Z</time>
      </trkpt>
      <trkpt lat="59.8298529" lon="17.6337113">
        <ele>42.916</ele>
        <time>2012-04-29T11:51:57Z</time>
      </trkpt>
      <trkpt lat="59.8301471" lon="17.6343949">
        <ele>38.1094</ele>
        <time>2012-04-29T11:52:03Z</time>
      </trkpt>
      <trkpt lat="59.8304991" lon="17.6351808">
        <ele>38.1094</ele>
        <time>2012-04-29T11:52:10Z</time>
      </trkpt>
      <trkpt lat="59.8307317" lon="17.635813">
        <ele>34.7449</ele>
        <time>2012-04-29T11:52:16Z</time>
      </trkpt>
      <trkpt lat="59.8308785" lon="17.6361886">
        <ele>33.7834</ele>
        <time>2012-04-29T11:52:20Z</time>
      </trkpt>
      <trkpt lat="59.8309862" lon="17.6365982">
        <ele>31.8607</ele>
        <time>2012-04-29T11:52:24Z</time>
      </trkpt>
      <trkpt lat="59.8312649" lon="17.6372188">
        <ele>29.9381</ele>
        <time>2012-04-29T11:52:31Z</time>
      </trkpt>
      <trkpt lat="59.831575" lon="17.6379228">
        <ele>31.8607</ele>
        <time>2012-04-29T11:52:39Z</time>
      </trkpt>
      <trkpt lat="59.8318676" lon="17.6386027">
        <ele>33.3029</ele>
        <time>2012-04-29T11:52:47Z</time>
      </trkpt>
      <trkpt lat="59.8321025" lon="17.6391891">
        <ele>33.7834</ele>
        <time>2012-04-29T11:52:54Z</time>
      </trkpt>
      <trkpt lat="59.8321957" lon="17.639466">
        <ele>34.7449</ele>
        <time>2012-04-29T11:52:57Z</time>
      </trkpt>
      <trkpt lat="59.8322445" lon="17.6398016">
        <ele>34.2642</ele>
        <time>2012-04-29T11:53:00Z</time>
      </trkpt>
      <trkpt lat="59.8322691" lon="17.6400942">
        <ele>33.7834</ele>
        <time>2012-04-29T11:53:03Z</time>
      </trkpt>
      <trkpt lat="59.8323424" lon="17.6404326">
        <ele>33.3029</ele>
        <time>2012-04-29T11:53:06Z</time>
      </trkpt>
      <trkpt lat="59.8323896" lon="17.640646">
        <ele>32.8223</ele>
        <time>2012-04-29T11:53:08Z</time>
      </trkpt>
      <trkpt lat="59.8325129" lon="17.6410208">
        <ele>31.3801</ele>
        <time>2012-04-29T11:53:12Z</time>
      </trkpt>
      <trkpt lat="59.8326902" lon="17.6414768">
        <ele>28.4962</ele>
        <time>2012-04-29T11:53:17Z</time>
      </trkpt>
      <trkpt lat="59.8328846" lon="17.6419565">
        <ele>29.4575</ele>
        <time>2012-04-29T11:53:22Z</time>
      </trkpt>
      <trkpt lat="59.8329624" lon="17.6421618">
        <ele>30.4188</ele>
        <time>2012-04-29T11:53:24Z</time>
      </trkpt>
      <trkpt lat="59.8331002" lon="17.6428469">
        <ele>19.8444</ele>
        <time>2012-04-29T11:53:29Z</time>
      </trkpt>
      <trkpt lat="59.8331752" lon="17.6428374">
        <ele>21.2864</ele>
        <time>2012-04-29T11:53:30Z</time>
      </trkpt>
      <trkpt lat="59.8332917" lon="17.6430698">
        <ele>27.5349</ele>
        <time>2012-04-29T11:53:33Z</time>
      </trkpt>
      <trkpt lat="59.8335338" lon="17.6434616">
        <ele>30.8995</ele>
        <time>2012-04-29T11:53:39Z</time>
      </trkpt>
      <trkpt lat="59.833687" lon="17.6436903">
        <ele>31.8607</ele>
        <time>2012-04-29T11:53:43Z</time>
      </trkpt>
      <trkpt lat="59.8337653" lon="17.6437833">
        <ele>35.2255</ele>
        <time>2012-04-29T11:53:45Z</time>
      </trkpt>
      <trkpt lat="59.8340129" lon="17.6440023">
        <ele>37.1481</ele>
        <time>2012-04-29T11:53:50Z</time>
      </trkpt>
      <trkpt lat="59.834106" lon="17.6440216">
        <ele>37.6287</ele>
        <time>2012-04-29T11:53:52Z</time>
      </trkpt>
      <trkpt lat="59.8342028" lon="17.644056">
        <ele>38.1094</ele>
        <time>2012-04-29T11:53:54Z</time>
      </trkpt>
      <trkpt lat="59.8342779" lon="17.6441368">
        <ele>37.1481</ele>
        <time>2012-04-29T11:53:56Z</time>
      </trkpt>
      <trkpt lat="59.834486" lon="17.6443139">
        <ele>28.9769</ele>
        <time>2012-04-29T11:54:01Z</time>
      </trkpt>
      <trkpt lat="59.8345774" lon="17.6443816">
        <ele>24.1703</ele>
        <time>2012-04-29T11:54:03Z</time>
      </trkpt>
      <trkpt lat="59.834653" lon="17.6444528">
        <ele>19.3638</ele>
        <time>2012-04-29T11:54:05Z</time>
      </trkpt>
      <trkpt lat="59.8348703" lon="17.6446798">
        <ele>15.0377</ele>
        <time>2012-04-29T11:54:10Z</time>
      </trkpt>
      <trkpt lat="59.8351597" lon="17.6448994">
        <ele>23.6896</ele>
        <time>2012-04-29T11:54:15Z</time>
      </trkpt>
      <trkpt lat="59.8352152" lon="17.6449724">
        <ele>26.0929</ele>
        <time>2012-04-29T11:54:16Z</time>
      </trkpt>
      <trkpt lat="59.8354859" lon="17.6453159">
        <ele>30.8995</ele>
        <time>2012-04-29T11:54:21Z</time>
      </trkpt>
      <trkpt lat="59.8357295" lon="17.6455629">
        <ele>40.5128</ele>
        <time>2012-04-29T11:54:25Z</time>
      </trkpt>
      <trkpt lat="59.8358772" lon="17.6457803">
        <ele>43.8773</ele>
        <time>2012-04-29T11:54:28Z</time>
      </trkpt>
      <trkpt lat="59.8360763" lon="17.6463009">
        <ele>43.8773</ele>
        <time>2012-04-29T11:54:34Z</time>
      </trkpt>
      <trkpt lat="59.8362212" lon="17.6468244">
        <ele>39.5513</ele>
        <time>2012-04-29T11:54:39Z</time>
      </trkpt>
      <trkpt lat="59.8364662" lon="17.647754">
        <ele>32.3416</ele>
        <time>2012-04-29T11:54:47Z</time>
      </trkpt>
      <trkpt lat="59.8365325" lon="17.6479857">
        <ele>31.8607</ele>
        <time>2012-04-29T11:54:49Z</time>
      </trkpt>
      <trkpt lat="59.8365766" lon="17.648199">
        <ele>30.8995</ele>
        <time>2012-04-29T11:54:51Z</time>
      </trkpt>
      <trkpt lat="59.8367257" lon="17.6486394">
        <ele>30.8995</ele>
        <time>2012-04-29T11:54:55Z</time>
      </trkpt>
      <trkpt lat="59.8370478" lon="17.6493033">
        <ele>23.6896</ele>
        <time>2012-04-29T11:55:01Z</time>
      </trkpt>
      <trkpt lat="59.8373736" lon="17.6498516">
        <ele>20.8057</ele>
        <time>2012-04-29T11:55:07Z</time>
      </trkpt>
      <trkpt lat="59.837542" lon="17.6500946">
        <ele>19.3638</ele>
        <time>2012-04-29T11:55:10Z</time>
      </trkpt>
      <trkpt lat="59.8377286" lon="17.6502745">
        <ele>18.8831</ele>
        <time>2012-04-29T11:55:13Z</time>
      </trkpt>
      <trkpt lat="59.8381006" lon="17.6506068">
        <ele>19.3638</ele>
        <time>2012-04-29T11:55:20Z</time>
      </trkpt>
      <trkpt lat="59.8382026" lon="17.6506938">
        <ele>18.8831</ele>
        <time>2012-04-29T11:55:22Z</time>
      </trkpt>
      <trkpt lat="59.8386158" lon="17.6509181">
        <ele>21.767</ele>
        <time>2012-04-29T11:55:29Z</time>
      </trkpt>
      <trkpt lat="59.838994" lon="17.6511507">
        <ele>15.0377</ele>
        <time>2012-04-29T11:55:35Z</time>
      </trkpt>
      <trkpt lat="59.8392411" lon="17.6512128">
        <ele>15.0377</ele>
        <time>2012-04-29T11:55:39Z</time>
      </trkpt>
      <trkpt lat="59.8392833" lon="17.6512499">
        <ele>13.5958</ele>
        <time>2012-04-29T11:55:40Z</time>
      </trkpt>
      <trkpt lat="59.8396228" lon="17.6515017">
        <ele>18.4023</ele>
        <time>2012-04-29T11:55:45Z</time>
      </trkpt>
      <trkpt lat="59.8400491" lon="17.6519249">
        <ele>19.3638</ele>
        <time>2012-04-29T11:55:52Z</time>
      </trkpt>
      <trkpt lat="59.8405044" lon="17.6526186">
        <ele>12.1538</ele>
        <time>2012-04-29T11:56:00Z</time>
      </trkpt>
      <trkpt lat="59.8408821" lon="17.6532935">
        <ele>7.82788</ele>
        <time>2012-04-29T11:56:06Z</time>
      </trkpt>
      <trkpt lat="59.8411618" lon="17.6540168">
        <ele>5.90527</ele>
        <time>2012-04-29T11:56:11Z</time>
      </trkpt>
      <trkpt lat="59.8414578" lon="17.6551366">
        <ele>6.86646</ele>
        <time>2012-04-29T11:56:18Z</time>
      </trkpt>
      <trkpt lat="59.841685" lon="17.6561034">
        <ele>8.30859</ele>
        <time>2012-04-29T11:56:25Z</time>
      </trkpt>
      <trkpt lat="59.841896" lon="17.6570817">
        <ele>6.38586</ele>
        <time>2012-04-29T11:56:33Z</time>
      </trkpt>
      <trkpt lat="59.8421177" lon="17.6580677">
        <ele>6.38586</ele>
        <time>2012-04-29T11:56:41Z</time>
      </trkpt>
      <trkpt lat="59.8423176" lon="17.6591249">
        <ele>5.42456</ele>
        <time>2012-04-29T11:56:49Z</time>
      </trkpt>
      <trkpt lat="59.8424917" lon="17.6598176">
        <ele>5.42456</ele>
        <time>2012-04-29T11:56:55Z</time>
      </trkpt>
      <trkpt lat="59.8427243" lon="17.6607489">
        <ele>5.42456</ele>
        <time>2012-04-29T11:57:03Z</time>
      </trkpt>
      <trkpt lat="59.8429983" lon="17.6617334">
        <ele>6.86646</ele>
        <time>2012-04-29T11:57:12Z</time>
      </trkpt>
      <trkpt lat="59.8433009" lon="17.6627277">
        <ele>8.78918</ele>
        <time>2012-04-29T11:57:22Z</time>
      </trkpt>
      <trkpt lat="59.8435758" lon="17.6635606">
        <ele>12.6344</ele>
        <time>2012-04-29T11:57:31Z</time>
      </trkpt>
      <trkpt lat="59.8437964" lon="17.6642299">
        <ele>12.1538</ele>
        <time>2012-04-29T11:57:38Z</time>
      </trkpt>
      <trkpt lat="59.8441026" lon="17.6651981">
        <ele>11.1925</ele>
        <time>2012-04-29T11:57:48Z</time>
      </trkpt>
      <trkpt lat="59.8443695" lon="17.6660469">
        <ele>12.1538</ele>
        <time>2012-04-29T11:57:57Z</time>
      </trkpt>
      <trkpt lat="59.8445689" lon="17.6666599">
        <ele>12.1538</ele>
        <time>2012-04-29T11:58:03Z</time>
      </trkpt>
      <trkpt lat="59.8449021" lon="17.6676292">
        <ele>12.6344</ele>
        <time>2012-04-29T11:58:12Z</time>
      </trkpt>
      <trkpt lat="59.8450236" lon="17.6683082">
        <ele>12.1538</ele>
        <time>2012-04-29T11:58:18Z</time>
      </trkpt>
      <trkpt lat="59.8451109" lon="17.66895">
        <ele>12.6344</ele>
        <time>2012-04-29T11:58:24Z</time>
      </trkpt>
      <trkpt lat="59.845116" lon="17.6691524">
        <ele>13.1151</ele>
        <time>2012-04-29T11:58:26Z</time>
      </trkpt>
      <trkpt lat="59.8452122" lon="17.6696652">
        <ele>11.6732</ele>
        <time>2012-04-29T11:58:31Z</time>
      </trkpt>
      <trkpt lat="59.845301" lon="17.6706572">
        <ele>8.30859</ele>
        <time>2012-04-29T11:58:38Z</time>
      </trkpt>
      <trkpt lat="59.8453697" lon="17.6710501">
        <ele>6.38586</ele>
        <time>2012-04-29T11:58:41Z</time>
      </trkpt>
      <trkpt lat="59.8454256" lon="17.6720208">
        <ele>4.46326</ele>
        <time>2012-04-29T11:58:47Z</time>
      </trkpt>
      <trkpt lat="59.8453952" lon="17.6727261">
        <ele>2.54065</ele>
        <time>2012-04-29T11:58:53Z</time>
      </trkpt>
      <trkpt lat="59.8453904" lon="17.6733956">
        <ele>3.50195</ele>
        <time>2012-04-29T11:59:00Z</time>
      </trkpt>
      <trkpt lat="59.845362" lon="17.674298">
        <ele>3.50195</ele>
        <time>2012-04-29T11:59:10Z</time>
      </trkpt>
      <trkpt lat="59.8452807" lon="17.6752345">
        <ele>3.98267</ele>
        <time>2012-04-29T11:59:20Z</time>
      </trkpt>
      <trkpt lat="59.8452521" lon="17.675523">
        <ele>3.98267</ele>
        <time>2012-04-29T11:59:23Z</time>
      </trkpt>
      <trkpt lat="59.8452577" lon="17.6762465">
        <ele>3.50195</ele>
        <time>2012-04-29T11:59:30Z</time>
      </trkpt>
      <trkpt lat="59.8452486" lon="17.6771486">
        <ele>2.06006</ele>
        <time>2012-04-29T11:59:38Z</time>
      </trkpt>
      <trkpt lat="59.8451591" lon="17.6779101">
        <ele>3.98267</ele>
        <time>2012-04-29T11:59:45Z</time>
      </trkpt>
      <trkpt lat="59.8450149" lon="17.6788699">
        <ele>4.94385</ele>
        <time>2012-04-29T11:59:53Z</time>
      </trkpt>
      <trkpt lat="59.8448119" lon="17.6802628">
        <ele>5.90527</ele>
        <time>2012-04-29T12:00:04Z</time>
      </trkpt>
      <trkpt lat="59.8446637" lon="17.6811832">
        <ele>8.78918</ele>
        <time>2012-04-29T12:00:12Z</time>
      </trkpt>
      <trkpt lat="59.8444794" lon="17.6823226">
        <ele>9.75061</ele>
        <time>2012-04-29T12:00:22Z</time>
      </trkpt>
      <trkpt lat="59.8443097" lon="17.6834345">
        <ele>10.7118</ele>
        <time>2012-04-29T12:00:32Z</time>
      </trkpt>
      <trkpt lat="59.8441407" lon="17.6845104">
        <ele>10.7118</ele>
        <time>2012-04-29T12:00:41Z</time>
      </trkpt>
      <trkpt lat="59.8439664" lon="17.6856226">
        <ele>11.1925</ele>
        <time>2012-04-29T12:00:51Z</time>
      </trkpt>
      <trkpt lat="59.843767" lon="17.6868912">
        <ele>11.1925</ele>
        <time>2012-04-29T12:01:02Z</time>
      </trkpt>
      <trkpt lat="59.843599" lon="17.6880232">
        <ele>11.1925</ele>
        <time>2012-04-29T12:01:11Z</time>
      </trkpt>
      <trkpt lat="59.8435261" lon="17.6886805">
        <ele>12.1538</ele>
        <time>2012-04-29T12:01:17Z</time>
      </trkpt>
      <trkpt lat="59.8434775" lon="17.6891372">
        <ele>12.6344</ele>
        <time>2012-04-29T12:01:22Z</time>
      </trkpt>
      <trkpt lat="59.8435685" lon="17.6902916">
        <ele>15.0377</ele>
        <time>2012-04-29T12:02:52Z</time>
      </trkpt>
      <trkpt lat="59.8438379" lon="17.6903656">
        <ele>14.0764</ele>
        <time>2012-04-29T12:02:57Z</time>
      </trkpt>
      <trkpt lat="59.8441618" lon="17.6904136">
        <ele>13.5958</ele>
        <time>2012-04-29T12:03:03Z</time>
      </trkpt>
      <trkpt lat="59.8448293" lon="17.6904795">
        <ele>13.5958</ele>
        <time>2012-04-29T12:03:16Z</time>
      </trkpt>
      <trkpt lat="59.8451097" lon="17.6905069">
        <ele>14.0764</ele>
        <time>2012-04-29T12:03:22Z</time>
      </trkpt>
      <trkpt lat="59.8452945" lon="17.6906873">
        <ele>14.0764</ele>
        <time>2012-04-29T12:03:27Z</time>
      </trkpt>
      <trkpt lat="59.8454475" lon="17.6907363">
        <ele>14.557</ele>
        <time>2012-04-29T12:03:32Z</time>
      </trkpt>
      <trkpt lat="59.8456236" lon="17.6906379">
        <ele>14.0764</ele>
        <time>2012-04-29T12:03:36Z</time>
      </trkpt>
      <trkpt lat="59.8457209" lon="17.6905791">
        <ele>14.557</ele>
        <time>2012-04-29T12:03:38Z</time>
      </trkpt>
      <trkpt lat="59.8461673" lon="17.690611">
        <ele>13.5958</ele>
        <time>2012-04-29T12:03:47Z</time>
      </trkpt>
      <trkpt lat="59.8463381" lon="17.690635">
        <ele>15.0377</ele>
        <time>2012-04-29T12:03:51Z</time>
      </trkpt>
      <trkpt lat="59.8464678" lon="17.6906389">
        <ele>15.5184</ele>
        <time>2012-04-29T12:03:55Z</time>
      </trkpt>
      <trkpt lat="59.8468785" lon="17.6906764">
        <ele>15.5184</ele>
        <time>2012-04-29T12:04:04Z</time>
      </trkpt>
      <trkpt lat="59.8471071" lon="17.6907469">
        <ele>15.5184</ele>
        <time>2012-04-29T12:04:09Z</time>
      </trkpt>
      <trkpt lat="59.8473271" lon="17.6909467">
        <ele>15.5184</ele>
        <time>2012-04-29T12:04:15Z</time>
      </trkpt>
      <trkpt lat="59.8474572" lon="17.6908913">
        <ele>15.999</ele>
        <time>2012-04-29T12:04:18Z</time>
      </trkpt>
      <trkpt lat="59.8476897" lon="17.6907753">
        <ele>16.9604</ele>
        <time>2012-04-29T12:04:23Z</time>
      </trkpt>
      <trkpt lat="59.848179" lon="17.6909587">
        <ele>15.999</ele>
        <time>2012-04-29T12:04:33Z</time>
      </trkpt>
      <trkpt lat="59.8486323" lon="17.6911779">
        <ele>16.4797</ele>
        <time>2012-04-29T12:04:42Z</time>
      </trkpt>
      <trkpt lat="59.8490765" lon="17.69161">
        <ele>15.5184</ele>
        <time>2012-04-29T12:04:52Z</time>
      </trkpt>
      <trkpt lat="59.8492008" lon="17.6917496">
        <ele>15.0377</ele>
        <time>2012-04-29T12:04:55Z</time>
      </trkpt>
      <trkpt lat="59.8493387" lon="17.6920015">
        <ele>13.5958</ele>
        <time>2012-04-29T12:04:59Z</time>
      </trkpt>
      <trkpt lat="59.8494885" lon="17.6923411">
        <ele>9.2699</ele>
        <time>2012-04-29T12:05:04Z</time>
      </trkpt>
      <trkpt lat="59.8495744" lon="17.6924267">
        <ele>10.2312</ele>
        <time>2012-04-29T12:05:06Z</time>
      </trkpt>
      <trkpt lat="59.8497157" lon="17.6925253">
        <ele>10.7118</ele>
        <time>2012-04-29T12:05:09Z</time>
      </trkpt>
      <trkpt lat="59.8498885" lon="17.6929226">
        <ele>10.2312</ele>
        <time>2012-04-29T12:05:14Z</time>
      </trkpt>
      <trkpt lat="59.8499132" lon="17.6930405">
        <ele>9.75061</ele>
        <time>2012-04-29T12:05:15Z</time>
      </trkpt>
      <trkpt lat="59.8500142" lon="17.6935488">
        <ele>8.78918</ele>
        <time>2012-04-29T12:05:19Z</time>
      </trkpt>
      <trkpt lat="59.8501827" lon="17.694087">
        <ele>7.34717</ele>
        <time>2012-04-29T12:05:24Z</time>
      </trkpt>
      <trkpt lat="59.8502286" lon="17.6945121">
        <ele>8.78918</ele>
        <time>2012-04-29T12:05:28Z</time>
      </trkpt>
      <trkpt lat="59.8501206" lon="17.6947232">
        <ele>9.75061</ele>
        <time>2012-04-29T12:05:31Z</time>
      </trkpt>
      <trkpt lat="59.8499924" lon="17.695006">
        <ele>10.7118</ele>
        <time>2012-04-29T12:05:35Z</time>
      </trkpt>
      <trkpt lat="59.8499873" lon="17.6953737">
        <ele>10.7118</ele>
        <time>2012-04-29T12:05:39Z</time>
      </trkpt>
      <trkpt lat="59.8501014" lon="17.6956839">
        <ele>9.75061</ele>
        <time>2012-04-29T12:05:43Z</time>
      </trkpt>
      <trkpt lat="59.8502474" lon="17.6957546">
        <ele>9.75061</ele>
        <time>2012-04-29T12:05:46Z</time>
      </trkpt>
      <trkpt lat="59.8506932" lon="17.6956431">
        <ele>11.1925</ele>
        <time>2012-04-29T12:05:55Z</time>
      </trkpt>
      <trkpt lat="59.8507413" lon="17.6956207">
        <ele>11.1925</ele>
        <time>2012-04-29T12:05:56Z</time>
      </trkpt>
      <trkpt lat="59.8508351" lon="17.6955897">
        <ele>11.6732</ele>
        <time>2012-04-29T12:05:58Z</time>
      </trkpt>
      <trkpt lat="59.8510301" lon="17.6956841">
        <ele>11.6732</ele>
        <time>2012-04-29T12:06:03Z</time>
      </trkpt>
      <trkpt lat="59.8512" lon="17.6957089">
        <ele>11.6732</ele>
        <time>2012-04-29T12:06:08Z</time>
      </trkpt>
      <trkpt lat="59.8514177" lon="17.6954265">
        <ele>9.75061</ele>
        <time>2012-04-29T12:06:14Z</time>
      </trkpt>
      <trkpt lat="59.8516863" lon="17.6950925">
        <ele>8.78918</ele>
        <time>2012-04-29T12:06:20Z</time>
      </trkpt>
      <trkpt lat="59.8519744" lon="17.6947096">
        <ele>8.78918</ele>
        <time>2012-04-29T12:06:27Z</time>
      </trkpt>
      <trkpt lat="59.8520961" lon="17.6945396">
        <ele>8.30859</ele>
        <time>2012-04-29T12:06:30Z</time>
      </trkpt>
      <trkpt lat="59.8523017" lon="17.6941051">
        <ele>8.30859</ele>
        <time>2012-04-29T12:06:36Z</time>
      </trkpt>
      <trkpt lat="59.852652" lon="17.6936564">
        <ele>8.78918</ele>
        <time>2012-04-29T12:06:44Z</time>
      </trkpt>
      <trkpt lat="59.8530577" lon="17.6932674">
        <ele>9.75061</ele>
        <time>2012-04-29T12:06:52Z</time>
      </trkpt>
      <trkpt lat="59.8535335" lon="17.6928584">
        <ele>11.1925</ele>
        <time>2012-04-29T12:07:01Z</time>
      </trkpt>
      <trkpt lat="59.8540251" lon="17.6924577">
        <ele>12.1538</ele>
        <time>2012-04-29T12:07:10Z</time>
      </trkpt>
      <trkpt lat="59.8543645" lon="17.6922635">
        <ele>12.6344</ele>
        <time>2012-04-29T12:07:16Z</time>
      </trkpt>
      <trkpt lat="59.8547904" lon="17.6919082">
        <ele>15.0377</ele>
        <time>2012-04-29T12:07:24Z</time>
      </trkpt>
      <trkpt lat="59.8549928" lon="17.6917666">
        <ele>15.999</ele>
        <time>2012-04-29T12:07:28Z</time>
      </trkpt>
      <trkpt lat="59.8555472" lon="17.6913489">
        <ele>15.5184</ele>
        <time>2012-04-29T12:07:39Z</time>
      </trkpt>
      <trkpt lat="59.8557813" lon="17.6912074">
        <ele>15.0377</ele>
        <time>2012-04-29T12:07:44Z</time>
      </trkpt>
      <trkpt lat="59.8559268" lon="17.6913517">
        <ele>15.5184</ele>
        <time>2012-04-29T12:07:48Z</time>
      </trkpt>
      <trkpt lat="59.8560128" lon="17.6914358">
        <ele>15.5184</ele>
        <time>2012-04-29T12:07:51Z</time>
      </trkpt>
      <trkpt lat="59.8560984" lon="17.6912286">
        <ele>14.557</ele>
        <time>2012-04-29T12:07:54Z</time>
      </trkpt>
      <trkpt lat="59.8561755" lon="17.6909124">
        <ele>14.557</ele>
        <time>2012-04-29T12:07:58Z</time>
      </trkpt>
      <trkpt lat="59.8562903" lon="17.6907404">
        <ele>14.557</ele>
        <time>2012-04-29T12:08:01Z</time>
      </trkpt>
      <trkpt lat="59.8563806" lon="17.6906498">
        <ele>14.557</ele>
        <time>2012-04-29T12:08:03Z</time>
      </trkpt>
      <trkpt lat="59.8564682" lon="17.6905415">
        <ele>14.557</ele>
        <time>2012-04-29T12:08:05Z</time>
      </trkpt>
      <trkpt lat="59.8568882" lon="17.6901339">
        <ele>15.999</ele>
        <time>2012-04-29T12:08:14Z</time>
      </trkpt>
      <trkpt lat="59.8571595" lon="17.6898583">
        <ele>16.4797</ele>
        <time>2012-04-29T12:08:20Z</time>
      </trkpt>
      <trkpt lat="59.8575995" lon="17.6894326">
        <ele>16.4797</ele>
        <time>2012-04-29T12:08:30Z</time>
      </trkpt>
      <trkpt lat="59.8579586" lon="17.689085">
        <ele>15.5184</ele>
        <time>2012-04-29T12:08:38Z</time>
      </trkpt>
      <trkpt lat="59.8581435" lon="17.6889271">
        <ele>15.999</ele>
        <time>2012-04-29T12:08:42Z</time>
      </trkpt>
      <trkpt lat="59.8582898" lon="17.6889949">
        <ele>16.4797</ele>
        <time>2012-04-29T12:08:46Z</time>
      </trkpt>
      <trkpt lat="59.8583839" lon="17.6890503">
        <ele>15.999</ele>
        <time>2012-04-29T12:08:49Z</time>
      </trkpt>
      <trkpt lat="59.858475" lon="17.6887669">
        <ele>15.0377</ele>
        <time>2012-04-29T12:08:52Z</time>
      </trkpt>
      <trkpt lat="59.8585659" lon="17.6884801">
        <ele>15.5184</ele>
        <time>2012-04-29T12:08:56Z</time>
      </trkpt>
      <trkpt lat="59.8586127" lon="17.6884354">
        <ele>15.5184</ele>
        <time>2012-04-29T12:08:57Z</time>
      </trkpt>
      <trkpt lat="59.8588577" lon="17.6883262">
        <ele>15.5184</ele>
        <time>2012-04-29T12:09:02Z</time>
      </trkpt>
      <trkpt lat="59.8590613" lon="17.6883405">
        <ele>16.9604</ele>
        <time>2012-04-29T12:09:06Z</time>
      </trkpt>
      <trkpt lat="59.8592246" lon="17.6881888">
        <ele>15.999</ele>
        <time>2012-04-29T12:09:10Z</time>
      </trkpt>
      <trkpt lat="59.8592552" lon="17.6881236">
        <ele>15.0377</ele>
        <time>2012-04-29T12:09:11Z</time>
      </trkpt>
      <trkpt lat="59.859297" lon="17.6878049">
        <ele>14.0764</ele>
        <time>2012-04-29T12:09:15Z</time>
      </trkpt>
      <trkpt lat="59.8592302" lon="17.6875946">
        <ele>12.1538</ele>
        <time>2012-04-29T12:09:17Z</time>
      </trkpt>
      <trkpt lat="59.8591172" lon="17.6872471">
        <ele>11.1925</ele>
        <time>2012-04-29T12:09:20Z</time>
      </trkpt>
      <trkpt lat="59.8590094" lon="17.6870437">
        <ele>10.7118</ele>
        <time>2012-04-29T12:09:22Z</time>
      </trkpt>
      <trkpt lat="59.8589387" lon="17.6868856">
        <ele>10.2312</ele>
        <time>2012-04-29T12:09:24Z</time>
      </trkpt>
      <trkpt lat="59.8589777" lon="17.6866772">
        <ele>11.1925</ele>
        <time>2012-04-29T12:09:28Z</time>
      </trkpt>
      <trkpt lat="59.859051" lon="17.6866798">
        <ele>12.1538</ele>
        <time>2012-04-29T12:09:30Z</time>
      </trkpt>
      <trkpt lat="59.8591736" lon="17.6866825">
        <ele>13.1151</ele>
        <time>2012-04-29T12:09:33Z</time>
      </trkpt>
      <trkpt lat="59.8593297" lon="17.686659">
        <ele>12.6344</ele>
        <time>2012-04-29T12:09:38Z</time>
      </trkpt>
      <trkpt lat="59.8595221" lon="17.6865406">
        <ele>25.1317</ele>
        <time>2012-04-29T12:10:51Z</time>
      </trkpt>
      <trkpt lat="59.8596315" lon="17.6861929">
        <ele>24.651</ele>
        <time>2012-04-29T12:10:55Z</time>
      </trkpt>
      <trkpt lat="59.8596996" lon="17.6860695">
        <ele>23.209</ele>
        <time>2012-04-29T12:10:57Z</time>
      </trkpt>
      <trkpt lat="59.8600852" lon="17.6855456">
        <ele>21.2864</ele>
        <time>2012-04-29T12:11:05Z</time>
      </trkpt>
      <trkpt lat="59.8604397" lon="17.6851239">
        <ele>18.8831</ele>
        <time>2012-04-29T12:11:12Z</time>
      </trkpt>
      <trkpt lat="59.8609104" lon="17.6846196">
        <ele>16.9604</ele>
        <time>2012-04-29T12:11:21Z</time>
      </trkpt>
      <trkpt lat="59.8613893" lon="17.6842034">
        <ele>14.557</ele>
        <time>2012-04-29T12:11:30Z</time>
      </trkpt>
      <trkpt lat="59.8618685" lon="17.6838517">
        <ele>14.0764</ele>
        <time>2012-04-29T12:11:39Z</time>
      </trkpt>
      <trkpt lat="59.8624102" lon="17.6834843">
        <ele>14.557</ele>
        <time>2012-04-29T12:11:49Z</time>
      </trkpt>
      <trkpt lat="59.8630359" lon="17.6830382">
        <ele>15.0377</ele>
        <time>2012-04-29T12:12:00Z</time>
      </trkpt>
      <trkpt lat="59.8634738" lon="17.6827141">
        <ele>14.557</ele>
        <time>2012-04-29T12:12:08Z</time>
      </trkpt>
      <trkpt lat="59.8638563" lon="17.682455">
        <ele>13.5958</ele>
        <time>2012-04-29T12:12:15Z</time>
      </trkpt>
      <trkpt lat="59.8644134" lon="17.6820495">
        <ele>13.1151</ele>
        <time>2012-04-29T12:12:25Z</time>
      </trkpt>
      <trkpt lat="59.8647765" lon="17.6817526">
        <ele>13.1151</ele>
        <time>2012-04-29T12:12:32Z</time>
      </trkpt>
      <trkpt lat="59.8650282" lon="17.6813269">
        <ele>12.6344</ele>
        <time>2012-04-29T12:12:38Z</time>
      </trkpt>
      <trkpt lat="59.865224" lon="17.6812458">
        <ele>12.6344</ele>
        <time>2012-04-29T12:12:42Z</time>
      </trkpt>
      <trkpt lat="59.8653711" lon="17.6812942">
        <ele>12.1538</ele>
        <time>2012-04-29T12:12:45Z</time>
      </trkpt>
      <trkpt lat="59.8656224" lon="17.6812459">
        <ele>12.6344</ele>
        <time>2012-04-29T12:12:50Z</time>
      </trkpt>
      <trkpt lat="59.8660228" lon="17.6810367">
        <ele>13.5958</ele>
        <time>2012-04-29T12:12:58Z</time>
      </trkpt>
      <trkpt lat="59.866421" lon="17.6808031">
        <ele>15.0377</ele>
        <time>2012-04-29T12:13:06Z</time>
      </trkpt>
      <trkpt lat="59.8669387" lon="17.6805773">
        <ele>15.5184</ele>
        <time>2012-04-29T12:13:16Z</time>
      </trkpt>
      <trkpt lat="59.8669901" lon="17.6805654">
        <ele>15.5184</ele>
        <time>2012-04-29T12:13:17Z</time>
      </trkpt>
      <trkpt lat="59.8672381" lon="17.6804139">
        <ele>15.999</ele>
        <time>2012-04-29T12:13:22Z</time>
      </trkpt>
      <trkpt lat="59.8677866" lon="17.6802007">
        <ele>15.0377</ele>
        <time>2012-04-29T12:13:32Z</time>
      </trkpt>
      <trkpt lat="59.8682625" lon="17.6799841">
        <ele>14.557</ele>
        <time>2012-04-29T12:13:41Z</time>
      </trkpt>
      <trkpt lat="59.8685864" lon="17.6795856">
        <ele>14.557</ele>
        <time>2012-04-29T12:13:48Z</time>
      </trkpt>
      <trkpt lat="59.86863" lon="17.6795008">
        <ele>14.0764</ele>
        <time>2012-04-29T12:13:49Z</time>
      </trkpt>
      <trkpt lat="59.86886" lon="17.6792879">
        <ele>13.5958</ele>
        <time>2012-04-29T12:13:53Z</time>
      </trkpt>
      <trkpt lat="59.8689692" lon="17.6793365">
        <ele>14.0764</ele>
        <time>2012-04-29T12:13:55Z</time>
      </trkpt>
      <trkpt lat="59.8691431" lon="17.6794862">
        <ele>15.999</ele>
        <time>2012-04-29T12:13:59Z</time>
      </trkpt>
      <trkpt lat="59.8693506" lon="17.6795015">
        <ele>16.9604</ele>
        <time>2012-04-29T12:14:04Z</time>
      </trkpt>
      <trkpt lat="59.8696752" lon="17.6793309">
        <ele>16.9604</ele>
        <time>2012-04-29T12:14:11Z</time>
      </trkpt>
      <trkpt lat="59.8700306" lon="17.6791406">
        <ele>17.9218</ele>
        <time>2012-04-29T12:14:18Z</time>
      </trkpt>
      <trkpt lat="59.8703556" lon="17.6790372">
        <ele>18.4023</ele>
        <time>2012-04-29T12:14:24Z</time>
      </trkpt>
      <trkpt lat="59.8708523" lon="17.6789">
        <ele>18.8831</ele>
        <time>2012-04-29T12:14:33Z</time>
      </trkpt>
      <trkpt lat="59.8713449" lon="17.6787762">
        <ele>20.325</ele>
        <time>2012-04-29T12:14:42Z</time>
      </trkpt>
      <trkpt lat="59.8718023" lon="17.6786388">
        <ele>22.7283</ele>
        <time>2012-04-29T12:14:51Z</time>
      </trkpt>
      <trkpt lat="59.872337" lon="17.6785208">
        <ele>24.1703</ele>
        <time>2012-04-29T12:15:01Z</time>
      </trkpt>
      <trkpt lat="59.8728716" lon="17.6783952">
        <ele>25.6123</ele>
        <time>2012-04-29T12:15:11Z</time>
      </trkpt>
      <trkpt lat="59.8733905" lon="17.6782536">
        <ele>26.5736</ele>
        <time>2012-04-29T12:15:21Z</time>
      </trkpt>
      <trkpt lat="59.8736709" lon="17.6781658">
        <ele>27.0543</ele>
        <time>2012-04-29T12:15:27Z</time>
      </trkpt>
      <trkpt lat="59.8737959" lon="17.6779412">
        <ele>26.0929</ele>
        <time>2012-04-29T12:15:31Z</time>
      </trkpt>
      <trkpt lat="59.873807" lon="17.6778435">
        <ele>25.6123</ele>
        <time>2012-04-29T12:15:32Z</time>
      </trkpt>
      <trkpt lat="59.8738698" lon="17.6773356">
        <ele>23.6896</ele>
        <time>2012-04-29T12:15:37Z</time>
      </trkpt>
      <trkpt lat="59.8739038" lon="17.6770308">
        <ele>23.209</ele>
        <time>2012-04-29T12:15:40Z</time>
      </trkpt>
      <trkpt lat="59.8740354" lon="17.6765906">
        <ele>23.6896</ele>
        <time>2012-04-29T12:15:45Z</time>
      </trkpt>
      <trkpt lat="59.8741271" lon="17.6765122">
        <ele>24.651</ele>
        <time>2012-04-29T12:15:47Z</time>
      </trkpt>
      <trkpt lat="59.8742248" lon="17.6764618">
        <ele>24.651</ele>
        <time>2012-04-29T12:15:49Z</time>
      </trkpt>
      <trkpt lat="59.8744722" lon="17.6762408">
        <ele>22.7283</ele>
        <time>2012-04-29T12:15:54Z</time>
      </trkpt>
      <trkpt lat="59.8745235" lon="17.6760343">
        <ele>23.6896</ele>
        <time>2012-04-29T12:15:56Z</time>
      </trkpt>
      <trkpt lat="59.8745587" lon="17.6758055">
        <ele>23.6896</ele>
        <time>2012-04-29T12:15:58Z</time>
      </trkpt>
      <trkpt lat="59.8747467" lon="17.6754168">
        <ele>22.2476</ele>
        <time>2012-04-29T12:16:03Z</time>
      </trkpt>
      <trkpt lat="59.8750833" lon="17.6751343">
        <ele>21.2864</ele>
        <time>2012-04-29T12:16:09Z</time>
      </trkpt>
      <trkpt lat="59.8752321" lon="17.6751351">
        <ele>20.8057</ele>
        <time>2012-04-29T12:16:11Z</time>
      </trkpt>
      <trkpt lat="59.8754707" lon="17.6748952">
        <ele>19.8444</ele>
        <time>2012-04-29T12:16:14Z</time>
      </trkpt>
      <trkpt lat="59.8756387" lon="17.6746435">
        <ele>18.8831</ele>
        <time>2012-04-29T12:16:18Z</time>
      </trkpt>
      <trkpt lat="59.8758222" lon="17.6741746">
        <ele>18.4023</ele>
        <time>2012-04-29T12:16:25Z</time>
      </trkpt>
      <trkpt lat="59.875906" lon="17.6742999">
        <ele>20.325</ele>
        <time>2012-04-29T12:16:29Z</time>
      </trkpt>
      <trkpt lat="59.8759177" lon="17.6743782">
        <ele>20.8057</ele>
        <time>2012-04-29T12:16:30Z</time>
      </trkpt>
      <trkpt lat="59.8759986" lon="17.6750579">
        <ele>23.209</ele>
        <time>2012-04-29T12:16:37Z</time>
      </trkpt>
      <trkpt lat="59.8760757" lon="17.6755349">
        <ele>23.6896</ele>
        <time>2012-04-29T12:16:42Z</time>
      </trkpt>
      <trkpt lat="59.8762381" lon="17.6758266">
        <ele>25.6123</ele>
        <time>2012-04-29T12:16:47Z</time>
      </trkpt>
      <trkpt lat="59.87644" lon="17.6758204">
        <ele>26.0929</ele>
        <time>2012-04-29T12:16:51Z</time>
      </trkpt>
      <trkpt lat="59.8765688" lon="17.6757816">
        <ele>26.0929</ele>
        <time>2012-04-29T12:16:54Z</time>
      </trkpt>
      <trkpt lat="59.8768824" lon="17.6757674">
        <ele>23.209</ele>
        <time>2012-04-29T12:17:01Z</time>
      </trkpt>
      <trkpt lat="59.8769716" lon="17.6757746">
        <ele>23.6896</ele>
        <time>2012-04-29T12:17:03Z</time>
      </trkpt>
      <trkpt lat="59.8770621" lon="17.6757397">
        <ele>24.1703</ele>
        <time>2012-04-29T12:17:05Z</time>
      </trkpt>
      <trkpt lat="59.8773543" lon="17.6754998">
        <ele>26.0929</ele>
        <time>2012-04-29T12:17:11Z</time>
      </trkpt>
      <trkpt lat="59.8774474" lon="17.6754148">
        <ele>25.6123</ele>
        <time>2012-04-29T12:17:13Z</time>
      </trkpt>
      <trkpt lat="59.8776424" lon="17.6754091">
        <ele>29.9381</ele>
        <time>2012-04-29T12:17:17Z</time>
      </trkpt>
      <trkpt lat="59.8777832" lon="17.6753825">
        <ele>33.3029</ele>
        <time>2012-04-29T12:17:20Z</time>
      </trkpt>
      <trkpt lat="59.8779551" lon="17.6753902">
        <ele>34.7449</ele>
        <time>2012-04-29T12:17:24Z</time>
      </trkpt>
      <trkpt lat="59.8780189" lon="17.675321">
        <ele>34.2642</ele>
        <time>2012-04-29T12:17:26Z</time>
      </trkpt>
      <trkpt lat="59.8782552" lon="17.6750478">
        <ele>33.7834</ele>
        <time>2012-04-29T12:17:33Z</time>
      </trkpt>
      <trkpt lat="59.8785073" lon="17.6747528">
        <ele>34.7449</ele>
        <time>2012-04-29T12:17:40Z</time>
      </trkpt>
      <trkpt lat="59.8785509" lon="17.6745172">
        <ele>29.9381</ele>
        <time>2012-04-29T12:17:44Z</time>
      </trkpt>
      <trkpt lat="59.8784555" lon="17.6740664">
        <ele>28.4962</ele>
        <time>2012-04-29T12:17:51Z</time>
      </trkpt>
      <trkpt lat="59.8783544" lon="17.6735546">
        <ele>27.0543</ele>
        <time>2012-04-29T12:17:58Z</time>
      </trkpt>
      <trkpt lat="59.8783721" lon="17.6732977">
        <ele>27.0543</ele>
        <time>2012-04-29T12:18:02Z</time>
      </trkpt>
      <trkpt lat="59.878379" lon="17.6731235">
        <ele>26.5736</ele>
        <time>2012-04-29T12:18:05Z</time>
      </trkpt>
      <trkpt lat="59.8784792" lon="17.6729238">
        <ele>27.5349</ele>
        <time>2012-04-29T12:18:09Z</time>
      </trkpt>
      <trkpt lat="59.8786065" lon="17.6728755">
        <ele>28.4962</ele>
        <time>2012-04-29T12:18:13Z</time>
      </trkpt>
      <trkpt lat="59.8786224" lon="17.6726622">
        <ele>27.0543</ele>
        <time>2012-04-29T12:18:18Z</time>
      </trkpt>
      <trkpt lat="59.8786084" lon="17.6723915">
        <ele>26.5736</ele>
        <time>2012-04-29T12:18:22Z</time>
      </trkpt>
      <trkpt lat="59.8786005" lon="17.6720068">
        <ele>26.0929</ele>
        <time>2012-04-29T12:18:28Z</time>
      </trkpt>
      <trkpt lat="59.8786649" lon="17.6719087">
        <ele>25.6123</ele>
        <time>2012-04-29T12:18:35Z</time>
      </trkpt>
      <trkpt lat="59.8787362" lon="17.6719795">
        <ele>25.1317</ele>
        <time>2012-04-29T12:18:39Z</time>
      </trkpt>
      <trkpt lat="59.87876" lon="17.6719911">
        <ele>23.6896</ele>
        <time>2012-04-29T12:18:43Z</time>
      </trkpt>
      <trkpt lat="59.8787483" lon="17.6716198">
        <ele>21.767</ele>
        <time>2012-04-29T12:18:49Z</time>
      </trkpt>
      <trkpt lat="59.8787565" lon="17.6715333">
        <ele>21.767</ele>
        <time>2012-04-29T12:18:50Z</time>
      </trkpt>
      <trkpt lat="59.8788923" lon="17.6713565">
        <ele>21.767</ele>
        <time>2012-04-29T12:18:54Z</time>
      </trkpt>
      <trkpt lat="59.8790309" lon="17.6714101">
        <ele>20.8057</ele>
        <time>2012-04-29T12:18:58Z</time>
      </trkpt>
      <trkpt lat="59.8792614" lon="17.671393">
        <ele>20.8057</ele>
        <time>2012-04-29T12:19:03Z</time>
      </trkpt>
      <trkpt lat="59.8794621" lon="17.6711433">
        <ele>21.767</ele>
        <time>2012-04-29T12:19:07Z</time>
      </trkpt>
      <trkpt lat="59.8796005" lon="17.6709743">
        <ele>21.2864</ele>
        <time>2012-04-29T12:19:10Z</time>
      </trkpt>
      <trkpt lat="59.8796875" lon="17.670876">
        <ele>22.2476</ele>
        <time>2012-04-29T12:19:12Z</time>
      </trkpt>
      <trkpt lat="59.8799299" lon="17.6704796">
        <ele>28.0155</ele>
        <time>2012-04-29T12:19:18Z</time>
      </trkpt>
      <trkpt lat="59.8802092" lon="17.6700868">
        <ele>26.5736</ele>
        <time>2012-04-29T12:19:24Z</time>
      </trkpt>
      <trkpt lat="59.8805363" lon="17.669414">
        <ele>27.5349</ele>
        <time>2012-04-29T12:19:32Z</time>
      </trkpt>
      <trkpt lat="59.8806307" lon="17.6691402">
        <ele>26.0929</ele>
        <time>2012-04-29T12:19:35Z</time>
      </trkpt>
      <trkpt lat="59.8808227" lon="17.6687984">
        <ele>22.2476</ele>
        <time>2012-04-29T12:19:40Z</time>
      </trkpt>
      <trkpt lat="59.8809121" lon="17.6686428">
        <ele>21.767</ele>
        <time>2012-04-29T12:19:42Z</time>
      </trkpt>
      <trkpt lat="59.881077" lon="17.6681626">
        <ele>20.325</ele>
        <time>2012-04-29T12:19:46Z</time>
      </trkpt>
      <trkpt lat="59.8813218" lon="17.6673794">
        <ele>19.8444</ele>
        <time>2012-04-29T12:19:52Z</time>
      </trkpt>
      <trkpt lat="59.8816196" lon="17.666391">
        <ele>19.8444</ele>
        <time>2012-04-29T12:20:01Z</time>
      </trkpt>
      <trkpt lat="59.8818672" lon="17.6655985">
        <ele>18.8831</ele>
        <time>2012-04-29T12:20:09Z</time>
      </trkpt>
      <trkpt lat="59.8820214" lon="17.6651376">
        <ele>18.4023</ele>
        <time>2012-04-29T12:20:14Z</time>
      </trkpt>
      <trkpt lat="59.8822598" lon="17.6648562">
        <ele>18.4023</ele>
        <time>2012-04-29T12:20:19Z</time>
      </trkpt>
      <trkpt lat="59.8827738" lon="17.6647599">
        <ele>15.0377</ele>
        <time>2012-04-29T12:20:28Z</time>
      </trkpt>
      <trkpt lat="59.8831067" lon="17.6647045">
        <ele>14.557</ele>
        <time>2012-04-29T12:20:34Z</time>
      </trkpt>
      <trkpt lat="59.8832467" lon="17.6646242">
        <ele>15.999</ele>
        <time>2012-04-29T12:20:37Z</time>
      </trkpt>
      <trkpt lat="59.8833917" lon="17.6644474">
        <ele>17.4412</ele>
        <time>2012-04-29T12:20:41Z</time>
      </trkpt>
      <trkpt lat="59.8835931" lon="17.6639139">
        <ele>17.4412</ele>
        <time>2012-04-29T12:20:48Z</time>
      </trkpt>
      <trkpt lat="59.8837489" lon="17.6631554">
        <ele>19.3638</ele>
        <time>2012-04-29T12:20:55Z</time>
      </trkpt>
      <trkpt lat="59.8838349" lon="17.662467">
        <ele>18.8831</ele>
        <time>2012-04-29T12:21:01Z</time>
      </trkpt>
      <trkpt lat="59.8839476" lon="17.6618434">
        <ele>16.9604</ele>
        <time>2012-04-29T12:21:07Z</time>
      </trkpt>
      <trkpt lat="59.8841491" lon="17.6613001">
        <ele>17.9218</ele>
        <time>2012-04-29T12:21:13Z</time>
      </trkpt>
      <trkpt lat="59.8842458" lon="17.6611515">
        <ele>17.9218</ele>
        <time>2012-04-29T12:21:15Z</time>
      </trkpt>
      <trkpt lat="59.8847407" lon="17.6607101">
        <ele>16.4797</ele>
        <time>2012-04-29T12:21:23Z</time>
      </trkpt>
      <trkpt lat="59.8851561" lon="17.6604299">
        <ele>15.5184</ele>
        <time>2012-04-29T12:21:29Z</time>
      </trkpt>
      <trkpt lat="59.8854089" lon="17.660007">
        <ele>14.0764</ele>
        <time>2012-04-29T12:21:34Z</time>
      </trkpt>
      <trkpt lat="59.8854985" lon="17.6595345">
        <ele>14.0764</ele>
        <time>2012-04-29T12:21:39Z</time>
      </trkpt>
      <trkpt lat="59.8855016" lon="17.6585627">
        <ele>16.9604</ele>
        <time>2012-04-29T12:21:49Z</time>
      </trkpt>
      <trkpt lat="59.885613" lon="17.6579014">
        <ele>15.5184</ele>
        <time>2012-04-29T12:21:55Z</time>
      </trkpt>
      <trkpt lat="59.8857088" lon="17.6577153">
        <ele>15.0377</ele>
        <time>2012-04-29T12:21:57Z</time>
      </trkpt>
      <trkpt lat="59.8858492" lon="17.6574824">
        <ele>15.0377</ele>
        <time>2012-04-29T12:22:00Z</time>
      </trkpt>
      <trkpt lat="59.8859585" lon="17.6570755">
        <ele>15.0377</ele>
        <time>2012-04-29T12:22:04Z</time>
      </trkpt>
      <trkpt lat="59.8859787" lon="17.6568576">
        <ele>15.999</ele>
        <time>2012-04-29T12:22:06Z</time>
      </trkpt>
      <trkpt lat="59.8860779" lon="17.6564366">
        <ele>21.767</ele>
        <time>2012-04-29T12:22:11Z</time>
      </trkpt>
      <trkpt lat="59.8863221" lon="17.6557641">
        <ele>20.325</ele>
        <time>2012-04-29T12:22:20Z</time>
      </trkpt>
      <trkpt lat="59.8863944" lon="17.6556235">
        <ele>19.3638</ele>
        <time>2012-04-29T12:22:22Z</time>
      </trkpt>
      <trkpt lat="59.8866086" lon="17.655406">
        <ele>22.2476</ele>
        <time>2012-04-29T12:22:27Z</time>
      </trkpt>
      <trkpt lat="59.8866976" lon="17.6553085">
        <ele>25.1317</ele>
        <time>2012-04-29T12:22:29Z</time>
      </trkpt>
      <trkpt lat="59.8868009" lon="17.6551671">
        <ele>26.0929</ele>
        <time>2012-04-29T12:22:32Z</time>
      </trkpt>
      <trkpt lat="59.8869784" lon="17.6548279">
        <ele>24.651</ele>
        <time>2012-04-29T12:22:37Z</time>
      </trkpt>
      <trkpt lat="59.887252" lon="17.6540945">
        <ele>22.7283</ele>
        <time>2012-04-29T12:22:45Z</time>
      </trkpt>
      <trkpt lat="59.887533" lon="17.653338">
        <ele>19.8444</ele>
        <time>2012-04-29T12:22:53Z</time>
      </trkpt>
      <trkpt lat="59.8877549" lon="17.6527466">
        <ele>18.8831</ele>
        <time>2012-04-29T12:22:59Z</time>
      </trkpt>
      <trkpt lat="59.8878276" lon="17.6525484">
        <ele>18.4023</ele>
        <time>2012-04-29T12:23:01Z</time>
      </trkpt>
      <trkpt lat="59.8880769" lon="17.6519288">
        <ele>16.9604</ele>
        <time>2012-04-29T12:23:08Z</time>
      </trkpt>
      <trkpt lat="59.8881445" lon="17.6517552">
        <ele>16.4797</ele>
        <time>2012-04-29T12:23:10Z</time>
      </trkpt>
      <trkpt lat="59.8883386" lon="17.6513079">
        <ele>27.0543</ele>
        <time>2012-04-29T12:23:15Z</time>
      </trkpt>
      <trkpt lat="59.8884205" lon="17.6510243">
        <ele>28.0155</ele>
        <time>2012-04-29T12:23:17Z</time>
      </trkpt>
      <trkpt lat="59.8885644" lon="17.6505616">
        <ele>26.0929</ele>
        <time>2012-04-29T12:23:22Z</time>
      </trkpt>
      <trkpt lat="59.8886665" lon="17.650271">
        <ele>25.1317</ele>
        <time>2012-04-29T12:23:25Z</time>
      </trkpt>
      <trkpt lat="59.8888536" lon="17.6497838">
        <ele>22.7283</ele>
        <time>2012-04-29T12:23:30Z</time>
      </trkpt>
      <trkpt lat="59.8890987" lon="17.6492852">
        <ele>23.6896</ele>
        <time>2012-04-29T12:23:37Z</time>
      </trkpt>
      <trkpt lat="59.8891582" lon="17.6491188">
        <ele>24.651</ele>
        <time>2012-04-29T12:23:39Z</time>
      </trkpt>
      <trkpt lat="59.8892586" lon="17.6488826">
        <ele>24.1703</ele>
        <time>2012-04-29T12:23:42Z</time>
      </trkpt>
      <trkpt lat="59.8894343" lon="17.6484316">
        <ele>24.651</ele>
        <time>2012-04-29T12:23:47Z</time>
      </trkpt>
      <trkpt lat="59.8895566" lon="17.6478541">
        <ele>29.4575</ele>
        <time>2012-04-29T12:23:52Z</time>
      </trkpt>
      <trkpt lat="59.8896357" lon="17.6473961">
        <ele>28.0155</ele>
        <time>2012-04-29T12:23:56Z</time>
      </trkpt>
      <trkpt lat="59.8897431" lon="17.6468932">
        <ele>24.1703</ele>
        <time>2012-04-29T12:24:00Z</time>
      </trkpt>
      <trkpt lat="59.8897886" lon="17.6466093">
        <ele>24.1703</ele>
        <time>2012-04-29T12:24:02Z</time>
      </trkpt>
      <trkpt lat="59.8899444" lon="17.6462254">
        <ele>22.2476</ele>
        <time>2012-04-29T12:24:06Z</time>
      </trkpt>
      <trkpt lat="59.8901104" lon="17.6458904">
        <ele>23.209</ele>
        <time>2012-04-29T12:24:12Z</time>
      </trkpt>
      <trkpt lat="59.8901923" lon="17.6454344">
        <ele>22.2476</ele>
        <time>2012-04-29T12:24:18Z</time>
      </trkpt>
      <trkpt lat="59.890277" lon="17.6447655">
        <ele>20.8057</ele>
        <time>2012-04-29T12:24:25Z</time>
      </trkpt>
      <trkpt lat="59.8903548" lon="17.6440341">
        <ele>20.325</ele>
        <time>2012-04-29T12:24:32Z</time>
      </trkpt>
      <trkpt lat="59.890417" lon="17.6433877">
        <ele>19.8444</ele>
        <time>2012-04-29T12:24:38Z</time>
      </trkpt>
      <trkpt lat="59.8903277" lon="17.6429932">
        <ele>20.8057</ele>
        <time>2012-04-29T12:24:42Z</time>
      </trkpt>
      <trkpt lat="59.8902945" lon="17.6428925">
        <ele>21.2864</ele>
        <time>2012-04-29T12:24:43Z</time>
      </trkpt>
      <trkpt lat="59.8902528" lon="17.6424482">
        <ele>22.2476</ele>
        <time>2012-04-29T12:24:47Z</time>
      </trkpt>
      <trkpt lat="59.8902668" lon="17.6423365">
        <ele>22.2476</ele>
        <time>2012-04-29T12:24:48Z</time>
      </trkpt>
      <trkpt lat="59.8902993" lon="17.6421165">
        <ele>22.2476</ele>
        <time>2012-04-29T12:24:50Z</time>
      </trkpt>
      <trkpt lat="59.8903671" lon="17.6415561">
        <ele>22.2476</ele>
        <time>2012-04-29T12:24:55Z</time>
      </trkpt>
      <trkpt lat="59.8905093" lon="17.6411567">
        <ele>21.767</ele>
        <time>2012-04-29T12:24:59Z</time>
      </trkpt>
      <trkpt lat="59.890534" lon="17.6410503">
        <ele>22.2476</ele>
        <time>2012-04-29T12:25:00Z</time>
      </trkpt>
      <trkpt lat="59.8906992" lon="17.6402252">
        <ele>22.7283</ele>
        <time>2012-04-29T12:25:08Z</time>
      </trkpt>
      <trkpt lat="59.8908193" lon="17.6394823">
        <ele>22.7283</ele>
        <time>2012-04-29T12:25:15Z</time>
      </trkpt>
      <trkpt lat="59.8909282" lon="17.638781">
        <ele>22.7283</ele>
        <time>2012-04-29T12:25:22Z</time>
      </trkpt>
      <trkpt lat="59.8910332" lon="17.6385742">
        <ele>22.7283</ele>
        <time>2012-04-29T12:25:26Z</time>
      </trkpt>
      <trkpt lat="59.8911256" lon="17.638572">
        <ele>23.209</ele>
        <time>2012-04-29T12:25:28Z</time>
      </trkpt>
      <trkpt lat="59.8914401" lon="17.6386097">
        <ele>24.651</ele>
        <time>2012-04-29T12:25:35Z</time>
      </trkpt>
      <trkpt lat="59.8917919" lon="17.6385903">
        <ele>25.6123</ele>
        <time>2012-04-29T12:25:42Z</time>
      </trkpt>
      <trkpt lat="59.8922488" lon="17.638559">
        <ele>25.6123</ele>
        <time>2012-04-29T12:25:51Z</time>
      </trkpt>
      <trkpt lat="59.8923372" lon="17.6385318">
        <ele>26.0929</ele>
        <time>2012-04-29T12:25:53Z</time>
      </trkpt>
      <trkpt lat="59.8924635" lon="17.6385003">
        <ele>27.0543</ele>
        <time>2012-04-29T12:25:56Z</time>
      </trkpt>
      <trkpt lat="59.8926023" lon="17.6384993">
        <ele>28.0155</ele>
        <time>2012-04-29T12:25:59Z</time>
      </trkpt>
      <trkpt lat="59.892774" lon="17.6384302">
        <ele>28.4962</ele>
        <time>2012-04-29T12:26:03Z</time>
      </trkpt>
      <trkpt lat="59.8928511" lon="17.6383589">
        <ele>29.4575</ele>
        <time>2012-04-29T12:26:05Z</time>
      </trkpt>
      <trkpt lat="59.8930117" lon="17.6382859">
        <ele>28.9769</ele>
        <time>2012-04-29T12:26:09Z</time>
      </trkpt>
      <trkpt lat="59.8931339" lon="17.6382266">
        <ele>28.0155</ele>
        <time>2012-04-29T12:26:12Z</time>
      </trkpt>
      <trkpt lat="59.8934319" lon="17.6380283">
        <ele>28.0155</ele>
        <time>2012-04-29T12:26:19Z</time>
      </trkpt>
      <trkpt lat="59.8936694" lon="17.6378865">
        <ele>26.5736</ele>
        <time>2012-04-29T12:26:24Z</time>
      </trkpt>
      <trkpt lat="59.8941496" lon="17.6375368">
        <ele>25.1317</ele>
        <time>2012-04-29T12:26:34Z</time>
      </trkpt>
      <trkpt lat="59.8944518" lon="17.63733">
        <ele>25.6123</ele>
        <time>2012-04-29T12:26:40Z</time>
      </trkpt>
      <trkpt lat="59.8947706" lon="17.637135">
        <ele>25.1317</ele>
        <time>2012-04-29T12:26:46Z</time>
      </trkpt>
      <trkpt lat="59.8949568" lon="17.6369981">
        <ele>23.6896</ele>
        <time>2012-04-29T12:26:50Z</time>
      </trkpt>
      <trkpt lat="59.895255" lon="17.6368246">
        <ele>21.767</ele>
        <time>2012-04-29T12:26:56Z</time>
      </trkpt>
      <trkpt lat="59.8955716" lon="17.6365498">
        <ele>20.8057</ele>
        <time>2012-04-29T12:27:02Z</time>
      </trkpt>
      <trkpt lat="59.8956671" lon="17.6364708">
        <ele>20.8057</ele>
        <time>2012-04-29T12:27:04Z</time>
      </trkpt>
      <trkpt lat="59.8957533" lon="17.6364282">
        <ele>21.767</ele>
        <time>2012-04-29T12:27:06Z</time>
      </trkpt>
      <trkpt lat="59.896055" lon="17.6363744">
        <ele>23.6896</ele>
        <time>2012-04-29T12:27:12Z</time>
      </trkpt>
      <trkpt lat="59.8964979" lon="17.6365536">
        <ele>27.0543</ele>
        <time>2012-04-29T12:27:21Z</time>
      </trkpt>
      <trkpt lat="59.8966984" lon="17.6366094">
        <ele>27.0543</ele>
        <time>2012-04-29T12:27:25Z</time>
      </trkpt>
      <trkpt lat="59.8968587" lon="17.6366676">
        <ele>27.5349</ele>
        <time>2012-04-29T12:27:28Z</time>
      </trkpt>
      <trkpt lat="59.897111" lon="17.6368066">
        <ele>28.9769</ele>
        <time>2012-04-29T12:27:33Z</time>
      </trkpt>
      <trkpt lat="59.8972682" lon="17.6368109">
        <ele>28.0155</ele>
        <time>2012-04-29T12:27:36Z</time>
      </trkpt>
      <trkpt lat="59.897482" lon="17.6368856">
        <ele>27.0543</ele>
        <time>2012-04-29T12:27:40Z</time>
      </trkpt>
      <trkpt lat="59.8977984" lon="17.6370867">
        <ele>25.6123</ele>
        <time>2012-04-29T12:27:46Z</time>
      </trkpt>
      <trkpt lat="59.897859" lon="17.6371198">
        <ele>25.6123</ele>
        <time>2012-04-29T12:27:47Z</time>
      </trkpt>
      <trkpt lat="59.8982584" lon="17.6374417">
        <ele>24.651</ele>
        <time>2012-04-29T12:27:53Z</time>
      </trkpt>
      <trkpt lat="59.8985195" lon="17.6376457">
        <ele>24.651</ele>
        <time>2012-04-29T12:27:57Z</time>
      </trkpt>
      <trkpt lat="59.8989243" lon="17.6380507">
        <ele>22.7283</ele>
        <time>2012-04-29T12:28:05Z</time>
      </trkpt>
      <trkpt lat="59.8990713" lon="17.6381857">
        <ele>23.6896</ele>
        <time>2012-04-29T12:28:08Z</time>
      </trkpt>
      <trkpt lat="59.8995308" lon="17.6386418">
        <ele>20.325</ele>
        <time>2012-04-29T12:28:17Z</time>
      </trkpt>
      <trkpt lat="59.9000272" lon="17.6391607">
        <ele>21.767</ele>
        <time>2012-04-29T12:28:26Z</time>
      </trkpt>
      <trkpt lat="59.9005029" lon="17.6396453">
        <ele>23.209</ele>
        <time>2012-04-29T12:28:35Z</time>
      </trkpt>
      <trkpt lat="59.9009092" lon="17.6400431">
        <ele>24.651</ele>
        <time>2012-04-29T12:28:43Z</time>
      </trkpt>
      <trkpt lat="59.9014506" lon="17.6406018">
        <ele>22.7283</ele>
        <time>2012-04-29T12:28:54Z</time>
      </trkpt>
      <trkpt lat="59.9021034" lon="17.6411722">
        <ele>20.8057</ele>
        <time>2012-04-29T12:29:07Z</time>
      </trkpt>
      <trkpt lat="59.9025602" lon="17.6414832">
        <ele>21.2864</ele>
        <time>2012-04-29T12:29:16Z</time>
      </trkpt>
      <trkpt lat="59.9029575" lon="17.6416875">
        <ele>22.2476</ele>
        <time>2012-04-29T12:29:24Z</time>
      </trkpt>
      <trkpt lat="59.9033222" lon="17.6418678">
        <ele>23.209</ele>
        <time>2012-04-29T12:29:32Z</time>
      </trkpt>
      <trkpt lat="59.9035247" lon="17.6419897">
        <ele>25.1317</ele>
        <time>2012-04-29T12:29:37Z</time>
      </trkpt>
      <trkpt lat="59.903718" lon="17.6420191">
        <ele>24.651</ele>
        <time>2012-04-29T12:29:42Z</time>
      </trkpt>
      <trkpt lat="59.9041195" lon="17.6422269">
        <ele>25.6123</ele>
        <time>2012-04-29T12:29:51Z</time>
      </trkpt>
      <trkpt lat="59.9044628" lon="17.6424285">
        <ele>25.1317</ele>
        <time>2012-04-29T12:29:58Z</time>
      </trkpt>
      <trkpt lat="59.9047895" lon="17.6426451">
        <ele>25.1317</ele>
        <time>2012-04-29T12:30:04Z</time>
      </trkpt>
      <trkpt lat="59.904841" lon="17.6426843">
        <ele>24.651</ele>
        <time>2012-04-29T12:30:05Z</time>
      </trkpt>
      <trkpt lat="59.9051852" lon="17.642807">
        <ele>23.6896</ele>
        <time>2012-04-29T12:30:12Z</time>
      </trkpt>
      <trkpt lat="59.9054287" lon="17.6429279">
        <ele>23.6896</ele>
        <time>2012-04-29T12:30:17Z</time>
      </trkpt>
      <trkpt lat="59.9057466" lon="17.6429807">
        <ele>22.2476</ele>
        <time>2012-04-29T12:30:23Z</time>
      </trkpt>
      <trkpt lat="59.9061495" lon="17.6431918">
        <ele>24.1703</ele>
        <time>2012-04-29T12:30:31Z</time>
      </trkpt>
      <trkpt lat="59.9065662" lon="17.6433563">
        <ele>26.0929</ele>
        <time>2012-04-29T12:30:40Z</time>
      </trkpt>
      <trkpt lat="59.9070979" lon="17.6435162">
        <ele>26.5736</ele>
        <time>2012-04-29T12:30:52Z</time>
      </trkpt>
      <trkpt lat="59.9075527" lon="17.643609">
        <ele>27.5349</ele>
        <time>2012-04-29T12:31:02Z</time>
      </trkpt>
      <trkpt lat="59.9079967" lon="17.6436968">
        <ele>29.4575</ele>
        <time>2012-04-29T12:31:12Z</time>
      </trkpt>
      <trkpt lat="59.9084285" lon="17.6437453">
        <ele>30.4188</ele>
        <time>2012-04-29T12:31:21Z</time>
      </trkpt>
      <trkpt lat="59.9084789" lon="17.6437493">
        <ele>29.9381</ele>
        <time>2012-04-29T12:31:22Z</time>
      </trkpt>
      <trkpt lat="59.9088555" lon="17.6437308">
        <ele>30.4188</ele>
        <time>2012-04-29T12:31:30Z</time>
      </trkpt>
      <trkpt lat="59.9091413" lon="17.6437">
        <ele>30.4188</ele>
        <time>2012-04-29T12:31:36Z</time>
      </trkpt>
      <trkpt lat="59.9095274" lon="17.643635">
        <ele>28.9769</ele>
        <time>2012-04-29T12:31:44Z</time>
      </trkpt>
      <trkpt lat="59.9098631" lon="17.6435739">
        <ele>28.9769</ele>
        <time>2012-04-29T12:31:51Z</time>
      </trkpt>
      <trkpt lat="59.9100794" lon="17.6436556">
        <ele>30.4188</ele>
        <time>2012-04-29T12:31:56Z</time>
      </trkpt>
      <trkpt lat="59.9103871" lon="17.6436267">
        <ele>29.9381</ele>
        <time>2012-04-29T12:32:03Z</time>
      </trkpt>
      <trkpt lat="59.9106096" lon="17.6435126">
        <ele>28.9769</ele>
        <time>2012-04-29T12:32:08Z</time>
      </trkpt>
      <trkpt lat="59.9110761" lon="17.6434215">
        <ele>29.9381</ele>
        <time>2012-04-29T12:32:17Z</time>
      </trkpt>
      <trkpt lat="59.9114519" lon="17.6433384">
        <ele>29.9381</ele>
        <time>2012-04-29T12:32:24Z</time>
      </trkpt>
      <trkpt lat="59.911807" lon="17.6432752">
        <ele>29.9381</ele>
        <time>2012-04-29T12:32:30Z</time>
      </trkpt>
      <trkpt lat="59.9121532" lon="17.6431692">
        <ele>28.4962</ele>
        <time>2012-04-29T12:32:36Z</time>
      </trkpt>
      <trkpt lat="59.9125433" lon="17.6430897">
        <ele>27.0543</ele>
        <time>2012-04-29T12:32:42Z</time>
      </trkpt>
      <trkpt lat="59.9127606" lon="17.6431639">
        <ele>28.0155</ele>
        <time>2012-04-29T12:32:46Z</time>
      </trkpt>
      <trkpt lat="59.9129519" lon="17.643164">
        <ele>28.9769</ele>
        <time>2012-04-29T12:32:51Z</time>
      </trkpt>
      <trkpt lat="59.9130815" lon="17.6431589">
        <ele>29.9381</ele>
        <time>2012-04-29T12:32:54Z</time>
      </trkpt>
      <trkpt lat="59.9134306" lon="17.6430908">
        <ele>28.4962</ele>
        <time>2012-04-29T12:33:01Z</time>
      </trkpt>
      <trkpt lat="59.913889" lon="17.6429734">
        <ele>27.5349</ele>
        <time>2012-04-29T12:33:08Z</time>
      </trkpt>
      <trkpt lat="59.91438" lon="17.6428424">
        <ele>22.7283</ele>
        <time>2012-04-29T12:33:16Z</time>
      </trkpt>
      <trkpt lat="59.9148163" lon="17.6427796">
        <ele>24.651</ele>
        <time>2012-04-29T12:33:23Z</time>
      </trkpt>
      <trkpt lat="59.9151158" lon="17.6427171">
        <ele>24.651</ele>
        <time>2012-04-29T12:33:28Z</time>
      </trkpt>
      <trkpt lat="59.9152871" lon="17.6426057">
        <ele>24.1703</ele>
        <time>2012-04-29T12:33:31Z</time>
      </trkpt>
      <trkpt lat="59.9157037" lon="17.6424863">
        <ele>23.6896</ele>
        <time>2012-04-29T12:33:37Z</time>
      </trkpt>
      <trkpt lat="59.9160313" lon="17.6424728">
        <ele>23.6896</ele>
        <time>2012-04-29T12:33:43Z</time>
      </trkpt>
      <trkpt lat="59.9164086" lon="17.6424538">
        <ele>23.6896</ele>
        <time>2012-04-29T12:33:51Z</time>
      </trkpt>
      <trkpt lat="59.9168271" lon="17.6423954">
        <ele>23.209</ele>
        <time>2012-04-29T12:33:59Z</time>
      </trkpt>
      <trkpt lat="59.9171827" lon="17.6423073">
        <ele>22.7283</ele>
        <time>2012-04-29T12:34:05Z</time>
      </trkpt>
      <trkpt lat="59.9176918" lon="17.6423091">
        <ele>23.209</ele>
        <time>2012-04-29T12:34:14Z</time>
      </trkpt>
      <trkpt lat="59.9181673" lon="17.6422803">
        <ele>24.1703</ele>
        <time>2012-04-29T12:34:23Z</time>
      </trkpt>
      <trkpt lat="59.918595" lon="17.6422383">
        <ele>25.1317</ele>
        <time>2012-04-29T12:34:32Z</time>
      </trkpt>
      <trkpt lat="59.9190379" lon="17.6421813">
        <ele>25.1317</ele>
        <time>2012-04-29T12:34:42Z</time>
      </trkpt>
      <trkpt lat="59.9194699" lon="17.6421383">
        <ele>24.651</ele>
        <time>2012-04-29T12:34:51Z</time>
      </trkpt>
      <trkpt lat="59.9199601" lon="17.6420447">
        <ele>24.1703</ele>
        <time>2012-04-29T12:35:01Z</time>
      </trkpt>
      <trkpt lat="59.920321" lon="17.6420233">
        <ele>24.1703</ele>
        <time>2012-04-29T12:35:08Z</time>
      </trkpt>
      <trkpt lat="59.920831" lon="17.6420074">
        <ele>23.6896</ele>
        <time>2012-04-29T12:35:17Z</time>
      </trkpt>
      <trkpt lat="59.9213121" lon="17.6419679">
        <ele>25.1317</ele>
        <time>2012-04-29T12:35:26Z</time>
      </trkpt>
      <trkpt lat="59.9216838" lon="17.6419165">
        <ele>25.6123</ele>
        <time>2012-04-29T12:35:34Z</time>
      </trkpt>
      <trkpt lat="59.9221389" lon="17.6418668">
        <ele>24.651</ele>
        <time>2012-04-29T12:35:43Z</time>
      </trkpt>
      <trkpt lat="59.9228378" lon="17.6417761">
        <ele>23.6896</ele>
        <time>2012-04-29T12:35:56Z</time>
      </trkpt>
      <trkpt lat="59.9232447" lon="17.6417312">
        <ele>23.209</ele>
        <time>2012-04-29T12:36:03Z</time>
      </trkpt>
      <trkpt lat="59.9237873" lon="17.6416581">
        <ele>21.767</ele>
        <time>2012-04-29T12:36:13Z</time>
      </trkpt>
      <trkpt lat="59.9243575" lon="17.6416035">
        <ele>21.2864</ele>
        <time>2012-04-29T12:36:23Z</time>
      </trkpt>
      <trkpt lat="59.9248853" lon="17.6415007">
        <ele>21.767</ele>
        <time>2012-04-29T12:36:32Z</time>
      </trkpt>
      <trkpt lat="59.925496" lon="17.6414754">
        <ele>21.2864</ele>
        <time>2012-04-29T12:36:42Z</time>
      </trkpt>
      <trkpt lat="59.9262779" lon="17.6413644">
        <ele>20.325</ele>
        <time>2012-04-29T12:36:54Z</time>
      </trkpt>
      <trkpt lat="59.9269232" lon="17.6412878">
        <ele>20.325</ele>
        <time>2012-04-29T12:37:04Z</time>
      </trkpt>
      <trkpt lat="59.9275407" lon="17.6412333">
        <ele>19.8444</ele>
        <time>2012-04-29T12:37:14Z</time>
      </trkpt>
      <trkpt lat="59.9282478" lon="17.641154">
        <ele>19.8444</ele>
        <time>2012-04-29T12:37:26Z</time>
      </trkpt>
      <trkpt lat="59.9285685" lon="17.6411022">
        <ele>19.8444</ele>
        <time>2012-04-29T12:37:33Z</time>
      </trkpt>
      <trkpt lat="59.9288316" lon="17.6410474">
        <ele>19.8444</ele>
        <time>2012-04-29T12:37:39Z</time>
      </trkpt>
      <trkpt lat="59.9291485" lon="17.6410208">
        <ele>19.8444</ele>
        <time>2012-04-29T12:37:45Z</time>
      </trkpt>
      <trkpt lat="59.9295764" lon="17.6409739">
        <ele>20.8057</ele>
        <time>2012-04-29T12:37:53Z</time>
      </trkpt>
      <trkpt lat="59.9299151" lon="17.6409247">
        <ele>21.767</ele>
        <time>2012-04-29T12:38:00Z</time>
      </trkpt>
      <trkpt lat="59.9302134" lon="17.6409257">
        <ele>22.2476</ele>
        <time>2012-04-29T12:38:07Z</time>
      </trkpt>
      <trkpt lat="59.9305418" lon="17.6409268">
        <ele>24.1703</ele>
        <time>2012-04-29T12:38:15Z</time>
      </trkpt>
      <trkpt lat="59.9307431" lon="17.640904">
        <ele>24.1703</ele>
        <time>2012-04-29T12:38:20Z</time>
      </trkpt>
      <trkpt lat="59.9310751" lon="17.6410358">
        <ele>24.1703</ele>
        <time>2012-04-29T12:38:27Z</time>
      </trkpt>
      <trkpt lat="59.93131" lon="17.6411961">
        <ele>26.0929</ele>
        <time>2012-04-29T12:38:33Z</time>
      </trkpt>
      <trkpt lat="59.9315516" lon="17.6413655">
        <ele>26.0929</ele>
        <time>2012-04-29T12:38:40Z</time>
      </trkpt>
      <trkpt lat="59.9319511" lon="17.641616">
        <ele>26.0929</ele>
        <time>2012-04-29T12:38:50Z</time>
      </trkpt>
      <trkpt lat="59.9321591" lon="17.6417975">
        <ele>28.0155</ele>
        <time>2012-04-29T12:38:56Z</time>
      </trkpt>
      <trkpt lat="59.9321997" lon="17.6418406">
        <ele>28.0155</ele>
        <time>2012-04-29T12:38:57Z</time>
      </trkpt>
      <trkpt lat="59.9325843" lon="17.6421948">
        <ele>28.4962</ele>
        <time>2012-04-29T12:39:06Z</time>
      </trkpt>
      <trkpt lat="59.9327338" lon="17.6423818">
        <ele>28.9769</ele>
        <time>2012-04-29T12:39:10Z</time>
      </trkpt>
      <trkpt lat="59.933013" lon="17.6428592">
        <ele>30.4188</ele>
        <time>2012-04-29T12:39:19Z</time>
      </trkpt>
      <trkpt lat="59.9331466" lon="17.6430267">
        <ele>30.8995</ele>
        <time>2012-04-29T12:39:23Z</time>
      </trkpt>
      <trkpt lat="59.9333225" lon="17.6433324">
        <ele>32.8223</ele>
        <time>2012-04-29T12:39:30Z</time>
      </trkpt>
      <trkpt lat="59.9334952" lon="17.6435967">
        <ele>34.2642</ele>
        <time>2012-04-29T12:39:38Z</time>
      </trkpt>
      <trkpt lat="59.9336682" lon="17.6437867">
        <ele>34.7449</ele>
        <time>2012-04-29T12:39:45Z</time>
      </trkpt>
      <trkpt lat="59.93391" lon="17.6440133">
        <ele>35.7061</ele>
        <time>2012-04-29T12:39:53Z</time>
      </trkpt>
      <trkpt lat="59.9341804" lon="17.6443518">
        <ele>36.6675</ele>
        <time>2012-04-29T12:40:01Z</time>
      </trkpt>
      <trkpt lat="59.934431" lon="17.6447238">
        <ele>38.5901</ele>
        <time>2012-04-29T12:40:09Z</time>
      </trkpt>
      <trkpt lat="59.9346297" lon="17.6449994">
        <ele>40.0321</ele>
        <time>2012-04-29T12:40:16Z</time>
      </trkpt>
      <trkpt lat="59.9349823" lon="17.6454102">
        <ele>40.5128</ele>
        <time>2012-04-29T12:40:26Z</time>
      </trkpt>
      <trkpt lat="59.9353191" lon="17.6458011">
        <ele>41.474</ele>
        <time>2012-04-29T12:40:34Z</time>
      </trkpt>
      <trkpt lat="59.9357206" lon="17.6462576">
        <ele>40.9934</ele>
        <time>2012-04-29T12:40:43Z</time>
      </trkpt>
      <trkpt lat="59.9360086" lon="17.6466231">
        <ele>40.5128</ele>
        <time>2012-04-29T12:40:50Z</time>
      </trkpt>
      <trkpt lat="59.9363691" lon="17.6470983">
        <ele>39.0707</ele>
        <time>2012-04-29T12:40:58Z</time>
      </trkpt>
      <trkpt lat="59.9367084" lon="17.6475516">
        <ele>38.5901</ele>
        <time>2012-04-29T12:41:05Z</time>
      </trkpt>
      <trkpt lat="59.9371007" lon="17.6480333">
        <ele>37.6287</ele>
        <time>2012-04-29T12:41:13Z</time>
      </trkpt>
      <trkpt lat="59.9372527" lon="17.6482196">
        <ele>37.1481</ele>
        <time>2012-04-29T12:41:16Z</time>
      </trkpt>
      <trkpt lat="59.9374493" lon="17.6485931">
        <ele>37.6287</ele>
        <time>2012-04-29T12:41:21Z</time>
      </trkpt>
      <trkpt lat="59.9374712" lon="17.6486763">
        <ele>37.1481</ele>
        <time>2012-04-29T12:41:22Z</time>
      </trkpt>
      <trkpt lat="59.937673" lon="17.6492098">
        <ele>36.6675</ele>
        <time>2012-04-29T12:41:28Z</time>
      </trkpt>
      <trkpt lat="59.9377568" lon="17.6493889">
        <ele>36.6675</ele>
        <time>2012-04-29T12:41:30Z</time>
      </trkpt>
      <trkpt lat="59.9380089" lon="17.6500851">
        <ele>36.1868</ele>
        <time>2012-04-29T12:41:37Z</time>
      </trkpt>
      <trkpt lat="59.9382604" lon="17.6507793">
        <ele>36.1868</ele>
        <time>2012-04-29T12:41:44Z</time>
      </trkpt>
      <trkpt lat="59.9383902" lon="17.6510358">
        <ele>36.1868</ele>
        <time>2012-04-29T12:41:47Z</time>
      </trkpt>
      <trkpt lat="59.9386756" lon="17.6519035">
        <ele>36.1868</ele>
        <time>2012-04-29T12:41:56Z</time>
      </trkpt>
      <trkpt lat="59.9389339" lon="17.652871">
        <ele>36.1868</ele>
        <time>2012-04-29T12:42:06Z</time>
      </trkpt>
      <trkpt lat="59.9391846" lon="17.6539475">
        <ele>36.6675</ele>
        <time>2012-04-29T12:42:17Z</time>
      </trkpt>
      <trkpt lat="59.9393858" lon="17.6549321">
        <ele>36.6675</ele>
        <time>2012-04-29T12:42:27Z</time>
      </trkpt>
      <trkpt lat="59.9395817" lon="17.6559366">
        <ele>36.1868</ele>
        <time>2012-04-29T12:42:37Z</time>
      </trkpt>
      <trkpt lat="59.9397781" lon="17.6569177">
        <ele>35.2255</ele>
        <time>2012-04-29T12:42:46Z</time>
      </trkpt>
      <trkpt lat="59.9400215" lon="17.6581148">
        <ele>33.7834</ele>
        <time>2012-04-29T12:42:56Z</time>
      </trkpt>
      <trkpt lat="59.9402672" lon="17.6592814">
        <ele>33.7834</ele>
        <time>2012-04-29T12:43:05Z</time>
      </trkpt>
      <trkpt lat="59.9403298" lon="17.6596657">
        <ele>34.7449</ele>
        <time>2012-04-29T12:43:08Z</time>
      </trkpt>
      <trkpt lat="59.9404579" lon="17.6601343">
        <ele>34.7449</ele>
        <time>2012-04-29T12:43:12Z</time>
      </trkpt>
      <trkpt lat="59.9405333" lon="17.6606976">
        <ele>33.7834</ele>
        <time>2012-04-29T12:43:16Z</time>
      </trkpt>
      <trkpt lat="59.9404503" lon="17.6610426">
        <ele>33.3029</ele>
        <time>2012-04-29T12:43:19Z</time>
      </trkpt>
      <trkpt lat="59.9404174" lon="17.6615708">
        <ele>31.3801</ele>
        <time>2012-04-29T12:43:24Z</time>
      </trkpt>
      <trkpt lat="59.9405156" lon="17.6620299">
        <ele>32.8223</ele>
        <time>2012-04-29T12:43:29Z</time>
      </trkpt>
      <trkpt lat="59.9406746" lon="17.6622134">
        <ele>32.8223</ele>
        <time>2012-04-29T12:43:33Z</time>
      </trkpt>
      <trkpt lat="59.9407997" lon="17.6622515">
        <ele>34.2642</ele>
        <time>2012-04-29T12:43:36Z</time>
      </trkpt>
      <trkpt lat="59.9411731" lon="17.6623727">
        <ele>35.2255</ele>
        <time>2012-04-29T12:43:44Z</time>
      </trkpt>
      <trkpt lat="59.941483" lon="17.6626954">
        <ele>36.1868</ele>
        <time>2012-04-29T12:43:51Z</time>
      </trkpt>
      <trkpt lat="59.9417285" lon="17.6631334">
        <ele>37.1481</ele>
        <time>2012-04-29T12:43:58Z</time>
      </trkpt>
      <trkpt lat="59.9420585" lon="17.6636705">
        <ele>34.7449</ele>
        <time>2012-04-29T12:44:07Z</time>
      </trkpt>
      <trkpt lat="59.9424247" lon="17.6641538">
        <ele>33.3029</ele>
        <time>2012-04-29T12:44:16Z</time>
      </trkpt>
      <trkpt lat="59.9428209" lon="17.6646035">
        <ele>31.8607</ele>
        <time>2012-04-29T12:44:25Z</time>
      </trkpt>
      <trkpt lat="59.9432026" lon="17.6649608">
        <ele>32.8223</ele>
        <time>2012-04-29T12:44:33Z</time>
      </trkpt>
      <trkpt lat="59.9436403" lon="17.6652918">
        <ele>33.3029</ele>
        <time>2012-04-29T12:44:41Z</time>
      </trkpt>
      <trkpt lat="59.9441875" lon="17.665602">
        <ele>33.3029</ele>
        <time>2012-04-29T12:44:50Z</time>
      </trkpt>
      <trkpt lat="59.9443147" lon="17.6656576">
        <ele>33.3029</ele>
        <time>2012-04-29T12:44:52Z</time>
      </trkpt>
      <trkpt lat="59.9447469" lon="17.6658032">
        <ele>32.8223</ele>
        <time>2012-04-29T12:44:59Z</time>
      </trkpt>
      <trkpt lat="59.9454755" lon="17.6660823">
        <ele>32.3416</ele>
        <time>2012-04-29T12:45:11Z</time>
      </trkpt>
      <trkpt lat="59.946116" lon="17.666331">
        <ele>31.8607</ele>
        <time>2012-04-29T12:45:22Z</time>
      </trkpt>
      <trkpt lat="59.9463387" lon="17.6664735">
        <ele>31.3801</ele>
        <time>2012-04-29T12:45:26Z</time>
      </trkpt>
      <trkpt lat="59.9466771" lon="17.6665877">
        <ele>31.3801</ele>
        <time>2012-04-29T12:45:32Z</time>
      </trkpt>
      <trkpt lat="59.9470194" lon="17.6666955">
        <ele>30.8995</ele>
        <time>2012-04-29T12:45:38Z</time>
      </trkpt>
      <trkpt lat="59.9474965" lon="17.6669197">
        <ele>30.4188</ele>
        <time>2012-04-29T12:45:47Z</time>
      </trkpt>
      <trkpt lat="59.9480617" lon="17.6671961">
        <ele>29.4575</ele>
        <time>2012-04-29T12:45:58Z</time>
      </trkpt>
      <trkpt lat="59.948658" lon="17.6675343">
        <ele>28.9769</ele>
        <time>2012-04-29T12:46:10Z</time>
      </trkpt>
      <trkpt lat="59.9491904" lon="17.6678259">
        <ele>28.9769</ele>
        <time>2012-04-29T12:46:20Z</time>
      </trkpt>
      <trkpt lat="59.94973" lon="17.6681306">
        <ele>28.4962</ele>
        <time>2012-04-29T12:46:30Z</time>
      </trkpt>
      <trkpt lat="59.950256" lon="17.6683111">
        <ele>28.4962</ele>
        <time>2012-04-29T12:46:40Z</time>
      </trkpt>
      <trkpt lat="59.950743" lon="17.668313">
        <ele>28.0155</ele>
        <time>2012-04-29T12:46:49Z</time>
      </trkpt>
      <trkpt lat="59.9512359" lon="17.6681564">
        <ele>27.0543</ele>
        <time>2012-04-29T12:46:58Z</time>
      </trkpt>
      <trkpt lat="59.9515238" lon="17.6680915">
        <ele>26.5736</ele>
        <time>2012-04-29T12:47:04Z</time>
      </trkpt>
      <trkpt lat="59.9516886" lon="17.6682435">
        <ele>26.0929</ele>
        <time>2012-04-29T12:47:08Z</time>
      </trkpt>
      <trkpt lat="59.9517396" lon="17.6684121">
        <ele>26.0929</ele>
        <time>2012-04-29T12:47:10Z</time>
      </trkpt>
      <trkpt lat="59.9517991" lon="17.6686839">
        <ele>26.5736</ele>
        <time>2012-04-29T12:47:13Z</time>
      </trkpt>
      <trkpt lat="59.951812" lon="17.6692446">
        <ele>27.0543</ele>
        <time>2012-04-29T12:47:19Z</time>
      </trkpt>
      <trkpt lat="59.9518009" lon="17.6694161">
        <ele>27.0543</ele>
        <time>2012-04-29T12:47:21Z</time>
      </trkpt>
      <trkpt lat="59.9517535" lon="17.6701901">
        <ele>27.5349</ele>
        <time>2012-04-29T12:47:30Z</time>
      </trkpt>
      <trkpt lat="59.9517079" lon="17.6709043">
        <ele>28.4962</ele>
        <time>2012-04-29T12:47:38Z</time>
      </trkpt>
      <trkpt lat="59.951768" lon="17.6713199">
        <ele>29.9381</ele>
        <time>2012-04-29T12:47:44Z</time>
      </trkpt>
      <trkpt lat="59.9517867" lon="17.6716784">
        <ele>30.8995</ele>
        <time>2012-04-29T12:47:50Z</time>
      </trkpt>
      <trkpt lat="59.9518025" lon="17.6721415">
        <ele>31.3801</ele>
        <time>2012-04-29T12:47:57Z</time>
      </trkpt>
      <trkpt lat="59.9518903" lon="17.6729611">
        <ele>32.3416</ele>
        <time>2012-04-29T12:48:08Z</time>
      </trkpt>
      <trkpt lat="59.9520164" lon="17.6737338">
        <ele>33.3029</ele>
        <time>2012-04-29T12:48:18Z</time>
      </trkpt>
      <trkpt lat="59.9521608" lon="17.6744578">
        <ele>34.7449</ele>
        <time>2012-04-29T12:48:28Z</time>
      </trkpt>
      <trkpt lat="59.952245" lon="17.6749506">
        <ele>36.1868</ele>
        <time>2012-04-29T12:48:35Z</time>
      </trkpt>
      <trkpt lat="59.9523618" lon="17.6753873">
        <ele>35.7061</ele>
        <time>2012-04-29T12:48:42Z</time>
      </trkpt>
      <trkpt lat="59.9525357" lon="17.6758437">
        <ele>34.7449</ele>
        <time>2012-04-29T12:48:48Z</time>
      </trkpt>
      <trkpt lat="59.9527584" lon="17.6764682">
        <ele>34.2642</ele>
        <time>2012-04-29T12:48:55Z</time>
      </trkpt>
      <trkpt lat="59.9530126" lon="17.6770987">
        <ele>34.7449</ele>
        <time>2012-04-29T12:49:03Z</time>
      </trkpt>
      <trkpt lat="59.9532406" lon="17.677705">
        <ele>35.7061</ele>
        <time>2012-04-29T12:49:11Z</time>
      </trkpt>
      <trkpt lat="59.953507" lon="17.6784727">
        <ele>35.7061</ele>
        <time>2012-04-29T12:49:20Z</time>
      </trkpt>
      <trkpt lat="59.9537971" lon="17.6793696">
        <ele>34.2642</ele>
        <time>2012-04-29T12:49:30Z</time>
      </trkpt>
      <trkpt lat="59.9541134" lon="17.6802892">
        <ele>33.3029</ele>
        <time>2012-04-29T12:49:40Z</time>
      </trkpt>
      <trkpt lat="59.9544128" lon="17.6812061">
        <ele>33.3029</ele>
        <time>2012-04-29T12:49:49Z</time>
      </trkpt>
      <trkpt lat="59.9546" lon="17.68178">
        <ele>33.7834</ele>
        <time>2012-04-29T12:49:55Z</time>
      </trkpt>
      <trkpt lat="59.9546358" lon="17.6818628">
        <ele>33.7834</ele>
        <time>2012-04-29T12:49:56Z</time>
      </trkpt>
      <trkpt lat="59.954816" lon="17.6821225">
        <ele>33.3029</ele>
        <time>2012-04-29T12:50:00Z</time>
      </trkpt>
      <trkpt lat="59.9548487" lon="17.6822131">
        <ele>33.3029</ele>
        <time>2012-04-29T12:50:01Z</time>
      </trkpt>
      <trkpt lat="59.9551438" lon="17.6832216">
        <ele>32.3416</ele>
        <time>2012-04-29T12:50:11Z</time>
      </trkpt>
      <trkpt lat="59.9553516" lon="17.6840757">
        <ele>34.2642</ele>
        <time>2012-04-29T12:50:19Z</time>
      </trkpt>
      <trkpt lat="59.9555542" lon="17.6851849">
        <ele>35.2255</ele>
        <time>2012-04-29T12:50:30Z</time>
      </trkpt>
      <trkpt lat="59.955706" lon="17.6862358">
        <ele>35.7061</ele>
        <time>2012-04-29T12:50:40Z</time>
      </trkpt>
      <trkpt lat="59.955808" lon="17.6869689">
        <ele>35.7061</ele>
        <time>2012-04-29T12:50:47Z</time>
      </trkpt>
      <trkpt lat="59.9559513" lon="17.6878791">
        <ele>35.7061</ele>
        <time>2012-04-29T12:50:56Z</time>
      </trkpt>
      <trkpt lat="59.956083" lon="17.688701">
        <ele>35.2255</ele>
        <time>2012-04-29T12:51:04Z</time>
      </trkpt>
      <trkpt lat="59.9562011" lon="17.6891062">
        <ele>35.7061</ele>
        <time>2012-04-29T12:51:09Z</time>
      </trkpt>
      <trkpt lat="59.9563817" lon="17.6898776">
        <ele>35.7061</ele>
        <time>2012-04-29T12:51:18Z</time>
      </trkpt>
      <trkpt lat="59.9564285" lon="17.6900407">
        <ele>36.1868</ele>
        <time>2012-04-29T12:51:20Z</time>
      </trkpt>
      <trkpt lat="59.9565226" lon="17.6903388">
        <ele>35.7061</ele>
        <time>2012-04-29T12:51:24Z</time>
      </trkpt>
      <trkpt lat="59.9567622" lon="17.6910655">
        <ele>33.7834</ele>
        <time>2012-04-29T12:51:32Z</time>
      </trkpt>
      <trkpt lat="59.9570133" lon="17.6918982">
        <ele>32.8223</ele>
        <time>2012-04-29T12:51:40Z</time>
      </trkpt>
      <trkpt lat="59.9572183" lon="17.6925887">
        <ele>30.8995</ele>
        <time>2012-04-29T12:51:47Z</time>
      </trkpt>
      <trkpt lat="59.957503" lon="17.6934227">
        <ele>31.3801</ele>
        <time>2012-04-29T12:51:56Z</time>
      </trkpt>
      <trkpt lat="59.957836" lon="17.6943227">
        <ele>33.3029</ele>
        <time>2012-04-29T12:52:06Z</time>
      </trkpt>
      <trkpt lat="59.9581908" lon="17.6953386">
        <ele>34.2642</ele>
        <time>2012-04-29T12:52:17Z</time>
      </trkpt>
      <trkpt lat="59.9585451" lon="17.6963388">
        <ele>31.8607</ele>
        <time>2012-04-29T12:52:28Z</time>
      </trkpt>
      <trkpt lat="59.9587918" lon="17.6970843">
        <ele>32.3416</ele>
        <time>2012-04-29T12:52:36Z</time>
      </trkpt>
      <trkpt lat="59.9589057" lon="17.6976812">
        <ele>33.3029</ele>
        <time>2012-04-29T12:52:42Z</time>
      </trkpt>
      <trkpt lat="59.9589341" lon="17.6978394">
        <ele>32.8223</ele>
        <time>2012-04-29T12:52:44Z</time>
      </trkpt>
      <trkpt lat="59.9589616" lon="17.6979897">
        <ele>33.3029</ele>
        <time>2012-04-29T12:52:46Z</time>
      </trkpt>
      <trkpt lat="59.9590077" lon="17.6986552">
        <ele>34.7449</ele>
        <time>2012-04-29T12:52:54Z</time>
      </trkpt>
      <trkpt lat="59.9590263" lon="17.6992028">
        <ele>35.2255</ele>
        <time>2012-04-29T12:53:00Z</time>
      </trkpt>
      <trkpt lat="59.9590631" lon="17.699929">
        <ele>33.7834</ele>
        <time>2012-04-29T12:53:07Z</time>
      </trkpt>
      <trkpt lat="59.9591226" lon="17.7005656">
        <ele>32.8223</ele>
        <time>2012-04-29T12:53:13Z</time>
      </trkpt>
      <trkpt lat="59.9591927" lon="17.7011659">
        <ele>33.3029</ele>
        <time>2012-04-29T12:53:19Z</time>
      </trkpt>
      <trkpt lat="59.9593184" lon="17.7017903">
        <ele>33.3029</ele>
        <time>2012-04-29T12:53:26Z</time>
      </trkpt>
      <trkpt lat="59.9594609" lon="17.7023709">
        <ele>31.8607</ele>
        <time>2012-04-29T12:53:32Z</time>
      </trkpt>
      <trkpt lat="59.9596978" lon="17.7031592">
        <ele>33.3029</ele>
        <time>2012-04-29T12:53:41Z</time>
      </trkpt>
      <trkpt lat="59.9599565" lon="17.7039587">
        <ele>31.3801</ele>
        <time>2012-04-29T12:53:49Z</time>
      </trkpt>
      <trkpt lat="59.9600306" lon="17.7041471">
        <ele>31.3801</ele>
        <time>2012-04-29T12:53:51Z</time>
      </trkpt>
      <trkpt lat="59.9601106" lon="17.7042973">
        <ele>32.3416</ele>
        <time>2012-04-29T12:53:53Z</time>
      </trkpt>
      <trkpt lat="59.9604897" lon="17.7048029">
        <ele>31.3801</ele>
        <time>2012-04-29T12:54:01Z</time>
      </trkpt>
      <trkpt lat="59.9606321" lon="17.7049808">
        <ele>30.8995</ele>
        <time>2012-04-29T12:54:04Z</time>
      </trkpt>
      <trkpt lat="59.9609695" lon="17.7054603">
        <ele>32.3416</ele>
        <time>2012-04-29T12:54:12Z</time>
      </trkpt>
      <trkpt lat="59.9613314" lon="17.7061121">
        <ele>33.7834</ele>
        <time>2012-04-29T12:54:21Z</time>
      </trkpt>
      <trkpt lat="59.9616647" lon="17.7066262">
        <ele>33.7834</ele>
        <time>2012-04-29T12:54:29Z</time>
      </trkpt>
      <trkpt lat="59.9620568" lon="17.706944">
        <ele>33.7834</ele>
        <time>2012-04-29T12:54:37Z</time>
      </trkpt>
      <trkpt lat="59.9625538" lon="17.7071769">
        <ele>33.7834</ele>
        <time>2012-04-29T12:54:46Z</time>
      </trkpt>
      <trkpt lat="59.9628488" lon="17.7072273">
        <ele>33.7834</ele>
        <time>2012-04-29T12:54:52Z</time>
      </trkpt>
      <trkpt lat="59.9632361" lon="17.7072181">
        <ele>33.7834</ele>
        <time>2012-04-29T12:54:59Z</time>
      </trkpt>
      <trkpt lat="59.9636235" lon="17.7072308">
        <ele>33.3029</ele>
        <time>2012-04-29T12:55:06Z</time>
      </trkpt>
      <trkpt lat="59.964251" lon="17.7073315">
        <ele>32.8223</ele>
        <time>2012-04-29T12:55:17Z</time>
      </trkpt>
      <trkpt lat="59.9646955" lon="17.7075366">
        <ele>32.8223</ele>
        <time>2012-04-29T12:55:25Z</time>
      </trkpt>
      <trkpt lat="59.9651791" lon="17.7078997">
        <ele>32.3416</ele>
        <time>2012-04-29T12:55:34Z</time>
      </trkpt>
      <trkpt lat="59.9656401" lon="17.7083797">
        <ele>31.8607</ele>
        <time>2012-04-29T12:55:43Z</time>
      </trkpt>
      <trkpt lat="59.965845" lon="17.7088005">
        <ele>31.8607</ele>
        <time>2012-04-29T12:55:48Z</time>
      </trkpt>
      <trkpt lat="59.9660629" lon="17.7094859">
        <ele>32.3416</ele>
        <time>2012-04-29T12:55:55Z</time>
      </trkpt>
      <trkpt lat="59.9663386" lon="17.7104675">
        <ele>32.3416</ele>
        <time>2012-04-29T12:56:05Z</time>
      </trkpt>
      <trkpt lat="59.9665791" lon="17.7113201">
        <ele>33.3029</ele>
        <time>2012-04-29T12:56:14Z</time>
      </trkpt>
      <trkpt lat="59.966708" lon="17.7117385">
        <ele>33.3029</ele>
        <time>2012-04-29T12:56:19Z</time>
      </trkpt>
      <trkpt lat="59.9667504" lon="17.7118889">
        <ele>33.3029</ele>
        <time>2012-04-29T12:56:21Z</time>
      </trkpt>
      <trkpt lat="59.9668116" lon="17.7120789">
        <ele>32.8223</ele>
        <time>2012-04-29T12:56:24Z</time>
      </trkpt>
      <trkpt lat="59.9669369" lon="17.7124436">
        <ele>32.3416</ele>
        <time>2012-04-29T12:56:29Z</time>
      </trkpt>
      <trkpt lat="59.9669602" lon="17.7125399">
        <ele>32.3416</ele>
        <time>2012-04-29T12:56:30Z</time>
      </trkpt>
      <trkpt lat="59.9671052" lon="17.7132382">
        <ele>30.4188</ele>
        <time>2012-04-29T12:56:38Z</time>
      </trkpt>
      <trkpt lat="59.9671601" lon="17.7134896">
        <ele>29.4575</ele>
        <time>2012-04-29T12:56:41Z</time>
      </trkpt>
      <trkpt lat="59.9672736" lon="17.7143371">
        <ele>26.5736</ele>
        <time>2012-04-29T12:56:50Z</time>
      </trkpt>
      <trkpt lat="59.9673704" lon="17.7150665">
        <ele>22.7283</ele>
        <time>2012-04-29T12:56:57Z</time>
      </trkpt>
      <trkpt lat="59.967427" lon="17.7153606">
        <ele>22.2476</ele>
        <time>2012-04-29T12:57:01Z</time>
      </trkpt>
      <trkpt lat="59.9674627" lon="17.7155816">
        <ele>22.7283</ele>
        <time>2012-04-29T12:57:04Z</time>
      </trkpt>
      <trkpt lat="59.9676067" lon="17.7161504">
        <ele>25.6123</ele>
        <time>2012-04-29T12:57:13Z</time>
      </trkpt>
      <trkpt lat="59.9676964" lon="17.7164586">
        <ele>26.0929</ele>
        <time>2012-04-29T12:57:18Z</time>
      </trkpt>
      <trkpt lat="59.9678693" lon="17.716765">
        <ele>29.9381</ele>
        <time>2012-04-29T12:57:25Z</time>
      </trkpt>
      <trkpt lat="59.9680528" lon="17.7170569">
        <ele>29.9381</ele>
        <time>2012-04-29T12:57:32Z</time>
      </trkpt>
      <trkpt lat="59.9682511" lon="17.7172612">
        <ele>30.8995</ele>
        <time>2012-04-29T12:57:38Z</time>
      </trkpt>
      <trkpt lat="59.9684016" lon="17.7173371">
        <ele>31.8607</ele>
        <time>2012-04-29T12:57:43Z</time>
      </trkpt>
      <trkpt lat="59.9685831" lon="17.7174441">
        <ele>33.7834</ele>
        <time>2012-04-29T12:57:49Z</time>
      </trkpt>
      <trkpt lat="59.9688632" lon="17.7175112">
        <ele>34.7449</ele>
        <time>2012-04-29T12:57:57Z</time>
      </trkpt>
      <trkpt lat="59.9690145" lon="17.7174817">
        <ele>35.7061</ele>
        <time>2012-04-29T12:58:01Z</time>
      </trkpt>
      <trkpt lat="59.969429" lon="17.7176391">
        <ele>35.2255</ele>
        <time>2012-04-29T12:58:11Z</time>
      </trkpt>
      <trkpt lat="59.9698943" lon="17.7179611">
        <ele>34.2642</ele>
        <time>2012-04-29T12:58:21Z</time>
      </trkpt>
      <trkpt lat="59.9703853" lon="17.7183908">
        <ele>35.7061</ele>
        <time>2012-04-29T12:58:31Z</time>
      </trkpt>
      <trkpt lat="59.9707834" lon="17.7187653">
        <ele>36.6675</ele>
        <time>2012-04-29T12:58:39Z</time>
      </trkpt>
      <trkpt lat="59.9712828" lon="17.7192338">
        <ele>36.1868</ele>
        <time>2012-04-29T12:58:49Z</time>
      </trkpt>
      <trkpt lat="59.971951" lon="17.71985">
        <ele>34.2642</ele>
        <time>2012-04-29T12:59:02Z</time>
      </trkpt>
      <trkpt lat="59.9725098" lon="17.7203646">
        <ele>32.8223</ele>
        <time>2012-04-29T12:59:13Z</time>
      </trkpt>
      <trkpt lat="59.9728488" lon="17.7207189">
        <ele>32.3416</ele>
        <time>2012-04-29T12:59:20Z</time>
      </trkpt>
      <trkpt lat="59.9732022" lon="17.7212286">
        <ele>31.8607</ele>
        <time>2012-04-29T12:59:28Z</time>
      </trkpt>
      <trkpt lat="59.9735315" lon="17.7219383">
        <ele>32.3416</ele>
        <time>2012-04-29T12:59:37Z</time>
      </trkpt>
      <trkpt lat="59.9738281" lon="17.722866">
        <ele>33.3029</ele>
        <time>2012-04-29T12:59:47Z</time>
      </trkpt>
      <trkpt lat="59.9739958" lon="17.7236776">
        <ele>34.7449</ele>
        <time>2012-04-29T12:59:55Z</time>
      </trkpt>
      <trkpt lat="59.974175" lon="17.7248182">
        <ele>37.6287</ele>
        <time>2012-04-29T13:00:06Z</time>
      </trkpt>
      <trkpt lat="59.9743066" lon="17.7259682">
        <ele>38.1094</ele>
        <time>2012-04-29T13:00:17Z</time>
      </trkpt>
      <trkpt lat="59.974345" lon="17.7269801">
        <ele>37.6287</ele>
        <time>2012-04-29T13:00:26Z</time>
      </trkpt>
      <trkpt lat="59.974359" lon="17.7278301">
        <ele>36.6675</ele>
        <time>2012-04-29T13:00:33Z</time>
      </trkpt>
      <trkpt lat="59.9743854" lon="17.7287997">
        <ele>36.6675</ele>
        <time>2012-04-29T13:00:41Z</time>
      </trkpt>
      <trkpt lat="59.9743884" lon="17.7297333">
        <ele>36.6675</ele>
        <time>2012-04-29T13:00:49Z</time>
      </trkpt>
      <trkpt lat="59.9743118" lon="17.7307201">
        <ele>36.1868</ele>
        <time>2012-04-29T13:00:58Z</time>
      </trkpt>
      <trkpt lat="59.9742741" lon="17.7317476">
        <ele>35.7061</ele>
        <time>2012-04-29T13:01:07Z</time>
      </trkpt>
      <trkpt lat="59.9742916" lon="17.7329647">
        <ele>35.2255</ele>
        <time>2012-04-29T13:01:17Z</time>
      </trkpt>
      <trkpt lat="59.9742437" lon="17.7340341">
        <ele>35.2255</ele>
        <time>2012-04-29T13:01:26Z</time>
      </trkpt>
      <trkpt lat="59.9742385" lon="17.7348539">
        <ele>34.7449</ele>
        <time>2012-04-29T13:01:34Z</time>
      </trkpt>
      <trkpt lat="59.9742988" lon="17.7355081">
        <ele>35.2255</ele>
        <time>2012-04-29T13:01:41Z</time>
      </trkpt>
      <trkpt lat="59.9743753" lon="17.7360136">
        <ele>35.7061</ele>
        <time>2012-04-29T13:01:47Z</time>
      </trkpt>
      <trkpt lat="59.9745528" lon="17.7367198">
        <ele>35.7061</ele>
        <time>2012-04-29T13:01:56Z</time>
      </trkpt>
      <trkpt lat="59.9747732" lon="17.7373258">
        <ele>35.7061</ele>
        <time>2012-04-29T13:02:04Z</time>
      </trkpt>
      <trkpt lat="59.9750438" lon="17.7378691">
        <ele>36.1868</ele>
        <time>2012-04-29T13:02:13Z</time>
      </trkpt>
      <trkpt lat="59.9754224" lon="17.7385116">
        <ele>36.1868</ele>
        <time>2012-04-29T13:02:24Z</time>
      </trkpt>
      <trkpt lat="59.9758099" lon="17.7391928">
        <ele>36.1868</ele>
        <time>2012-04-29T13:02:35Z</time>
      </trkpt>
      <trkpt lat="59.9760165" lon="17.7395152">
        <ele>37.1481</ele>
        <time>2012-04-29T13:02:42Z</time>
      </trkpt>
      <trkpt lat="59.9761518" lon="17.7397053">
        <ele>38.1094</ele>
        <time>2012-04-29T13:02:48Z</time>
      </trkpt>
      <trkpt lat="59.9762771" lon="17.7397991">
        <ele>38.1094</ele>
        <time>2012-04-29T13:02:54Z</time>
      </trkpt>
      <trkpt lat="59.9764594" lon="17.7396704">
        <ele>38.1094</ele>
        <time>2012-04-29T13:03:01Z</time>
      </trkpt>
      <trkpt lat="59.9766378" lon="17.7394964">
        <ele>39.0707</ele>
        <time>2012-04-29T13:03:07Z</time>
      </trkpt>
      <trkpt lat="59.9769349" lon="17.7393783">
        <ele>41.9547</ele>
        <time>2012-04-29T13:03:15Z</time>
      </trkpt>
      <trkpt lat="59.9771899" lon="17.7392237">
        <ele>44.358</ele>
        <time>2012-04-29T13:03:22Z</time>
      </trkpt>
      <trkpt lat="59.9774785" lon="17.7390961">
        <ele>46.2806</ele>
        <time>2012-04-29T13:03:31Z</time>
      </trkpt>
      <trkpt lat="59.9776942" lon="17.7390964">
        <ele>48.2034</ele>
        <time>2012-04-29T13:03:39Z</time>
      </trkpt>
      <trkpt lat="59.9779328" lon="17.7392049">
        <ele>50.126</ele>
        <time>2012-04-29T13:03:48Z</time>
      </trkpt>
      <trkpt lat="59.9781729" lon="17.7392506">
        <ele>53.4905</ele>
        <time>2012-04-29T13:03:55Z</time>
      </trkpt>
      <trkpt lat="59.9784265" lon="17.7392894">
        <ele>54.4518</ele>
        <time>2012-04-29T13:04:02Z</time>
      </trkpt>
      <trkpt lat="59.9786481" lon="17.7393085">
        <ele>53.0098</ele>
        <time>2012-04-29T13:04:08Z</time>
      </trkpt>
      <trkpt lat="59.9787889" lon="17.739301">
        <ele>51.0872</ele>
        <time>2012-04-29T13:04:12Z</time>
      </trkpt>
      <trkpt lat="59.978818" lon="17.739308">
        <ele>50.126</ele>
        <time>2012-04-29T13:04:13Z</time>
      </trkpt>
      <trkpt lat="59.9789067" lon="17.7394981">
        <ele>50.126</ele>
        <time>2012-04-29T13:04:18Z</time>
      </trkpt>
      <trkpt lat="59.9789411" lon="17.7396185">
        <ele>50.126</ele>
        <time>2012-04-29T13:04:21Z</time>
      </trkpt>
      <trkpt lat="59.97893" lon="17.7396509">
        <ele>47.7225</ele>
        <time>2012-04-29T13:04:26Z</time>
      </trkpt>
      <trkpt lat="59.9789348" lon="17.7396505">
        <ele>45.7999</ele>
        <time>2012-04-29T13:04:30Z</time>
      </trkpt>
    </trkseg>
  </trk>
</gpx>